Wetterdaten: Donnerstag, 19.05.2022
Datum Zeit Temp. 2m Temp +5 cm Feuchte A. Luftdruck Regen Wind Richtung Richtung Sonnenschein UV Solar Taupunkt Windchill Windben
19.05.2022 00:00 17,6 C 12,8 C 68 % 1021,1 hPa 0,0 l/m 0,0 km/h (0 Bft) N 0 0 min 0,0 UV-I 0 W/m 11,6 C 17,6 C 0,0 km/h (0 Bft)
19.05.2022 00:01 17,7 C 12,8 C 67 % 1021,0 hPa 0,0 l/m 0,0 km/h (0 Bft) N 0 0 min 0,0 UV-I 0 W/m 11,5 C 17,7 C 0,0 km/h (0 Bft)
19.05.2022 00:02 17,7 C 12,8 C 67 % 1021,0 hPa 0,0 l/m 0,0 km/h (0 Bft) N 0 0 min 0,0 UV-I 0 W/m 11,5 C 17,7 C 0,0 km/h (0 Bft)
19.05.2022 00:03 17,8 C 13,3 C 67 % 1021,1 hPa 0,0 l/m 0,0 km/h (0 Bft) N 0 0 min 0,0 UV-I 0 W/m 11,6 C 17,8 C 0,0 km/h (0 Bft)
19.05.2022 00:04 17,8 C 13,3 C 67 % 1021,0 hPa 0,0 l/m 0,0 km/h (0 Bft) N 0 0 min 0,0 UV-I 0 W/m 11,6 C 17,8 C 0,0 km/h (0 Bft)
19.05.2022 00:05 17,8 C 13,3 C 67 % 1021,0 hPa 0,0 l/m 0,0 km/h (0 Bft) N 0 0 min 0,0 UV-I 0 W/m 11,6 C 17,8 C 0,0 km/h (0 Bft)
19.05.2022 00:06 17,8 C 13,3 C 67 % 1021,0 hPa 0,0 l/m 0,0 km/h (0 Bft) N 0 0 min 0,0 UV-I 0 W/m 11,6 C 17,8 C 0,0 km/h (0 Bft)
19.05.2022 00:07 17,8 C 13,3 C 67 % 1021,1 hPa 0,0 l/m 0,0 km/h (0 Bft) N 0 0 min 0,0 UV-I 0 W/m 11,6 C 17,8 C 0,0 km/h (0 Bft)
19.05.2022 00:08 17,8 C 13,3 C 67 % 1021,1 hPa 0,0 l/m 0,0 km/h (0 Bft) N 0 0 min 0,0 UV-I 0 W/m 11,6 C 17,8 C 0,0 km/h (0 Bft)
19.05.2022 00:09 17,7 C 13,3 C 67 % 1021,0 hPa 0,0 l/m 0,0 km/h (0 Bft) N 0 0 min 0,0 UV-I 0 W/m 11,5 C 17,7 C 0,0 km/h (0 Bft)
19.05.2022 00:10 17,7 C 13,3 C 67 % 1020,9 hPa 0,0 l/m 0,0 km/h (0 Bft) N 0 0 min 0,0 UV-I 0 W/m 11,5 C 17,7 C 0,0 km/h (0 Bft)
19.05.2022 00:11 17,6 C 13,3 C 67 % 1021,0 hPa 0,0 l/m 0,0 km/h (0 Bft) N 0 0 min 0,0 UV-I 0 W/m 11,4 C 17,6 C 0,0 km/h (0 Bft)
19.05.2022 00:12 17,5 C 13,3 C 68 % 1021,0 hPa 0,0 l/m 0,0 km/h (0 Bft) N 0 0 min 0,0 UV-I 0 W/m 11,5 C 17,5 C 0,0 km/h (0 Bft)
19.05.2022 00:13 17,4 C 13,3 C 68 % 1020,9 hPa 0,0 l/m 0,0 km/h (0 Bft) N 0 0 min 0,0 UV-I 0 W/m 11,4 C 17,4 C 0,0 km/h (0 Bft)
19.05.2022 00:14 17,3 C 13,3 C 69 % 1021,0 hPa 0,0 l/m 0,0 km/h (0 Bft) N 0 0 min 0,0 UV-I 0 W/m 11,6 C 17,3 C 0,0 km/h (0 Bft)
19.05.2022 00:15 17,2 C 12,8 C 69 % 1021,0 hPa 0,0 l/m 0,0 km/h (0 Bft) N 0 0 min 0,0 UV-I 0 W/m 11,5 C 17,2 C 0,0 km/h (0 Bft)
19.05.2022 00:16 17,1 C 12,8 C 69 % 1020,9 hPa 0,0 l/m 0,0 km/h (0 Bft) N 0 0 min 0,0 UV-I 0 W/m 11,4 C 17,1 C 0,0 km/h (0 Bft)
19.05.2022 00:17 17,1 C 12,8 C 69 % 1021,0 hPa 0,0 l/m 0,0 km/h (0 Bft) N 0 0 min 0,0 UV-I 0 W/m 11,4 C 17,1 C 0,0 km/h (0 Bft)
19.05.2022 00:18 16,9 C 12,8 C 70 % 1020,9 hPa 0,0 l/m 0,0 km/h (0 Bft) N 0 0 min 0,0 UV-I 0 W/m 11,4 C 16,9 C 0,0 km/h (0 Bft)
19.05.2022 00:19 16,9 C 12,8 C 70 % 1021,0 hPa 0,0 l/m 0,0 km/h (0 Bft) N 0 0 min 0,0 UV-I 0 W/m 11,4 C 16,9 C 0,0 km/h (0 Bft)
19.05.2022 00:20 16,9 C 12,8 C 70 % 1020,9 hPa 0,0 l/m 0,0 km/h (0 Bft) N 0 0 min 0,0 UV-I 0 W/m 11,4 C 16,9 C 0,0 km/h (0 Bft)
19.05.2022 00:21 16,8 C 12,8 C 70 % 1020,9 hPa 0,0 l/m 0,0 km/h (0 Bft) N 0 0 min 0,0 UV-I 0 W/m 11,3 C 16,8 C 0,0 km/h (0 Bft)
19.05.2022 00:22 16,8 C 12,8 C 70 % 1020,9 hPa 0,0 l/m 0,0 km/h (0 Bft) N 0 0 min 0,0 UV-I 0 W/m 11,3 C 16,8 C 0,0 km/h (0 Bft)
19.05.2022 00:23 16,8 C 12,8 C 70 % 1020,9 hPa 0,0 l/m 0,0 km/h (0 Bft) N 0 0 min 0,0 UV-I 0 W/m 11,3 C 16,8 C 0,0 km/h (0 Bft)
19.05.2022 00:24 16,7 C 12,8 C 70 % 1020,9 hPa 0,0 l/m 0,0 km/h (0 Bft) N 0 0 min 0,0 UV-I 0 W/m 11,2 C 16,7 C 0,0 km/h (0 Bft)
19.05.2022 00:25 16,7 C 12,8 C 71 % 1020,8 hPa 0,0 l/m 0,0 km/h (0 Bft) N 0 0 min 0,0 UV-I 0 W/m 11,4 C 16,7 C 0,0 km/h (0 Bft)
19.05.2022 00:26 16,6 C 12,8 C 71 % 1020,9 hPa 0,0 l/m 0,0 km/h (0 Bft) N 0 0 min 0,0 UV-I 0 W/m 11,3 C 16,6 C 0,0 km/h (0 Bft)
19.05.2022 00:27 16,4 C 12,8 C 71 % 1020,9 hPa 0,0 l/m 0,0 km/h (0 Bft) N 0 0 min 0,0 UV-I 0 W/m 11,1 C 16,4 C 0,0 km/h (0 Bft)
19.05.2022 00:28 16,4 C 12,8 C 71 % 1020,9 hPa 0,0 l/m 0,0 km/h (0 Bft) N 0 0 min 0,0 UV-I 0 W/m 11,1 C 16,4 C 0,0 km/h (0 Bft)
19.05.2022 00:29 16,3 C 12,2 C 72 % 1020,9 hPa 0,0 l/m 0,0 km/h (0 Bft) N 0 0 min 0,0 UV-I 0 W/m 11,2 C 16,3 C 0,0 km/h (0 Bft)
19.05.2022 00:30 16,3 C 12,8 C 72 % 1020,9 hPa 0,0 l/m 0,0 km/h (0 Bft) N 0 0 min 0,0 UV-I 0 W/m 11,2 C 16,3 C 0,0 km/h (0 Bft)
19.05.2022 00:31 16,2 C 12,8 C 72 % 1020,8 hPa 0,0 l/m 0,0 km/h (0 Bft) N 0 0 min 0,0 UV-I 0 W/m 11,1 C 16,2 C 0,0 km/h (0 Bft)
19.05.2022 00:32 16,1 C 12,2 C 73 % 1020,8 hPa 0,0 l/m 0,0 km/h (0 Bft) N 0 0 min 0,0 UV-I 0 W/m 11,3 C 16,1 C 0,0 km/h (0 Bft)
19.05.2022 00:33 16,0 C 12,2 C 73 % 1020,9 hPa 0,0 l/m 0,0 km/h (0 Bft) N 0 0 min 0,0 UV-I 0 W/m 11,2 C 16,0 C 0,0 km/h (0 Bft)
19.05.2022 00:34 16,0 C 12,2 C 73 % 1020,9 hPa 0,0 l/m 0,0 km/h (0 Bft) N 0 0 min 0,0 UV-I 0 W/m 11,2 C 16,0 C 0,0 km/h (0 Bft)
19.05.2022 00:35 15,9 C 12,2 C 73 % 1020,8 hPa 0,0 l/m 0,0 km/h (0 Bft) N 0 0 min 0,0 UV-I 0 W/m 11,1 C 15,9 C 0,0 km/h (0 Bft)
19.05.2022 00:36 15,9 C 12,2 C 73 % 1020,9 hPa 0,0 l/m 0,0 km/h (0 Bft) N 0 0 min 0,0 UV-I 0 W/m 11,1 C 15,9 C 0,0 km/h (0 Bft)
19.05.2022 00:37 15,9 C 12,2 C 73 % 1020,9 hPa 0,0 l/m 0,0 km/h (0 Bft) N 0 0 min 0,0 UV-I 0 W/m 11,1 C 15,9 C 0,0 km/h (0 Bft)
19.05.2022 00:38 15,8 C 12,2 C 73 % 1020,8 hPa 0,0 l/m 0,0 km/h (0 Bft) N 0 0 min 0,0 UV-I 0 W/m 11,0 C 15,8 C 0,0 km/h (0 Bft)
19.05.2022 00:39 15,8 C 12,2 C 73 % 1020,8 hPa 0,0 l/m 0,0 km/h (0 Bft) N 0 0 min 0,0 UV-I 0 W/m 11,0 C 15,8 C 0,0 km/h (0 Bft)
19.05.2022 00:40 15,7 C 12,2 C 73 % 1020,9 hPa 0,0 l/m 0,0 km/h (0 Bft) N 0 0 min 0,0 UV-I 0 W/m 10,9 C 15,7 C 0,0 km/h (0 Bft)
19.05.2022 00:41 15,7 C 12,2 C 74 % 1020,8 hPa 0,0 l/m 0,0 km/h (0 Bft) N 0 0 min 0,0 UV-I 0 W/m 11,1 C 15,7 C 0,0 km/h (0 Bft)
19.05.2022 00:42 15,7 C 12,2 C 74 % 1020,9 hPa 0,0 l/m 0,0 km/h (0 Bft) N 0 0 min 0,0 UV-I 0 W/m 11,1 C 15,7 C 0,0 km/h (0 Bft)
19.05.2022 00:43 15,6 C 12,2 C 74 % 1020,9 hPa 0,0 l/m 0,0 km/h (0 Bft) N 0 0 min 0,0 UV-I 0 W/m 11,0 C 15,6 C 0,0 km/h (0 Bft)
19.05.2022 00:44 15,6 C 12,2 C 74 % 1020,7 hPa 0,0 l/m 0,0 km/h (0 Bft) N 0 0 min 0,0 UV-I 0 W/m 11,0 C 15,6 C 0,0 km/h (0 Bft)
19.05.2022 00:45 15,5 C 12,2 C 74 % 1020,8 hPa 0,0 l/m 0,0 km/h (0 Bft) N 0 0 min 0,0 UV-I 0 W/m 10,9 C 15,5 C 0,0 km/h (0 Bft)
19.05.2022 00:46 15,5 C 12,2 C 74 % 1020,9 hPa 0,0 l/m 0,0 km/h (0 Bft) N 0 0 min 0,0 UV-I 0 W/m 10,9 C 15,5 C 0,0 km/h (0 Bft)
19.05.2022 00:47 15,6 C 12,2 C 74 % 1020,8 hPa 0,0 l/m 0,0 km/h (0 Bft) N 0 0 min 0,0 UV-I 0 W/m 11,0 C 15,6 C 0,0 km/h (0 Bft)
19.05.2022 00:48 15,6 C 11,7 C 74 % 1020,8 hPa 0,0 l/m 0,0 km/h (0 Bft) N 0 0 min 0,0 UV-I 0 W/m 11,0 C 15,6 C 0,0 km/h (0 Bft)
19.05.2022 00:49 15,6 C 11,7 C 74 % 1020,7 hPa 0,0 l/m 0,0 km/h (0 Bft) N 0 0 min 0,0 UV-I 0 W/m 11,0 C 15,6 C 0,0 km/h (0 Bft)
19.05.2022 00:50 15,5 C 11,7 C 74 % 1020,8 hPa 0,0 l/m 0,0 km/h (0 Bft) N 0 0 min 0,0 UV-I 0 W/m 10,9 C 15,5 C 0,0 km/h (0 Bft)
19.05.2022 00:51 15,5 C 11,7 C 74 % 1020,7 hPa 0,0 l/m 0,0 km/h (0 Bft) N 0 0 min 0,0 UV-I 0 W/m 10,9 C 15,5 C 0,0 km/h (0 Bft)
19.05.2022 00:52 15,5 C 11,7 C 74 % 1020,7 hPa 0,0 l/m 0,0 km/h (0 Bft) N 0 0 min 0,0 UV-I 0 W/m 10,9 C 15,5 C 0,0 km/h (0 Bft)
19.05.2022 00:53 15,4 C 11,7 C 74 % 1020,6 hPa 0,0 l/m 0,0 km/h (0 Bft) N 0 0 min 0,0 UV-I 0 W/m 10,8 C 15,4 C 0,0 km/h (0 Bft)
19.05.2022 00:54 15,4 C 11,7 C 74 % 1020,6 hPa 0,0 l/m 0,0 km/h (0 Bft) N 0 0 min 0,0 UV-I 0 W/m 10,8 C 15,4 C 0,0 km/h (0 Bft)
19.05.2022 00:55 15,4 C 11,7 C 74 % 1020,6 hPa 0,0 l/m 0,0 km/h (0 Bft) N 0 0 min 0,0 UV-I 0 W/m 10,8 C 15,4 C 0,0 km/h (0 Bft)
19.05.2022 00:56 15,3 C 11,7 C 74 % 1020,6 hPa 0,0 l/m 0,0 km/h (0 Bft) N 0 0 min 0,0 UV-I 0 W/m 10,7 C 15,3 C 0,0 km/h (0 Bft)
19.05.2022 00:57 15,3 C 11,7 C 74 % 1020,6 hPa 0,0 l/m 0,0 km/h (0 Bft) N 0 0 min 0,0 UV-I 0 W/m 10,7 C 15,3 C 0,0 km/h (0 Bft)
19.05.2022 00:58 15,3 C 11,7 C 74 % 1020,6 hPa 0,0 l/m 0,0 km/h (0 Bft) N 0 0 min 0,0 UV-I 0 W/m 10,7 C 15,3 C 0,0 km/h (0 Bft)
19.05.2022 00:59 15,2 C 11,7 C 75 % 1020,6 hPa 0,0 l/m 0,0 km/h (0 Bft) N 0 0 min 0,0 UV-I 0 W/m 10,8 C 15,2 C 0,0 km/h (0 Bft)
19.05.2022 01:00 15,1 C 11,7 C 75 % 1020,6 hPa 0,0 l/m 0,0 km/h (0 Bft) N 0 0 min 0,0 UV-I 0 W/m 10,7 C 15,1 C 0,0 km/h (0 Bft)
19.05.2022 01:01 15,0 C 11,7 C 75 % 1020,6 hPa 0,0 l/m 0,0 km/h (0 Bft) N 0 0 min 0,0 UV-I 0 W/m 10,6 C 15,0 C 0,0 km/h (0 Bft)
19.05.2022 01:02 14,9 C 11,7 C 75 % 1020,6 hPa 0,0 l/m 0,0 km/h (0 Bft) N 0 0 min 0,0 UV-I 0 W/m 10,5 C 14,9 C 0,0 km/h (0 Bft)
19.05.2022 01:03 14,8 C 11,7 C 76 % 1020,6 hPa 0,0 l/m 0,0 km/h (0 Bft) N 0 0 min 0,0 UV-I 0 W/m 10,6 C 14,8 C 0,0 km/h (0 Bft)
19.05.2022 01:04 14,8 C 11,1 C 76 % 1020,5 hPa 0,0 l/m 0,0 km/h (0 Bft) N 0 0 min 0,0 UV-I 0 W/m 10,6 C 14,8 C 0,0 km/h (0 Bft)
19.05.2022 01:05 14,6 C 11,1 C 77 % 1020,5 hPa 0,0 l/m 0,0 km/h (0 Bft) N 0 0 min 0,0 UV-I 0 W/m 10,6 C 14,6 C 0,0 km/h (0 Bft)
19.05.2022 01:06 14,6 C 11,1 C 77 % 1020,5 hPa 0,0 l/m 0,0 km/h (0 Bft) N 0 0 min 0,0 UV-I 0 W/m 10,6 C 14,6 C 0,0 km/h (0 Bft)
19.05.2022 01:07 14,6 C 11,1 C 77 % 1020,5 hPa 0,0 l/m 0,0 km/h (0 Bft) N 0 0 min 0,0 UV-I 0 W/m 10,6 C 14,6 C 0,0 km/h (0 Bft)
19.05.2022 01:08 14,6 C 11,1 C 77 % 1020,5 hPa 0,0 l/m 0,0 km/h (0 Bft) N 0 0 min 0,0 UV-I 0 W/m 10,6 C 14,6 C 0,0 km/h (0 Bft)
19.05.2022 01:09 14,6 C 11,1 C 76 % 1020,5 hPa 0,0 l/m 0,0 km/h (0 Bft) N 0 0 min 0,0 UV-I 0 W/m 10,4 C 14,6 C 0,0 km/h (0 Bft)
19.05.2022 01:10 14,6 C 11,1 C 76 % 1020,5 hPa 0,0 l/m 0,0 km/h (0 Bft) N 0 0 min 0,0 UV-I 0 W/m 10,4 C 14,6 C 0,0 km/h (0 Bft)
19.05.2022 01:11 14,6 C 11,1 C 76 % 1020,5 hPa 0,0 l/m 0,0 km/h (0 Bft) N 0 0 min 0,0 UV-I 0 W/m 10,4 C 14,6 C 0,0 km/h (0 Bft)
19.05.2022 01:12 14,6 C 11,1 C 76 % 1020,4 hPa 0,0 l/m 0,0 km/h (0 Bft) N 0 0 min 0,0 UV-I 0 W/m 10,4 C 14,6 C 0,0 km/h (0 Bft)
19.05.2022 01:13 14,6 C 11,1 C 76 % 1020,4 hPa 0,0 l/m 0,0 km/h (0 Bft) N 0 0 min 0,0 UV-I 0 W/m 10,4 C 14,6 C 0,0 km/h (0 Bft)
19.05.2022 01:14 14,5 C 11,1 C 76 % 1020,5 hPa 0,0 l/m 0,0 km/h (0 Bft) N 0 0 min 0,0 UV-I 0 W/m 10,3 C 14,5 C 0,0 km/h (0 Bft)
19.05.2022 01:15 14,4 C 10,6 C 76 % 1020,5 hPa 0,0 l/m 0,0 km/h (0 Bft) N 0 0 min 0,0 UV-I 0 W/m 10,2 C 14,4 C 0,0 km/h (0 Bft)
19.05.2022 01:16 14,5 C 10,6 C 76 % 1020,5 hPa 0,0 l/m 0,0 km/h (0 Bft) N 0 0 min 0,0 UV-I 0 W/m 10,3 C 14,5 C 0,0 km/h (0 Bft)
19.05.2022 01:17 14,5 C 10,6 C 76 % 1020,5 hPa 0,0 l/m 0,0 km/h (0 Bft) N 0 0 min 0,0 UV-I 0 W/m 10,3 C 14,5 C 0,0 km/h (0 Bft)
19.05.2022 01:18 14,5 C 10,6 C 76 % 1020,4 hPa 0,0 l/m 0,0 km/h (0 Bft) N 0 0 min 0,0 UV-I 0 W/m 10,3 C 14,5 C 0,0 km/h (0 Bft)
19.05.2022 01:19 14,4 C 10,6 C 77 % 1020,5 hPa 0,0 l/m 0,0 km/h (0 Bft) N 0 0 min 0,0 UV-I 0 W/m 10,4 C 14,4 C 0,0 km/h (0 Bft)
19.05.2022 01:20 14,3 C 10,6 C 77 % 1020,4 hPa 0,0 l/m 0,0 km/h (0 Bft) N 0 0 min 0,0 UV-I 0 W/m 10,3 C 14,3 C 0,0 km/h (0 Bft)
19.05.2022 01:21 14,3 C 10,6 C 77 % 1020,5 hPa 0,0 l/m 0,0 km/h (0 Bft) N 0 0 min 0,0 UV-I 0 W/m 10,3 C 14,3 C 0,0 km/h (0 Bft)
19.05.2022 01:22 14,3 C 10,6 C 77 % 1020,4 hPa 0,0 l/m 0,0 km/h (0 Bft) N 0 0 min 0,0 UV-I 0 W/m 10,3 C 14,3 C 0,0 km/h (0 Bft)
19.05.2022 01:23 14,2 C 10,6 C 77 % 1020,4 hPa 0,0 l/m 0,0 km/h (0 Bft) N 0 0 min 0,0 UV-I 0 W/m 10,2 C 14,2 C 0,0 km/h (0 Bft)
19.05.2022 01:24 14,2 C 10,6 C 77 % 1020,4 hPa 0,0 l/m 0,0 km/h (0 Bft) N 0 0 min 0,0 UV-I 0 W/m 10,2 C 14,2 C 0,0 km/h (0 Bft)
19.05.2022 01:25 14,2 C 10,6 C 77 % 1020,4 hPa 0,0 l/m 0,0 km/h (0 Bft) N 0 0 min 0,0 UV-I 0 W/m 10,2 C 14,2 C 0,0 km/h (0 Bft)
19.05.2022 01:26 14,1 C 10,6 C 77 % 1020,4 hPa 0,0 l/m 0,0 km/h (0 Bft) N 0 0 min 0,0 UV-I 0 W/m 10,1 C 14,1 C 0,0 km/h (0 Bft)
19.05.2022 01:27 13,9 C 10,6 C 77 % 1020,3 hPa 0,0 l/m 0,0 km/h (0 Bft) N 0 0 min 0,0 UV-I 0 W/m 9,9 C 13,9 C 0,0 km/h (0 Bft)
19.05.2022 01:28 13,8 C 10,6 C 77 % 1020,4 hPa 0,0 l/m 0,0 km/h (0 Bft) N 0 0 min 0,0 UV-I 0 W/m 9,8 C 13,8 C 0,0 km/h (0 Bft)
19.05.2022 01:29 13,7 C 10,6 C 78 % 1020,3 hPa 0,0 l/m 0,0 km/h (0 Bft) N 0 0 min 0,0 UV-I 0 W/m 9,9 C 13,7 C 0,0 km/h (0 Bft)
19.05.2022 01:30 13,6 C 10,6 C 78 % 1020,3 hPa 0,0 l/m 0,0 km/h (0 Bft) N 0 0 min 0,0 UV-I 0 W/m 9,8 C 13,6 C 0,0 km/h (0 Bft)
19.05.2022 01:31 13,6 C 10,6 C 79 % 1020,3 hPa 0,0 l/m 0,0 km/h (0 Bft) N 0 0 min 0,0 UV-I 0 W/m 10,0 C 13,6 C 0,0 km/h (0 Bft)
19.05.2022 01:32 13,5 C 10,6 C 79 % 1020,2 hPa 0,0 l/m 0,0 km/h (0 Bft) N 0 0 min 0,0 UV-I 0 W/m 9,9 C 13,5 C 0,0 km/h (0 Bft)
19.05.2022 01:33 13,5 C 10,6 C 79 % 1020,3 hPa 0,0 l/m 0,0 km/h (0 Bft) N 0 0 min 0,0 UV-I 0 W/m 9,9 C 13,5 C 0,0 km/h (0 Bft)
19.05.2022 01:34 13,5 C 10,0 C 80 % 1020,2 hPa 0,0 l/m 0,0 km/h (0 Bft) N 0 0 min 0,0 UV-I 0 W/m 10,1 C 13,5 C 0,0 km/h (0 Bft)
19.05.2022 01:35 13,4 C 10,6 C 80 % 1020,3 hPa 0,0 l/m 0,0 km/h (0 Bft) N 0 0 min 0,0 UV-I 0 W/m 10,0 C 13,4 C 0,0 km/h (0 Bft)
19.05.2022 01:36 13,4 C 10,6 C 79 % 1020,3 hPa 0,0 l/m 0,0 km/h (0 Bft) N 0 0 min 0,0 UV-I 0 W/m 9,8 C 13,4 C 0,0 km/h (0 Bft)
19.05.2022 01:37 13,3 C 10,6 C 80 % 1020,3 hPa 0,0 l/m 0,0 km/h (0 Bft) N 0 0 min 0,0 UV-I 0 W/m 9,9 C 13,3 C 0,0 km/h (0 Bft)
19.05.2022 01:38 13,3 C 10,6 C 80 % 1020,2 hPa 0,0 l/m 0,0 km/h (0 Bft) N 0 0 min 0,0 UV-I 0 W/m 9,9 C 13,3 C 0,0 km/h (0 Bft)
19.05.2022 01:39 13,2 C 10,6 C 81 % 1020,2 hPa 0,0 l/m 0,0 km/h (0 Bft) N 0 0 min 0,0 UV-I 0 W/m 10,0 C 13,2 C 0,0 km/h (0 Bft)
19.05.2022 01:40 13,2 C 10,6 C 81 % 1020,2 hPa 0,0 l/m 0,0 km/h (0 Bft) N 0 0 min 0,0 UV-I 0 W/m 10,0 C 13,2 C 0,0 km/h (0 Bft)
19.05.2022 01:41 13,2 C 10,6 C 81 % 1020,3 hPa 0,0 l/m 0,0 km/h (0 Bft) N 0 0 min 0,0 UV-I 0 W/m 10,0 C 13,2 C 0,0 km/h (0 Bft)
19.05.2022 01:42 13,1 C 10,6 C 81 % 1020,3 hPa 0,0 l/m 0,0 km/h (0 Bft) N 0 0 min 0,0 UV-I 0 W/m 9,9 C 13,1 C 0,0 km/h (0 Bft)
19.05.2022 01:43 13,1 C 10,6 C 81 % 1020,2 hPa 0,0 l/m 0,0 km/h (0 Bft) N 0 0 min 0,0 UV-I 0 W/m 9,9 C 13,1 C 0,0 km/h (0 Bft)
19.05.2022 01:44 13,1 C 10,6 C 81 % 1020,2 hPa 0,0 l/m 0,0 km/h (0 Bft) N 0 0 min 0,0 UV-I 0 W/m 9,9 C 13,1 C 0,0 km/h (0 Bft)
19.05.2022 01:45 13,2 C 10,6 C 81 % 1020,2 hPa 0,0 l/m 0,0 km/h (0 Bft) N 0 0 min 0,0 UV-I 0 W/m 10,0 C 13,2 C 0,0 km/h (0 Bft)
19.05.2022 01:46 13,2 C 10,6 C 81 % 1020,3 hPa 0,0 l/m 0,0 km/h (0 Bft) N 0 0 min 0,0 UV-I 0 W/m 10,0 C 13,2 C 0,0 km/h (0 Bft)
19.05.2022 01:47 13,2 C 10,0 C 81 % 1020,3 hPa 0,0 l/m 0,0 km/h (0 Bft) N 0 0 min 0,0 UV-I 0 W/m 10,0 C 13,2 C 0,0 km/h (0 Bft)
19.05.2022 01:48 13,2 C 10,6 C 81 % 1020,3 hPa 0,0 l/m 0,0 km/h (0 Bft) N 0 0 min 0,0 UV-I 0 W/m 10,0 C 13,2 C 0,0 km/h (0 Bft)
19.05.2022 01:49 13,3 C 10,6 C 80 % 1020,3 hPa 0,0 l/m 0,0 km/h (0 Bft) N 0 0 min 0,0 UV-I 0 W/m 9,9 C 13,3 C 0,0 km/h (0 Bft)
19.05.2022 01:50 13,3 C 10,0 C 81 % 1020,3 hPa 0,0 l/m 0,0 km/h (0 Bft) N 0 0 min 0,0 UV-I 0 W/m 10,1 C 13,3 C 0,0 km/h (0 Bft)
19.05.2022 01:51 13,2 C 10,0 C 80 % 1020,4 hPa 0,0 l/m 0,0 km/h (0 Bft) N 0 0 min 0,0 UV-I 0 W/m 9,8 C 13,2 C 0,0 km/h (0 Bft)
19.05.2022 01:52 13,2 C 10,0 C 80 % 1020,3 hPa 0,0 l/m 0,0 km/h (0 Bft) N 0 0 min 0,0 UV-I 0 W/m 9,8 C 13,2 C 0,0 km/h (0 Bft)
19.05.2022 01:53 13,2 C 10,0 C 80 % 1020,3 hPa 0,0 l/m 0,0 km/h (0 Bft) N 0 0 min 0,0 UV-I 0 W/m 9,8 C 13,2 C 0,0 km/h (0 Bft)
19.05.2022 01:54 13,2 C 10,0 C 80 % 1020,3 hPa 0,0 l/m 0,0 km/h (0 Bft) N 0 0 min 0,0 UV-I 0 W/m 9,8 C 13,2 C 0,0 km/h (0 Bft)
19.05.2022 01:55 13,2 C 10,0 C 80 % 1020,3 hPa 0,0 l/m 0,0 km/h (0 Bft) N 0 0 min 0,0 UV-I 0 W/m 9,8 C 13,2 C 0,0 km/h (0 Bft)
19.05.2022 01:56 13,2 C 10,0 C 80 % 1020,3 hPa 0,0 l/m 0,0 km/h (0 Bft) N 0 0 min 0,0 UV-I 0 W/m 9,8 C 13,2 C 0,0 km/h (0 Bft)
19.05.2022 01:57 13,2 C 10,0 C 80 % 1020,3 hPa 0,0 l/m 0,0 km/h (0 Bft) N 0 0 min 0,0 UV-I 0 W/m 9,8 C 13,2 C 0,0 km/h (0 Bft)
19.05.2022 01:58 13,1 C 10,0 C 80 % 1020,3 hPa 0,0 l/m 0,0 km/h (0 Bft) N 0 0 min 0,0 UV-I 0 W/m 9,7 C 13,1 C 0,0 km/h (0 Bft)
19.05.2022 01:59 13,1 C 10,0 C 80 % 1020,3 hPa 0,0 l/m 0,0 km/h (0 Bft) N 0 0 min 0,0 UV-I 0 W/m 9,7 C 13,1 C 0,0 km/h (0 Bft)
19.05.2022 02:00 13,1 C 10,0 C 81 % 1020,3 hPa 0,0 l/m 0,0 km/h (0 Bft) N 0 0 min 0,0 UV-I 0 W/m 9,9 C 13,1 C 0,0 km/h (0 Bft)
19.05.2022 02:01 13,1 C 10,0 C 81 % 1020,3 hPa 0,0 l/m 0,0 km/h (0 Bft) N 0 0 min 0,0 UV-I 0 W/m 9,9 C 13,1 C 0,0 km/h (0 Bft)
19.05.2022 02:02 13,1 C 10,0 C 80 % 1020,3 hPa 0,0 l/m 0,0 km/h (0 Bft) N 0 0 min 0,0 UV-I 0 W/m 9,7 C 13,1 C 0,0 km/h (0 Bft)
19.05.2022 02:03 13,0 C 10,0 C 80 % 1020,3 hPa 0,0 l/m 0,0 km/h (0 Bft) N 0 0 min 0,0 UV-I 0 W/m 9,6 C 13,0 C 0,0 km/h (0 Bft)
19.05.2022 02:04 13,0 C 10,0 C 81 % 1020,3 hPa 0,0 l/m 0,0 km/h (0 Bft) N 0 0 min 0,0 UV-I 0 W/m 9,8 C 13,0 C 0,0 km/h (0 Bft)
19.05.2022 02:05 13,0 C 10,0 C 81 % 1020,3 hPa 0,0 l/m 0,0 km/h (0 Bft) N 0 0 min 0,0 UV-I 0 W/m 9,8 C 13,0 C 0,0 km/h (0 Bft)
19.05.2022 02:06 13,0 C 10,0 C 81 % 1020,2 hPa 0,0 l/m 0,0 km/h (0 Bft) N 0 0 min 0,0 UV-I 0 W/m 9,8 C 13,0 C 0,0 km/h (0 Bft)
19.05.2022 02:07 12,9 C 10,0 C 81 % 1020,3 hPa 0,0 l/m 0,0 km/h (0 Bft) N 0 0 min 0,0 UV-I 0 W/m 9,7 C 12,9 C 0,0 km/h (0 Bft)
19.05.2022 02:08 12,9 C 10,0 C 81 % 1020,1 hPa 0,0 l/m 0,0 km/h (0 Bft) N 0 0 min 0,0 UV-I 0 W/m 9,7 C 12,9 C 0,0 km/h (0 Bft)
19.05.2022 02:09 12,8 C 10,0 C 81 % 1020,1 hPa 0,0 l/m 0,0 km/h (0 Bft) N 0 0 min 0,0 UV-I 0 W/m 9,6 C 12,8 C 0,0 km/h (0 Bft)
19.05.2022 02:10 12,8 C 10,0 C 81 % 1020,1 hPa 0,0 l/m 0,0 km/h (0 Bft) N 0 0 min 0,0 UV-I 0 W/m 9,6 C 12,8 C 0,0 km/h (0 Bft)
19.05.2022 02:11 12,7 C 10,0 C 81 % 1020,1 hPa 0,0 l/m 0,0 km/h (0 Bft) N 0 0 min 0,0 UV-I 0 W/m 9,5 C 12,7 C 0,0 km/h (0 Bft)
19.05.2022 02:12 12,7 C 10,0 C 82 % 1020,1 hPa 0,0 l/m 0,0 km/h (0 Bft) N 0 0 min 0,0 UV-I 0 W/m 9,7 C 12,7 C 0,0 km/h (0 Bft)
19.05.2022 02:13 12,7 C 10,0 C 82 % 1020,0 hPa 0,0 l/m 0,0 km/h (0 Bft) N 0 0 min 0,0 UV-I 0 W/m 9,7 C 12,7 C 0,0 km/h (0 Bft)
19.05.2022 02:14 12,7 C 10,0 C 82 % 1020,0 hPa 0,0 l/m 0,0 km/h (0 Bft) N 0 0 min 0,0 UV-I 0 W/m 9,7 C 12,7 C 0,0 km/h (0 Bft)
19.05.2022 02:15 12,7 C 10,0 C 83 % 1020,1 hPa 0,0 l/m 0,0 km/h (0 Bft) N 0 0 min 0,0 UV-I 0 W/m 9,9 C 12,7 C 0,0 km/h (0 Bft)
19.05.2022 02:16 12,8 C 10,0 C 83 % 1020,1 hPa 0,0 l/m 0,0 km/h (0 Bft) N 0 0 min 0,0 UV-I 0 W/m 10,0 C 12,8 C 0,0 km/h (0 Bft)
19.05.2022 02:17 12,8 C 10,0 C 83 % 1020,0 hPa 0,0 l/m 0,0 km/h (0 Bft) N 0 0 min 0,0 UV-I 0 W/m 10,0 C 12,8 C 0,0 km/h (0 Bft)
19.05.2022 02:18 12,8 C 10,0 C 83 % 1020,0 hPa 0,0 l/m 0,0 km/h (0 Bft) N 0 0 min 0,0 UV-I 0 W/m 10,0 C 12,8 C 0,0 km/h (0 Bft)
19.05.2022 02:19 12,7 C 10,0 C 83 % 1020,0 hPa 0,0 l/m 0,0 km/h (0 Bft) N 0 0 min 0,0 UV-I 0 W/m 9,9 C 12,7 C 0,0 km/h (0 Bft)
19.05.2022 02:20 12,7 C 10,0 C 83 % 1020,0 hPa 0,0 l/m 0,0 km/h (0 Bft) N 0 0 min 0,0 UV-I 0 W/m 9,9 C 12,7 C 0,0 km/h (0 Bft)
19.05.2022 02:21 12,8 C 10,0 C 83 % 1020,1 hPa 0,0 l/m 0,0 km/h (0 Bft) N 0 0 min 0,0 UV-I 0 W/m 10,0 C 12,8 C 0,0 km/h (0 Bft)
19.05.2022 02:22 12,7 C 10,0 C 83 % 1020,1 hPa 0,0 l/m 0,0 km/h (0 Bft) N 0 0 min 0,0 UV-I 0 W/m 9,9 C 12,7 C 0,0 km/h (0 Bft)
19.05.2022 02:23 12,7 C 10,0 C 83 % 1020,1 hPa 0,0 l/m 0,0 km/h (0 Bft) N 0 0 min 0,0 UV-I 0 W/m 9,9 C 12,7 C 0,0 km/h (0 Bft)
19.05.2022 02:24 12,8 C 10,0 C 83 % 1020,0 hPa 0,0 l/m 0,0 km/h (0 Bft) N 0 0 min 0,0 UV-I 0 W/m 10,0 C 12,8 C 0,0 km/h (0 Bft)
19.05.2022 02:25 12,8 C 9,4 C 83 % 1020,1 hPa 0,0 l/m 0,0 km/h (0 Bft) N 0 0 min 0,0 UV-I 0 W/m 10,0 C 12,8 C 0,0 km/h (0 Bft)
19.05.2022 02:26 12,8 C 9,4 C 82 % 1020,1 hPa 0,0 l/m 0,0 km/h (0 Bft) N 0 0 min 0,0 UV-I 0 W/m 9,8 C 12,8 C 0,0 km/h (0 Bft)
19.05.2022 02:27 12,9 C 10,0 C 82 % 1020,1 hPa 0,0 l/m 0,0 km/h (0 Bft) N 0 0 min 0,0 UV-I 0 W/m 9,9 C 12,9 C 0,0 km/h (0 Bft)
19.05.2022 02:28 12,9 C 10,0 C 82 % 1020,0 hPa 0,0 l/m 0,0 km/h (0 Bft) N 0 0 min 0,0 UV-I 0 W/m 9,9 C 12,9 C 0,0 km/h (0 Bft)
19.05.2022 02:29 12,9 C 10,0 C 82 % 1020,0 hPa 0,0 l/m 0,0 km/h (0 Bft) N 0 0 min 0,0 UV-I 0 W/m 9,9 C 12,9 C 0,0 km/h (0 Bft)
19.05.2022 02:30 12,8 C 10,0 C 81 % 1020,0 hPa 0,0 l/m 0,0 km/h (0 Bft) N 0 0 min 0,0 UV-I 0 W/m 9,6 C 12,8 C 0,0 km/h (0 Bft)
19.05.2022 02:31 12,7 C 10,0 C 81 % 1019,8 hPa 0,0 l/m 0,0 km/h (0 Bft) N 0 0 min 0,0 UV-I 0 W/m 9,5 C 12,7 C 0,0 km/h (0 Bft)
19.05.2022 02:32 12,6 C 10,0 C 82 % 1019,8 hPa 0,0 l/m 0,0 km/h (0 Bft) N 0 0 min 0,0 UV-I 0 W/m 9,6 C 12,6 C 0,0 km/h (0 Bft)
19.05.2022 02:33 12,4 C 10,0 C 82 % 1019,8 hPa 0,0 l/m 0,0 km/h (0 Bft) N 0 0 min 0,0 UV-I 0 W/m 9,4 C 12,4 C 0,0 km/h (0 Bft)
19.05.2022 02:34 12,3 C 10,0 C 82 % 1019,7 hPa 0,0 l/m 0,0 km/h (0 Bft) N 0 0 min 0,0 UV-I 0 W/m 9,3 C 12,3 C 0,0 km/h (0 Bft)
19.05.2022 02:35 12,1 C 10,0 C 82 % 1019,8 hPa 0,0 l/m 0,0 km/h (0 Bft) N 0 0 min 0,0 UV-I 0 W/m 9,1 C 12,1 C 0,0 km/h (0 Bft)
19.05.2022 02:36 12,1 C 10,0 C 82 % 1019,7 hPa 0,0 l/m 0,0 km/h (0 Bft) N 0 0 min 0,0 UV-I 0 W/m 9,1 C 12,1 C 0,0 km/h (0 Bft)
19.05.2022 02:37 12,0 C 10,0 C 83 % 1019,8 hPa 0,0 l/m 0,0 km/h (0 Bft) N 0 0 min 0,0 UV-I 0 W/m 9,2 C 12,0 C 0,0 km/h (0 Bft)
19.05.2022 02:38 12,0 C 10,0 C 84 % 1019,8 hPa 0,0 l/m 0,0 km/h (0 Bft) N 0 0 min 0,0 UV-I 0 W/m 9,4 C 12,0 C 0,0 km/h (0 Bft)
19.05.2022 02:39 12,1 C 10,0 C 84 % 1019,8 hPa 0,0 l/m 0,0 km/h (0 Bft) N 0 0 min 0,0 UV-I 0 W/m 9,5 C 12,1 C 0,0 km/h (0 Bft)
19.05.2022 02:40 12,2 C 10,0 C 84 % 1019,8 hPa 0,0 l/m 0,0 km/h (0 Bft) N 0 0 min 0,0 UV-I 0 W/m 9,6 C 12,2 C 0,0 km/h (0 Bft)
19.05.2022 02:41 12,2 C 10,0 C 84 % 1019,7 hPa 0,0 l/m 0,0 km/h (0 Bft) N 0 0 min 0,0 UV-I 0 W/m 9,6 C 12,2 C 0,0 km/h (0 Bft)
19.05.2022 02:42 12,3 C 10,0 C 84 % 1019,7 hPa 0,0 l/m 0,0 km/h (0 Bft) N 0 0 min 0,0 UV-I 0 W/m 9,7 C 12,3 C 0,0 km/h (0 Bft)
19.05.2022 02:43 12,3 C 10,0 C 84 % 1019,7 hPa 0,0 l/m 0,0 km/h (0 Bft) N 0 0 min 0,0 UV-I 0 W/m 9,7 C 12,3 C 0,0 km/h (0 Bft)
19.05.2022 02:44 12,4 C 9,4 C 84 % 1019,7 hPa 0,0 l/m 0,0 km/h (0 Bft) N 0 0 min 0,0 UV-I 0 W/m 9,8 C 12,4 C 0,0 km/h (0 Bft)
19.05.2022 02:45 12,5 C 10,0 C 84 % 1019,7 hPa 0,0 l/m 0,0 km/h (0 Bft) N 0 0 min 0,0 UV-I 0 W/m 9,9 C 12,5 C 0,0 km/h (0 Bft)
19.05.2022 02:46 12,6 C 10,0 C 84 % 1019,7 hPa 0,0 l/m 0,0 km/h (0 Bft) N 0 0 min 0,0 UV-I 0 W/m 10,0 C 12,6 C 0,0 km/h (0 Bft)
19.05.2022 02:47 12,5 C 9,4 C 83 % 1019,7 hPa 0,0 l/m 0,0 km/h (0 Bft) N 0 0 min 0,0 UV-I 0 W/m 9,7 C 12,5 C 0,0 km/h (0 Bft)
19.05.2022 02:48 12,5 C 10,0 C 83 % 1019,7 hPa 0,0 l/m 0,0 km/h (0 Bft) N 0 0 min 0,0 UV-I 0 W/m 9,7 C 12,5 C 0,0 km/h (0 Bft)
19.05.2022 02:49 12,6 C 10,0 C 83 % 1019,7 hPa 0,0 l/m 0,0 km/h (0 Bft) N 0 0 min 0,0 UV-I 0 W/m 9,8 C 12,6 C 0,0 km/h (0 Bft)
19.05.2022 02:50 12,6 C 10,0 C 83 % 1019,7 hPa 0,0 l/m 0,0 km/h (0 Bft) N 0 0 min 0,0 UV-I 0 W/m 9,8 C 12,6 C 0,0 km/h (0 Bft)
19.05.2022 02:51 12,6 C 10,0 C 83 % 1019,6 hPa 0,0 l/m 0,0 km/h (0 Bft) N 0 0 min 0,0 UV-I 0 W/m 9,8 C 12,6 C 0,0 km/h (0 Bft)
19.05.2022 02:52 12,6 C 9,4 C 83 % 1019,7 hPa 0,0 l/m 0,0 km/h (0 Bft) N 0 0 min 0,0 UV-I 0 W/m 9,8 C 12,6 C 0,0 km/h (0 Bft)
19.05.2022 02:53 12,6 C 9,4 C 83 % 1019,7 hPa 0,0 l/m 0,0 km/h (0 Bft) N 0 0 min 0,0 UV-I 0 W/m 9,8 C 12,6 C 0,0 km/h (0 Bft)
19.05.2022 02:54 12,6 C 9,4 C 83 % 1019,7 hPa 0,0 l/m 0,0 km/h (0 Bft) N 0 0 min 0,0 UV-I 0 W/m 9,8 C 12,6 C 0,0 km/h (0 Bft)
19.05.2022 02:55 12,6 C 9,4 C 83 % 1019,6 hPa 0,0 l/m 0,0 km/h (0 Bft) N 0 0 min 0,0 UV-I 0 W/m 9,8 C 12,6 C 0,0 km/h (0 Bft)
19.05.2022 02:56 12,7 C 9,4 C 83 % 1019,6 hPa 0,0 l/m 0,0 km/h (0 Bft) N 0 0 min 0,0 UV-I 0 W/m 9,9 C 12,7 C 0,0 km/h (0 Bft)
19.05.2022 02:57 12,6 C 9,4 C 83 % 1019,7 hPa 0,0 l/m 0,0 km/h (0 Bft) N 0 0 min 0,0 UV-I 0 W/m 9,8 C 12,6 C 0,0 km/h (0 Bft)
19.05.2022 02:58 12,6 C 9,4 C 83 % 1019,7 hPa 0,0 l/m 0,0 km/h (0 Bft) N 0 0 min 0,0 UV-I 0 W/m 9,8 C 12,6 C 0,0 km/h (0 Bft)
19.05.2022 02:59 12,6 C 9,4 C 83 % 1019,6 hPa 0,0 l/m 0,0 km/h (0 Bft) N 0 0 min 0,0 UV-I 0 W/m 9,8 C 12,6 C 0,0 km/h (0 Bft)
19.05.2022 03:00 12,5 C 9,4 C 83 % 1019,6 hPa 0,0 l/m 0,0 km/h (0 Bft) N 0 0 min 0,0 UV-I 0 W/m 9,7 C 12,5 C 0,0 km/h (0 Bft)
19.05.2022 03:01 12,4 C 9,4 C 83 % 1019,6 hPa 0,0 l/m 0,0 km/h (0 Bft) N 0 0 min 0,0 UV-I 0 W/m 9,6 C 12,4 C 0,0 km/h (0 Bft)
19.05.2022 03:02 12,4 C 9,4 C 83 % 1019,6 hPa 0,0 l/m 0,0 km/h (0 Bft) N 0 0 min 0,0 UV-I 0 W/m 9,6 C 12,4 C 0,0 km/h (0 Bft)
19.05.2022 03:03 12,3 C 9,4 C 83 % 1019,6 hPa 0,0 l/m 0,0 km/h (0 Bft) N 0 0 min 0,0 UV-I 0 W/m 9,5 C 12,3 C 0,0 km/h (0 Bft)
19.05.2022 03:04 12,3 C 9,4 C 83 % 1019,5 hPa 0,0 l/m 0,0 km/h (0 Bft) N 0 0 min 0,0 UV-I 0 W/m 9,5 C 12,3 C 0,0 km/h (0 Bft)
19.05.2022 03:05 12,3 C 9,4 C 83 % 1019,6 hPa 0,0 l/m 0,0 km/h (0 Bft) N 0 0 min 0,0 UV-I 0 W/m 9,5 C 12,3 C 0,0 km/h (0 Bft)
19.05.2022 03:06 12,3 C 9,4 C 83 % 1019,6 hPa 0,0 l/m 0,0 km/h (0 Bft) N 0 0 min 0,0 UV-I 0 W/m 9,5 C 12,3 C 0,0 km/h (0 Bft)
19.05.2022 03:07 12,3 C 9,4 C 83 % 1019,6 hPa 0,0 l/m 0,0 km/h (0 Bft) N 0 0 min 0,0 UV-I 0 W/m 9,5 C 12,3 C 0,0 km/h (0 Bft)
19.05.2022 03:08 12,3 C 9,4 C 83 % 1019,5 hPa 0,0 l/m 0,0 km/h (0 Bft) N 0 0 min 0,0 UV-I 0 W/m 9,5 C 12,3 C 0,0 km/h (0 Bft)
19.05.2022 03:09 12,3 C 9,4 C 83 % 1019,6 hPa 0,0 l/m 0,0 km/h (0 Bft) N 0 0 min 0,0 UV-I 0 W/m 9,5 C 12,3 C 0,0 km/h (0 Bft)
19.05.2022 03:10 12,3 C 10,0 C 84 % 1019,5 hPa 0,0 l/m 0,0 km/h (0 Bft) N 0 0 min 0,0 UV-I 0 W/m 9,7 C 12,3 C 0,0 km/h (0 Bft)
19.05.2022 03:11 12,3 C 10,0 C 84 % 1019,5 hPa 0,0 l/m 0,0 km/h (0 Bft) N 0 0 min 0,0 UV-I 0 W/m 9,7 C 12,3 C 0,0 km/h (0 Bft)
19.05.2022 03:12 12,3 C 10,0 C 83 % 1019,5 hPa 0,0 l/m 0,0 km/h (0 Bft) N 0 0 min 0,0 UV-I 0 W/m 9,5 C 12,3 C 0,0 km/h (0 Bft)
19.05.2022 03:13 12,3 C 10,0 C 84 % 1019,4 hPa 0,0 l/m 0,0 km/h (0 Bft) N 0 0 min 0,0 UV-I 0 W/m 9,7 C 12,3 C 0,0 km/h (0 Bft)
19.05.2022 03:14 12,4 C 10,0 C 84 % 1019,6 hPa 0,0 l/m 0,0 km/h (0 Bft) N 0 0 min 0,0 UV-I 0 W/m 9,8 C 12,4 C 0,0 km/h (0 Bft)
19.05.2022 03:15 12,4 C 9,4 C 84 % 1019,5 hPa 0,0 l/m 0,0 km/h (0 Bft) N 0 0 min 0,0 UV-I 0 W/m 9,8 C 12,4 C 0,0 km/h (0 Bft)
19.05.2022 03:16 12,4 C 10,0 C 84 % 1019,4 hPa 0,0 l/m 0,0 km/h (0 Bft) N 0 0 min 0,0 UV-I 0 W/m 9,8 C 12,4 C 0,0 km/h (0 Bft)
19.05.2022 03:17 12,4 C 10,0 C 83 % 1019,5 hPa 0,0 l/m 0,0 km/h (0 Bft) N 0 0 min 0,0 UV-I 0 W/m 9,6 C 12,4 C 0,0 km/h (0 Bft)
19.05.2022 03:18 12,4 C 10,0 C 83 % 1019,5 hPa 0,0 l/m 0,0 km/h (0 Bft) N 0 0 min 0,0 UV-I 0 W/m 9,6 C 12,4 C 0,0 km/h (0 Bft)
19.05.2022 03:19 12,4 C 10,0 C 83 % 1019,5 hPa 0,0 l/m 0,0 km/h (0 Bft) N 0 0 min 0,0 UV-I 0 W/m 9,6 C 12,4 C 0,0 km/h (0 Bft)
19.05.2022 03:20 12,4 C 10,0 C 83 % 1019,6 hPa 0,0 l/m 0,0 km/h (0 Bft) N 0 0 min 0,0 UV-I 0 W/m 9,6 C 12,4 C 0,0 km/h (0 Bft)
19.05.2022 03:21 12,3 C 10,0 C 83 % 1019,6 hPa 0,0 l/m 0,0 km/h (0 Bft) N 0 0 min 0,0 UV-I 0 W/m 9,5 C 12,3 C 0,0 km/h (0 Bft)
19.05.2022 03:22 12,3 C 10,0 C 83 % 1019,5 hPa 0,0 l/m 0,0 km/h (0 Bft) N 0 0 min 0,0 UV-I 0 W/m 9,5 C 12,3 C 0,0 km/h (0 Bft)
19.05.2022 03:23 12,3 C 10,0 C 83 % 1019,5 hPa 0,0 l/m 0,0 km/h (0 Bft) N 0 0 min 0,0 UV-I 0 W/m 9,5 C 12,3 C 0,0 km/h (0 Bft)
19.05.2022 03:24 12,3 C 10,0 C 83 % 1019,5 hPa 0,0 l/m 0,0 km/h (0 Bft) N 0 0 min 0,0 UV-I 0 W/m 9,5 C 12,3 C 0,0 km/h (0 Bft)
19.05.2022 03:25 12,3 C 10,0 C 84 % 1019,5 hPa 0,0 l/m 0,0 km/h (0 Bft) N 0 0 min 0,0 UV-I 0 W/m 9,7 C 12,3 C 0,0 km/h (0 Bft)
19.05.2022 03:26 12,3 C 10,0 C 83 % 1019,5 hPa 0,0 l/m 0,0 km/h (0 Bft) N 0 0 min 0,0 UV-I 0 W/m 9,5 C 12,3 C 0,0 km/h (0 Bft)
19.05.2022 03:27 12,2 C 10,0 C 83 % 1019,6 hPa 0,0 l/m 0,0 km/h (0 Bft) N 0 0 min 0,0 UV-I 0 W/m 9,4 C 12,2 C 0,0 km/h (0 Bft)
19.05.2022 03:28 12,1 C 10,0 C 83 % 1019,6 hPa 0,0 l/m 0,0 km/h (0 Bft) N 0 0 min 0,0 UV-I 0 W/m 9,3 C 12,1 C 0,0 km/h (0 Bft)
19.05.2022 03:29 11,9 C 10,0 C 83 % 1019,5 hPa 0,0 l/m 0,0 km/h (0 Bft) N 0 0 min 0,0 UV-I 0 W/m 9,1 C 11,9 C 0,0 km/h (0 Bft)
19.05.2022 03:30 11,9 C 10,0 C 83 % 1019,5 hPa 0,0 l/m 0,0 km/h (0 Bft) N 0 0 min 0,0 UV-I 0 W/m 9,1 C 11,9 C 0,0 km/h (0 Bft)
19.05.2022 03:31 12,0 C 10,0 C 84 % 1019,5 hPa 0,0 l/m 0,0 km/h (0 Bft) N 0 0 min 0,0 UV-I 0 W/m 9,4 C 12,0 C 0,0 km/h (0 Bft)
19.05.2022 03:32 12,1 C 10,0 C 84 % 1019,5 hPa 0,0 l/m 0,0 km/h (0 Bft) N 0 0 min 0,0 UV-I 0 W/m 9,5 C 12,1 C 0,0 km/h (0 Bft)
19.05.2022 03:33 12,0 C 10,0 C 84 % 1019,5 hPa 0,0 l/m 0,0 km/h (0 Bft) N 0 0 min 0,0 UV-I 0 W/m 9,4 C 12,0 C 0,0 km/h (0 Bft)
19.05.2022 03:34 11,9 C 10,0 C 84 % 1019,5 hPa 0,0 l/m 0,0 km/h (0 Bft) N 0 0 min 0,0 UV-I 0 W/m 9,3 C 11,9 C 0,0 km/h (0 Bft)
19.05.2022 03:35 11,9 C 9,4 C 84 % 1019,5 hPa 0,0 l/m 0,0 km/h (0 Bft) N 0 0 min 0,0 UV-I 0 W/m 9,3 C 11,9 C 0,0 km/h (0 Bft)
19.05.2022 03:36 11,9 C 9,4 C 84 % 1019,5 hPa 0,0 l/m 0,0 km/h (0 Bft) N 0 0 min 0,0 UV-I 0 W/m 9,3 C 11,9 C 0,0 km/h (0 Bft)
19.05.2022 03:37 11,9 C 9,4 C 84 % 1019,4 hPa 0,0 l/m 0,0 km/h (0 Bft) N 0 0 min 0,0 UV-I 0 W/m 9,3 C 11,9 C 0,0 km/h (0 Bft)
19.05.2022 03:38 11,9 C 9,4 C 85 % 1019,5 hPa 0,0 l/m 0,0 km/h (0 Bft) N 0 0 min 0,0 UV-I 0 W/m 9,5 C 11,9 C 0,0 km/h (0 Bft)
19.05.2022 03:39 12,0 C 9,4 C 85 % 1019,4 hPa 0,0 l/m 0,0 km/h (0 Bft) N 0 0 min 0,0 UV-I 0 W/m 9,6 C 12,0 C 0,0 km/h (0 Bft)
19.05.2022 03:40 12,1 C 9,4 C 85 % 1019,5 hPa 0,0 l/m 0,0 km/h (0 Bft) N 0 0 min 0,0 UV-I 0 W/m 9,7 C 12,1 C 0,0 km/h (0 Bft)
19.05.2022 03:41 12,2 C 9,4 C 85 % 1019,5 hPa 0,0 l/m 0,0 km/h (0 Bft) N 0 0 min 0,0 UV-I 0 W/m 9,8 C 12,2 C 0,0 km/h (0 Bft)
19.05.2022 03:42 12,4 C 10,0 C 85 % 1019,4 hPa 0,0 l/m 0,0 km/h (0 Bft) N 0 0 min 0,0 UV-I 0 W/m 9,9 C 12,4 C 0,0 km/h (0 Bft)
19.05.2022 03:43 12,6 C 10,0 C 85 % 1019,3 hPa 0,0 l/m 0,0 km/h (0 Bft) N 0 0 min 0,0 UV-I 0 W/m 10,1 C 12,6 C 0,0 km/h (0 Bft)
19.05.2022 03:44 12,7 C 10,0 C 84 % 1019,4 hPa 0,0 l/m 0,0 km/h (0 Bft) N 0 0 min 0,0 UV-I 0 W/m 10,1 C 12,7 C 0,0 km/h (0 Bft)
19.05.2022 03:45 12,8 C 10,0 C 84 % 1019,4 hPa 0,0 l/m 0,0 km/h (0 Bft) N 0 0 min 0,0 UV-I 0 W/m 10,2 C 12,8 C 0,0 km/h (0 Bft)
19.05.2022 03:46 12,8 C 10,0 C 84 % 1019,4 hPa 0,0 l/m 0,0 km/h (0 Bft) N 0 0 min 0,0 UV-I 0 W/m 10,2 C 12,8 C 0,0 km/h (0 Bft)
19.05.2022 03:47 12,8 C 10,0 C 83 % 1019,5 hPa 0,0 l/m 0,0 km/h (0 Bft) N 0 0 min 0,0 UV-I 0 W/m 10,0 C 12,8 C 0,0 km/h (0 Bft)
19.05.2022 03:48 12,8 C 10,0 C 83 % 1019,4 hPa 0,0 l/m 0,0 km/h (0 Bft) N 0 0 min 0,0 UV-I 0 W/m 10,0 C 12,8 C 0,0 km/h (0 Bft)
19.05.2022 03:49 12,8 C 10,0 C 83 % 1019,3 hPa 0,0 l/m 0,0 km/h (0 Bft) N 0 0 min 0,0 UV-I 0 W/m 10,0 C 12,8 C 0,0 km/h (0 Bft)
19.05.2022 03:50 12,8 C 10,0 C 83 % 1019,3 hPa 0,0 l/m 0,0 km/h (0 Bft) N 0 0 min 0,0 UV-I 0 W/m 10,0 C 12,8 C 0,0 km/h (0 Bft)
19.05.2022 03:51 12,8 C 10,0 C 83 % 1019,3 hPa 0,0 l/m 0,0 km/h (0 Bft) N 0 0 min 0,0 UV-I 0 W/m 10,0 C 12,8 C 0,0 km/h (0 Bft)
19.05.2022 03:52 12,7 C 10,0 C 83 % 1019,4 hPa 0,0 l/m 0,0 km/h (0 Bft) N 0 0 min 0,0 UV-I 0 W/m 9,9 C 12,7 C 0,0 km/h (0 Bft)
19.05.2022 03:53 12,7 C 10,0 C 83 % 1019,4 hPa 0,0 l/m 0,0 km/h (0 Bft) N 0 0 min 0,0 UV-I 0 W/m 9,9 C 12,7 C 0,0 km/h (0 Bft)
19.05.2022 03:54 12,8 C 10,0 C 83 % 1019,4 hPa 0,0 l/m 0,0 km/h (0 Bft) N 0 0 min 0,0 UV-I 0 W/m 10,0 C 12,8 C 0,0 km/h (0 Bft)
19.05.2022 03:55 12,7 C 10,0 C 83 % 1019,3 hPa 0,0 l/m 0,0 km/h (0 Bft) N 0 0 min 0,0 UV-I 0 W/m 9,9 C 12,7 C 0,0 km/h (0 Bft)
19.05.2022 03:56 12,7 C 10,0 C 82 % 1019,3 hPa 0,0 l/m 0,0 km/h (0 Bft) N 0 0 min 0,0 UV-I 0 W/m 9,7 C 12,7 C 0,0 km/h (0 Bft)
19.05.2022 03:57 12,6 C 10,0 C 82 % 1019,3 hPa 0,0 l/m 0,0 km/h (0 Bft) N 0 0 min 0,0 UV-I 0 W/m 9,6 C 12,6 C 0,0 km/h (0 Bft)
19.05.2022 03:58 12,5 C 10,0 C 82 % 1019,3 hPa 0,0 l/m 0,0 km/h (0 Bft) N 0 0 min 0,0 UV-I 0 W/m 9,5 C 12,5 C 0,0 km/h (0 Bft)
19.05.2022 03:59 12,3 C 10,0 C 82 % 1019,3 hPa 0,0 l/m 0,0 km/h (0 Bft) N 0 0 min 0,0 UV-I 0 W/m 9,3 C 12,3 C 0,0 km/h (0 Bft)
19.05.2022 04:00 12,1 C 10,0 C 82 % 1019,3 hPa 0,0 l/m 0,0 km/h (0 Bft) N 0 0 min 0,0 UV-I 0 W/m 9,1 C 12,1 C 0,0 km/h (0 Bft)
19.05.2022 04:01 12,0 C 10,0 C 83 % 1019,3 hPa 0,0 l/m 0,0 km/h (0 Bft) N 0 0 min 0,0 UV-I 0 W/m 9,2 C 12,0 C 0,0 km/h (0 Bft)
19.05.2022 04:02 11,9 C 10,0 C 83 % 1019,3 hPa 0,0 l/m 0,0 km/h (0 Bft) N 0 0 min 0,0 UV-I 0 W/m 9,1 C 11,9 C 0,0 km/h (0 Bft)
19.05.2022 04:03 11,9 C 10,0 C 84 % 1019,4 hPa 0,0 l/m 0,0 km/h (0 Bft) N 0 0 min 0,0 UV-I 0 W/m 9,3 C 11,9 C 0,0 km/h (0 Bft)
19.05.2022 04:04 11,8 C 10,0 C 84 % 1019,3 hPa 0,0 l/m 0,0 km/h (0 Bft) N 0 0 min 0,0 UV-I 0 W/m 9,2 C 11,8 C 0,0 km/h (0 Bft)
19.05.2022 04:05 11,8 C 10,0 C 84 % 1019,3 hPa 0,0 l/m 0,0 km/h (0 Bft) N 0 0 min 0,0 UV-I 0 W/m 9,2 C 11,8 C 0,0 km/h (0 Bft)
19.05.2022 04:06 11,8 C 9,4 C 85 % 1019,4 hPa 0,0 l/m 0,0 km/h (0 Bft) N 0 0 min 0,0 UV-I 0 W/m 9,4 C 11,8 C 0,0 km/h (0 Bft)
19.05.2022 04:07 11,8 C 9,4 C 84 % 1019,4 hPa 0,0 l/m 0,0 km/h (0 Bft) N 0 0 min 0,0 UV-I 0 W/m 9,2 C 11,8 C 0,0 km/h (0 Bft)
19.05.2022 04:08 11,7 C 9,4 C 84 % 1019,3 hPa 0,0 l/m 0,0 km/h (0 Bft) N 0 0 min 0,0 UV-I 0 W/m 9,1 C 11,7 C 0,0 km/h (0 Bft)
19.05.2022 04:09 11,7 C 9,4 C 84 % 1019,3 hPa 0,0 l/m 0,0 km/h (0 Bft) N 0 0 min 0,0 UV-I 0 W/m 9,1 C 11,7 C 0,0 km/h (0 Bft)
19.05.2022 04:10 11,8 C 9,4 C 85 % 1019,3 hPa 0,0 l/m 0,0 km/h (0 Bft) N 0 0 min 0,0 UV-I 0 W/m 9,4 C 11,8 C 0,0 km/h (0 Bft)
19.05.2022 04:11 11,8 C 9,4 C 85 % 1019,4 hPa 0,0 l/m 0,0 km/h (0 Bft) N 0 0 min 0,0 UV-I 0 W/m 9,4 C 11,8 C 0,0 km/h (0 Bft)
19.05.2022 04:12 11,8 C 9,4 C 84 % 1019,3 hPa 0,0 l/m 0,0 km/h (0 Bft) N 0 0 min 0,0 UV-I 0 W/m 9,2 C 11,8 C 0,0 km/h (0 Bft)
19.05.2022 04:13 11,8 C 9,4 C 84 % 1019,3 hPa 0,0 l/m 0,0 km/h (0 Bft) N 0 0 min 0,0 UV-I 0 W/m 9,2 C 11,8 C 0,0 km/h (0 Bft)
19.05.2022 04:14 11,8 C 9,4 C 84 % 1019,4 hPa 0,0 l/m 0,0 km/h (0 Bft) N 0 0 min 0,0 UV-I 0 W/m 9,2 C 11,8 C 0,0 km/h (0 Bft)
19.05.2022 04:15 11,8 C 9,4 C 84 % 1019,3 hPa 0,0 l/m 0,0 km/h (0 Bft) N 0 0 min 0,0 UV-I 0 W/m 9,2 C 11,8 C 0,0 km/h (0 Bft)
19.05.2022 04:16 11,7 C 9,4 C 84 % 1019,4 hPa 0,0 l/m 0,0 km/h (0 Bft) N 0 0 min 0,0 UV-I 0 W/m 9,1 C 11,7 C 0,0 km/h (0 Bft)
19.05.2022 04:17 11,7 C 9,4 C 84 % 1019,4 hPa 0,0 l/m 0,0 km/h (0 Bft) N 0 0 min 0,0 UV-I 0 W/m 9,1 C 11,7 C 0,0 km/h (0 Bft)
19.05.2022 04:18 11,6 C 9,4 C 84 % 1019,4 hPa 0,0 l/m 0,0 km/h (0 Bft) N 0 0 min 0,0 UV-I 0 W/m 9,0 C 11,6 C 0,0 km/h (0 Bft)
19.05.2022 04:19 11,6 C 9,4 C 84 % 1019,3 hPa 0,0 l/m 0,0 km/h (0 Bft) N 0 0 min 0,0 UV-I 0 W/m 9,0 C 11,6 C 0,0 km/h (0 Bft)
19.05.2022 04:20 11,6 C 9,4 C 84 % 1019,3 hPa 0,0 l/m 0,0 km/h (0 Bft) N 0 0 min 0,0 UV-I 0 W/m 9,0 C 11,6 C 0,0 km/h (0 Bft)
19.05.2022 04:21 11,6 C 9,4 C 85 % 1019,3 hPa 0,0 l/m 0,0 km/h (0 Bft) N 0 0 min 0,0 UV-I 0 W/m 9,2 C 11,6 C 0,0 km/h (0 Bft)
19.05.2022 04:22 11,6 C 9,4 C 85 % 1019,3 hPa 0,0 l/m 0,0 km/h (0 Bft) N 0 0 min 0,0 UV-I 0 W/m 9,2 C 11,6 C 0,0 km/h (0 Bft)
19.05.2022 04:23 11,6 C 9,4 C 85 % 1019,3 hPa 0,0 l/m 0,0 km/h (0 Bft) N 0 0 min 0,0 UV-I 0 W/m 9,2 C 11,6 C 0,0 km/h (0 Bft)
19.05.2022 04:24 11,7 C 9,4 C 85 % 1019,3 hPa 0,0 l/m 0,0 km/h (0 Bft) N 0 0 min 0,0 UV-I 0 W/m 9,3 C 11,7 C 0,0 km/h (0 Bft)
19.05.2022 04:25 11,8 C 9,4 C 85 % 1019,3 hPa 0,0 l/m 0,0 km/h (0 Bft) N 0 0 min 0,0 UV-I 0 W/m 9,4 C 11,8 C 0,0 km/h (0 Bft)
19.05.2022 04:26 11,8 C 9,4 C 85 % 1019,2 hPa 0,0 l/m 0,0 km/h (0 Bft) N 0 0 min 0,0 UV-I 0 W/m 9,4 C 11,8 C 0,0 km/h (0 Bft)
19.05.2022 04:27 11,9 C 9,4 C 85 % 1019,3 hPa 0,0 l/m 0,0 km/h (0 Bft) N 0 0 min 0,0 UV-I 0 W/m 9,5 C 11,9 C 0,0 km/h (0 Bft)
19.05.2022 04:28 11,9 C 9,4 C 85 % 1019,2 hPa 0,0 l/m 0,0 km/h (0 Bft) N 0 0 min 0,0 UV-I 0 W/m 9,5 C 11,9 C 0,0 km/h (0 Bft)
19.05.2022 04:29 12,0 C 9,4 C 85 % 1019,2 hPa 0,0 l/m 0,0 km/h (0 Bft) N 0 0 min 0,0 UV-I 0 W/m 9,6 C 12,0 C 0,0 km/h (0 Bft)
19.05.2022 04:30 12,2 C 9,4 C 85 % 1019,3 hPa 0,0 l/m 0,0 km/h (0 Bft) N 0 0 min 0,0 UV-I 0 W/m 9,8 C 12,2 C 0,0 km/h (0 Bft)
19.05.2022 04:31 12,3 C 9,4 C 85 % 1019,2 hPa 0,0 l/m 0,0 km/h (0 Bft) N 0 0 min 0,0 UV-I 0 W/m 9,9 C 12,3 C 0,0 km/h (0 Bft)
19.05.2022 04:32 12,3 C 9,4 C 84 % 1019,2 hPa 0,0 l/m 0,0 km/h (0 Bft) N 0 0 min 0,0 UV-I 0 W/m 9,7 C 12,3 C 0,0 km/h (0 Bft)
19.05.2022 04:33 12,3 C 9,4 C 84 % 1019,1 hPa 0,0 l/m 0,0 km/h (0 Bft) N 0 0 min 0,0 UV-I 0 W/m 9,7 C 12,3 C 0,0 km/h (0 Bft)
19.05.2022 04:34 12,4 C 10,0 C 84 % 1019,2 hPa 0,0 l/m 0,0 km/h (0 Bft) N 0 0 min 0,0 UV-I 0 W/m 9,8 C 12,4 C 0,0 km/h (0 Bft)
19.05.2022 04:35 12,4 C 9,4 C 84 % 1019,1 hPa 0,0 l/m 0,0 km/h (0 Bft) N 0 0 min 0,0 UV-I 0 W/m 9,8 C 12,4 C 0,0 km/h (0 Bft)
19.05.2022 04:36 12,4 C 9,4 C 84 % 1019,2 hPa 0,0 l/m 0,0 km/h (0 Bft) N 0 0 min 0,0 UV-I 0 W/m 9,8 C 12,4 C 0,0 km/h (0 Bft)
19.05.2022 04:37 12,5 C 9,4 C 84 % 1019,2 hPa 0,0 l/m 0,0 km/h (0 Bft) N 0 0 min 0,0 UV-I 0 W/m 9,9 C 12,5 C 0,0 km/h (0 Bft)
19.05.2022 04:38 12,4 C 9,4 C 84 % 1019,2 hPa 0,0 l/m 0,0 km/h (0 Bft) N 0 0 min 0,0 UV-I 0 W/m 9,8 C 12,4 C 0,0 km/h (0 Bft)
19.05.2022 04:39 12,5 C 10,0 C 84 % 1019,1 hPa 0,0 l/m 0,0 km/h (0 Bft) N 0 0 min 0,0 UV-I 0 W/m 9,9 C 12,5 C 0,0 km/h (0 Bft)
19.05.2022 04:40 12,8 C 10,0 C 85 % 1019,2 hPa 0,0 l/m 0,0 km/h (0 Bft) N 0 0 min 0,0 UV-I 0 W/m 10,3 C 12,8 C 0,0 km/h (0 Bft)
19.05.2022 04:41 13,3 C 10,0 C 84 % 1019,1 hPa 0,0 l/m 0,0 km/h (0 Bft) N 0 0 min 0,0 UV-I 0 W/m 10,7 C 13,3 C 0,0 km/h (0 Bft)
19.05.2022 04:42 13,5 C 10,0 C 82 % 1019,1 hPa 0,0 l/m 0,0 km/h (0 Bft) N 0 0 min 0,0 UV-I 0 W/m 10,5 C 13,5 C 0,0 km/h (0 Bft)
19.05.2022 04:43 13,3 C 10,0 C 80 % 1019,1 hPa 0,0 l/m 0,0 km/h (0 Bft) N 0 0 min 0,0 UV-I 0 W/m 9,9 C 13,3 C 0,0 km/h (0 Bft)
19.05.2022 04:44 13,1 C 10,0 C 80 % 1019,1 hPa 0,0 l/m 0,0 km/h (0 Bft) N 0 0 min 0,0 UV-I 0 W/m 9,7 C 13,1 C 0,0 km/h (0 Bft)
19.05.2022 04:45 12,9 C 10,0 C 80 % 1019,1 hPa 0,0 l/m 0,0 km/h (0 Bft) N 0 0 min 0,0 UV-I 0 W/m 9,5 C 12,9 C 0,0 km/h (0 Bft)
19.05.2022 04:46 12,6 C 10,0 C 80 % 1019,1 hPa 0,0 l/m 0,0 km/h (0 Bft) N 0 0 min 0,0 UV-I 0 W/m 9,2 C 12,6 C 0,0 km/h (0 Bft)
19.05.2022 04:47 12,4 C 10,0 C 81 % 1019,0 hPa 0,0 l/m 0,0 km/h (0 Bft) N 0 0 min 0,0 UV-I 0 W/m 9,2 C 12,4 C 0,0 km/h (0 Bft)
19.05.2022 04:48 12,2 C 9,4 C 81 % 1019,0 hPa 0,0 l/m 0,0 km/h (0 Bft) N 0 0 min 0,0 UV-I 0 W/m 9,0 C 12,2 C 0,0 km/h (0 Bft)
19.05.2022 04:49 12,0 C 9,4 C 81 % 1018,9 hPa 0,0 l/m 0,0 km/h (0 Bft) N 0 0 min 0,0 UV-I 0 W/m 8,8 C 12,0 C 0,0 km/h (0 Bft)
19.05.2022 04:50 11,9 C 9,4 C 82 % 1018,9 hPa 0,0 l/m 0,0 km/h (0 Bft) N 0 0 min 0,0 UV-I 0 W/m 8,9 C 11,9 C 0,0 km/h (0 Bft)
19.05.2022 04:51 11,8 C 9,4 C 82 % 1018,9 hPa 0,0 l/m 0,0 km/h (0 Bft) N 0 0 min 0,0 UV-I 0 W/m 8,8 C 11,8 C 0,0 km/h (0 Bft)
19.05.2022 04:52 11,7 C 9,4 C 83 % 1018,9 hPa 0,0 l/m 0,0 km/h (0 Bft) N 0 0 min 0,0 UV-I 0 W/m 8,9 C 11,7 C 0,0 km/h (0 Bft)
19.05.2022 04:53 11,6 C 9,4 C 83 % 1018,9 hPa 0,0 l/m 0,0 km/h (0 Bft) N 0 0 min 0,0 UV-I 0 W/m 8,8 C 11,6 C 0,0 km/h (0 Bft)
19.05.2022 04:54 11,6 C 9,4 C 84 % 1018,9 hPa 0,0 l/m 0,0 km/h (0 Bft) N 0 0 min 0,0 UV-I 0 W/m 9,0 C 11,6 C 0,0 km/h (0 Bft)
19.05.2022 04:55 11,6 C 9,4 C 84 % 1018,9 hPa 0,0 l/m 0,0 km/h (0 Bft) N 0 0 min 0,0 UV-I 0 W/m 9,0 C 11,6 C 0,0 km/h (0 Bft)
19.05.2022 04:56 11,7 C 9,4 C 84 % 1018,9 hPa 0,0 l/m 0,0 km/h (0 Bft) N 0 0 min 0,0 UV-I 0 W/m 9,1 C 11,7 C 0,0 km/h (0 Bft)
19.05.2022 04:57 11,7 C 9,4 C 84 % 1018,9 hPa 0,0 l/m 0,0 km/h (0 Bft) N 0 0 min 0,0 UV-I 0 W/m 9,1 C 11,7 C 0,0 km/h (0 Bft)
19.05.2022 04:58 11,8 C 8,9 C 84 % 1018,9 hPa 0,0 l/m 0,0 km/h (0 Bft) N 0 0 min 0,0 UV-I 0 W/m 9,2 C 11,8 C 0,0 km/h (0 Bft)
19.05.2022 04:59 11,9 C 8,9 C 84 % 1019,0 hPa 0,0 l/m 0,0 km/h (0 Bft) N 0 0 min 0,0 UV-I 0 W/m 9,3 C 11,9 C 0,0 km/h (0 Bft)
19.05.2022 05:00 11,9 C 8,9 C 84 % 1019,0 hPa 0,0 l/m 0,0 km/h (0 Bft) N 0 0 min 0,0 UV-I 0 W/m 9,3 C 11,9 C 0,0 km/h (0 Bft)
19.05.2022 05:01 11,9 C 8,9 C 84 % 1018,9 hPa 0,0 l/m 0,0 km/h (0 Bft) N 0 0 min 0,0 UV-I 0 W/m 9,3 C 11,9 C 0,0 km/h (0 Bft)
19.05.2022 05:02 12,0 C 8,9 C 84 % 1018,9 hPa 0,0 l/m 0,0 km/h (0 Bft) N 0 0 min 0,0 UV-I 0 W/m 9,4 C 12,0 C 0,0 km/h (0 Bft)
19.05.2022 05:03 12,0 C 8,9 C 83 % 1018,9 hPa 0,0 l/m 0,0 km/h (0 Bft) N 0 0 min 0,0 UV-I 0 W/m 9,2 C 12,0 C 0,0 km/h (0 Bft)
19.05.2022 05:04 11,9 C 8,9 C 83 % 1019,0 hPa 0,0 l/m 0,0 km/h (0 Bft) N 0 0 min 0,0 UV-I 0 W/m 9,1 C 11,9 C 0,0 km/h (0 Bft)
19.05.2022 05:05 11,8 C 8,9 C 83 % 1019,0 hPa 0,0 l/m 0,0 km/h (0 Bft) N 0 0 min 0,0 UV-I 0 W/m 9,0 C 11,8 C 0,0 km/h (0 Bft)
19.05.2022 05:06 11,7 C 8,9 C 83 % 1018,9 hPa 0,0 l/m 0,0 km/h (0 Bft) N 0 0 min 0,0 UV-I 0 W/m 8,9 C 11,7 C 0,0 km/h (0 Bft)
19.05.2022 05:07 11,6 C 8,9 C 83 % 1018,9 hPa 0,0 l/m 0,0 km/h (0 Bft) N 0 0 min 0,0 UV-I 0 W/m 8,8 C 11,6 C 0,0 km/h (0 Bft)
19.05.2022 05:08 11,5 C 8,9 C 83 % 1018,9 hPa 0,0 l/m 0,0 km/h (0 Bft) N 0 0 min 0,0 UV-I 0 W/m 8,7 C 11,5 C 0,0 km/h (0 Bft)
19.05.2022 05:09 11,4 C 8,9 C 83 % 1018,9 hPa 0,0 l/m 0,0 km/h (0 Bft) N 0 0 min 0,0 UV-I 0 W/m 8,6 C 11,4 C 0,0 km/h (0 Bft)
19.05.2022 05:10 11,3 C 8,9 C 84 % 1018,9 hPa 0,0 l/m 0,0 km/h (0 Bft) N 0 0 min 0,0 UV-I 0 W/m 8,7 C 11,3 C 0,0 km/h (0 Bft)
19.05.2022 05:11 11,4 C 8,9 C 85 % 1019,0 hPa 0,0 l/m 0,0 km/h (0 Bft) N 0 0 min 0,0 UV-I 0 W/m 9,0 C 11,4 C 0,0 km/h (0 Bft)
19.05.2022 05:12 11,5 C 8,9 C 85 % 1019,0 hPa 0,0 l/m 0,0 km/h (0 Bft) N 0 0 min 0,0 UV-I 0 W/m 9,1 C 11,5 C 0,0 km/h (0 Bft)
19.05.2022 05:13 11,6 C 8,9 C 85 % 1019,0 hPa 0,0 l/m 0,0 km/h (0 Bft) N 0 0 min 0,0 UV-I 0 W/m 9,2 C 11,6 C 0,0 km/h (0 Bft)
19.05.2022 05:14 11,6 C 8,9 C 85 % 1018,9 hPa 0,0 l/m 0,0 km/h (0 Bft) N 0 0 min 0,0 UV-I 0 W/m 9,2 C 11,6 C 0,0 km/h (0 Bft)
19.05.2022 05:15 11,6 C 8,9 C 84 % 1018,9 hPa 0,0 l/m 0,0 km/h (0 Bft) N 0 0 min 0,0 UV-I 0 W/m 9,0 C 11,6 C 0,0 km/h (0 Bft)
19.05.2022 05:16 11,5 C 8,9 C 84 % 1018,9 hPa 0,0 l/m 0,0 km/h (0 Bft) N 0 0 min 0,0 UV-I 0 W/m 8,9 C 11,5 C 0,0 km/h (0 Bft)
19.05.2022 05:17 11,4 C 8,9 C 84 % 1018,9 hPa 0,0 l/m 0,0 km/h (0 Bft) N 0 0 min 0,0 UV-I 0 W/m 8,8 C 11,4 C 0,0 km/h (0 Bft)
19.05.2022 05:18 11,5 C 8,9 C 85 % 1018,9 hPa 0,0 l/m 0,0 km/h (0 Bft) N 0 0 min 0,0 UV-I 0 W/m 9,1 C 11,5 C 0,0 km/h (0 Bft)
19.05.2022 05:19 11,5 C 8,9 C 85 % 1018,8 hPa 0,0 l/m 0,0 km/h (0 Bft) N 0 0 min 0,0 UV-I 0 W/m 9,1 C 11,5 C 0,0 km/h (0 Bft)
19.05.2022 05:20 11,5 C 8,9 C 85 % 1018,8 hPa 0,0 l/m 0,0 km/h (0 Bft) N 0 0 min 0,0 UV-I 0 W/m 9,1 C 11,5 C 0,0 km/h (0 Bft)
19.05.2022 05:21 11,5 C 8,9 C 85 % 1018,9 hPa 0,0 l/m 0,0 km/h (0 Bft) N 0 0 min 0,0 UV-I 0 W/m 9,1 C 11,5 C 0,0 km/h (0 Bft)
19.05.2022 05:22 11,5 C 8,9 C 85 % 1018,9 hPa 0,0 l/m 0,0 km/h (0 Bft) N 0 0 min 0,0 UV-I 0 W/m 9,1 C 11,5 C 0,0 km/h (0 Bft)
19.05.2022 05:23 11,4 C 8,9 C 84 % 1018,9 hPa 0,0 l/m 0,0 km/h (0 Bft) N 0 0 min 0,0 UV-I 0 W/m 8,8 C 11,4 C 0,0 km/h (0 Bft)
19.05.2022 05:24 11,3 C 8,9 C 84 % 1018,9 hPa 0,0 l/m 0,0 km/h (0 Bft) N 0 0 min 0,0 UV-I 0 W/m 8,7 C 11,3 C 0,0 km/h (0 Bft)
19.05.2022 05:25 11,2 C 8,9 C 84 % 1018,9 hPa 0,0 l/m 0,0 km/h (0 Bft) N 0 0 min 0,0 UV-I 0 W/m 8,6 C 11,2 C 0,0 km/h (0 Bft)
19.05.2022 05:26 11,2 C 8,9 C 85 % 1018,9 hPa 0,0 l/m 0,0 km/h (0 Bft) N 0 0 min 0,0 UV-I 0 W/m 8,8 C 11,2 C 0,0 km/h (0 Bft)
19.05.2022 05:27 11,2 C 8,3 C 85 % 1019,1 hPa 0,0 l/m 0,0 km/h (0 Bft) N 0 0 min 0,0 UV-I 0 W/m 8,8 C 11,2 C 0,0 km/h (0 Bft)
19.05.2022 05:28 11,2 C 8,3 C 85 % 1019,0 hPa 0,0 l/m 0,0 km/h (0 Bft) N 0 0 min 0,0 UV-I 0 W/m 8,8 C 11,2 C 0,0 km/h (0 Bft)
19.05.2022 05:29 11,1 C 8,3 C 85 % 1019,0 hPa 0,0 l/m 0,0 km/h (0 Bft) N 0 0 min 0,0 UV-I 0 W/m 8,7 C 11,1 C 0,0 km/h (0 Bft)
19.05.2022 05:30 11,1 C 8,3 C 85 % 1019,0 hPa 0,0 l/m 0,0 km/h (0 Bft) N 0 0 min 0,0 UV-I 0 W/m 8,7 C 11,1 C 0,0 km/h (0 Bft)
19.05.2022 05:31 11,1 C 8,9 C 85 % 1019,0 hPa 0,0 l/m 0,0 km/h (0 Bft) N 0 0 min 0,0 UV-I 0 W/m 8,7 C 11,1 C 0,0 km/h (0 Bft)
19.05.2022 05:32 11,1 C 8,9 C 85 % 1019,0 hPa 0,0 l/m 0,0 km/h (0 Bft) N 0 0 min 0,0 UV-I 0 W/m 8,7 C 11,1 C 0,0 km/h (0 Bft)
19.05.2022 05:33 11,1 C 8,9 C 85 % 1019,1 hPa 0,0 l/m 0,0 km/h (0 Bft) N 0 0 min 0,0 UV-I 0 W/m 8,7 C 11,1 C 0,0 km/h (0 Bft)
19.05.2022 05:34 11,1 C 8,9 C 85 % 1019,2 hPa 0,0 l/m 0,0 km/h (0 Bft) N 0 0 min 0,0 UV-I 0 W/m 8,7 C 11,1 C 0,0 km/h (0 Bft)
19.05.2022 05:35 11,0 C 8,9 C 85 % 1019,1 hPa 0,0 l/m 0,0 km/h (0 Bft) N 0 0 min 0,0 UV-I 0 W/m 8,6 C 11,0 C 0,0 km/h (0 Bft)
19.05.2022 05:36 11,0 C 8,9 C 85 % 1019,1 hPa 0,0 l/m 0,0 km/h (0 Bft) N 0 0 min 0,0 UV-I 0 W/m 8,6 C 11,0 C 0,0 km/h (0 Bft)
19.05.2022 05:37 11,1 C 8,9 C 86 % 1019,2 hPa 0,0 l/m 0,0 km/h (0 Bft) N 0 0 min 0,0 UV-I 0 W/m 8,8 C 11,1 C 0,0 km/h (0 Bft)
19.05.2022 05:38 11,2 C 8,9 C 86 % 1019,1 hPa 0,0 l/m 0,0 km/h (0 Bft) N 0 0 min 0,0 UV-I 0 W/m 8,9 C 11,2 C 0,0 km/h (0 Bft)
19.05.2022 05:39 11,2 C 8,9 C 86 % 1019,2 hPa 0,0 l/m 0,0 km/h (0 Bft) N 0 0 min 0,0 UV-I 0 W/m 8,9 C 11,2 C 0,0 km/h (0 Bft)
19.05.2022 05:40 11,2 C 8,9 C 86 % 1019,2 hPa 0,0 l/m 0,0 km/h (0 Bft) N 0 0 min 0,0 UV-I 0 W/m 8,9 C 11,2 C 0,0 km/h (0 Bft)
19.05.2022 05:41 11,4 C 9,4 C 86 % 1019,2 hPa 0,0 l/m 0,0 km/h (0 Bft) N 0 0 min 0,0 UV-I 0 W/m 9,1 C 11,4 C 0,0 km/h (0 Bft)
19.05.2022 05:42 11,5 C 9,4 C 87 % 1019,2 hPa 0,0 l/m 0,0 km/h (0 Bft) N 0 0 min 0,0 UV-I 0 W/m 9,4 C 11,5 C 0,0 km/h (0 Bft)
19.05.2022 05:43 11,6 C 9,4 C 86 % 1019,2 hPa 0,0 l/m 0,0 km/h (0 Bft) N 0 0 min 0,0 UV-I 0 W/m 9,3 C 11,6 C 0,0 km/h (0 Bft)
19.05.2022 05:44 11,9 C 9,4 C 86 % 1019,2 hPa 0,0 l/m 0,0 km/h (0 Bft) N 0 0 min 0,0 UV-I 0 W/m 9,6 C 11,9 C 0,0 km/h (0 Bft)
19.05.2022 05:45 12,0 C 9,4 C 87 % 1019,2 hPa 0,0 l/m 0,0 km/h (0 Bft) N 0 0 min 0,0 UV-I 0 W/m 9,9 C 12,0 C 0,0 km/h (0 Bft)
19.05.2022 05:46 11,9 C 9,4 C 84 % 1019,2 hPa 0,0 l/m 0,0 km/h (0 Bft) N 0 0 min 0,0 UV-I 0 W/m 9,3 C 11,9 C 0,0 km/h (0 Bft)
19.05.2022 05:47 11,9 C 9,4 C 84 % 1019,3 hPa 0,0 l/m 0,0 km/h (0 Bft) N 0 0 min 0,0 UV-I 0 W/m 9,3 C 11,9 C 0,0 km/h (0 Bft)
19.05.2022 05:48 11,9 C 9,4 C 84 % 1019,2 hPa 0,0 l/m 0,0 km/h (0 Bft) N 0 0 min 0,0 UV-I 0 W/m 9,3 C 11,9 C 0,0 km/h (0 Bft)
19.05.2022 05:49 11,9 C 9,4 C 84 % 1019,3 hPa 0,0 l/m 0,0 km/h (0 Bft) N 0 0 min 0,0 UV-I 0 W/m 9,3 C 11,9 C 0,0 km/h (0 Bft)
19.05.2022 05:50 11,8 C 9,4 C 84 % 1019,3 hPa 0,0 l/m 0,0 km/h (0 Bft) N 0 0 min 0,0 UV-I 0 W/m 9,2 C 11,8 C 0,0 km/h (0 Bft)
19.05.2022 05:51 11,9 C 9,4 C 84 % 1019,3 hPa 0,0 l/m 0,0 km/h (0 Bft) N 0 0 min 0,0 UV-I 0 W/m 9,3 C 11,9 C 0,0 km/h (0 Bft)
19.05.2022 05:52 11,8 C 9,4 C 84 % 1019,3 hPa 0,0 l/m 0,0 km/h (0 Bft) N 0 0 min 0,0 UV-I 0 W/m 9,2 C 11,8 C 0,0 km/h (0 Bft)
19.05.2022 05:53 11,8 C 9,4 C 84 % 1019,4 hPa 0,0 l/m 0,0 km/h (0 Bft) N 0 0 min 0,0 UV-I 0 W/m 9,2 C 11,8 C 0,0 km/h (0 Bft)
19.05.2022 05:54 11,7 C 9,4 C 84 % 1019,3 hPa 0,0 l/m 0,0 km/h (0 Bft) N 0 0 min 0,0 UV-I 5 W/m 9,1 C 11,7 C 0,0 km/h (0 Bft)
19.05.2022 05:55 11,7 C 9,4 C 84 % 1019,3 hPa 0,0 l/m 0,0 km/h (0 Bft) N 0 0 min 0,0 UV-I 5 W/m 9,1 C 11,7 C 0,0 km/h (0 Bft)
19.05.2022 05:56 11,8 C 9,4 C 84 % 1019,2 hPa 0,0 l/m 0,0 km/h (0 Bft) N 0 0 min 0,0 UV-I 5 W/m 9,2 C 11,8 C 0,0 km/h (0 Bft)
19.05.2022 05:57 11,8 C 9,4 C 84 % 1019,3 hPa 0,0 l/m 0,0 km/h (0 Bft) N 0 0 min 0,0 UV-I 7 W/m 9,2 C 11,8 C 0,0 km/h (0 Bft)
19.05.2022 05:58 11,8 C 9,4 C 84 % 1019,4 hPa 0,0 l/m 0,0 km/h (0 Bft) N 0 0 min 0,0 UV-I 7 W/m 9,2 C 11,8 C 0,0 km/h (0 Bft)
19.05.2022 05:59 11,8 C 9,4 C 85 % 1019,3 hPa 0,0 l/m 0,0 km/h (0 Bft) N 0 0 min 0,0 UV-I 7 W/m 9,4 C 11,8 C 0,0 km/h (0 Bft)
19.05.2022 06:00 11,9 C 10,0 C 85 % 1019,4 hPa 0,0 l/m 0,0 km/h (0 Bft) N 0 0 min 0,0 UV-I 9 W/m 9,5 C 11,9 C 0,0 km/h (0 Bft)
19.05.2022 06:01 12,2 C 10,0 C 86 % 1019,3 hPa 0,0 l/m 0,0 km/h (0 Bft) N 0 0 min 0,0 UV-I 9 W/m 9,9 C 12,2 C 0,0 km/h (0 Bft)
19.05.2022 06:02 12,6 C 10,0 C 86 % 1019,4 hPa 0,0 l/m 0,0 km/h (0 Bft) N 0 0 min 0,0 UV-I 11 W/m 10,3 C 12,6 C 0,0 km/h (0 Bft)
19.05.2022 06:03 12,5 C 10,0 C 85 % 1019,3 hPa 0,0 l/m 0,0 km/h (0 Bft) N 0 0 min 0,0 UV-I 11 W/m 10,0 C 12,5 C 0,0 km/h (0 Bft)
19.05.2022 06:04 12,7 C 10,0 C 84 % 1019,4 hPa 0,0 l/m 0,0 km/h (0 Bft) N 0 0 min 0,0 UV-I 11 W/m 10,1 C 12,7 C 0,0 km/h (0 Bft)
19.05.2022 06:05 12,8 C 10,0 C 84 % 1019,4 hPa 0,0 l/m 0,0 km/h (0 Bft) N 0 0 min 0,0 UV-I 12 W/m 10,2 C 12,8 C 0,0 km/h (0 Bft)
19.05.2022 06:06 12,7 C 10,0 C 82 % 1019,3 hPa 0,0 l/m 0,0 km/h (0 Bft) N 0 0 min 0,0 UV-I 12 W/m 9,7 C 12,7 C 0,0 km/h (0 Bft)
19.05.2022 06:07 12,7 C 10,0 C 83 % 1019,4 hPa 0,0 l/m 0,0 km/h (0 Bft) N 0 0 min 0,0 UV-I 14 W/m 9,9 C 12,7 C 0,0 km/h (0 Bft)
19.05.2022 06:08 12,6 C 10,0 C 82 % 1019,5 hPa 0,0 l/m 0,0 km/h (0 Bft) N 0 0 min 0,0 UV-I 14 W/m 9,6 C 12,6 C 0,0 km/h (0 Bft)
19.05.2022 06:09 12,4 C 10,0 C 83 % 1019,3 hPa 0,0 l/m 0,0 km/h (0 Bft) N 0 0 min 0,0 UV-I 14 W/m 9,6 C 12,4 C 0,0 km/h (0 Bft)
19.05.2022 06:10 12,4 C 10,0 C 83 % 1019,4 hPa 0,0 l/m 0,0 km/h (0 Bft) N 0 0 min 0,0 UV-I 16 W/m 9,6 C 12,4 C 0,0 km/h (0 Bft)
19.05.2022 06:11 12,3 C 10,0 C 82 % 1019,4 hPa 0,0 l/m 0,0 km/h (0 Bft) N 0 0 min 0,0 UV-I 18 W/m 9,3 C 12,3 C 0,0 km/h (0 Bft)
19.05.2022 06:12 12,2 C 10,0 C 83 % 1019,3 hPa 0,0 l/m 0,0 km/h (0 Bft) N 0 0 min 0,0 UV-I 18 W/m 9,4 C 12,2 C 0,0 km/h (0 Bft)
19.05.2022 06:13 12,2 C 10,0 C 83 % 1019,4 hPa 0,0 l/m 0,0 km/h (0 Bft) N 0 0 min 0,0 UV-I 19 W/m 9,4 C 12,2 C 0,0 km/h (0 Bft)
19.05.2022 06:14 12,2 C 10,6 C 83 % 1019,3 hPa 0,0 l/m 0,0 km/h (0 Bft) N 0 0 min 0,0 UV-I 19 W/m 9,4 C 12,2 C 0,0 km/h (0 Bft)
19.05.2022 06:15 12,2 C 10,6 C 83 % 1019,3 hPa 0,0 l/m 0,0 km/h (0 Bft) N 0 0 min 0,0 UV-I 21 W/m 9,4 C 12,2 C 0,0 km/h (0 Bft)
19.05.2022 06:16 12,2 C 10,6 C 83 % 1019,2 hPa 0,0 l/m 0,0 km/h (0 Bft) N 0 0 min 0,0 UV-I 21 W/m 9,4 C 12,2 C 0,0 km/h (0 Bft)
19.05.2022 06:17 12,1 C 10,6 C 83 % 1019,3 hPa 0,0 l/m 0,0 km/h (0 Bft) N 0 0 min 0,0 UV-I 23 W/m 9,3 C 12,1 C 0,0 km/h (0 Bft)
19.05.2022 06:18 12,1 C 10,6 C 83 % 1019,2 hPa 0,0 l/m 0,0 km/h (0 Bft) N 0 0 min 0,0 UV-I 25 W/m 9,3 C 12,1 C 0,0 km/h (0 Bft)
19.05.2022 06:19 12,1 C 10,6 C 83 % 1019,3 hPa 0,0 l/m 0,0 km/h (0 Bft) N 0 0 min 0,0 UV-I 25 W/m 9,3 C 12,1 C 0,0 km/h (0 Bft)
19.05.2022 06:20 12,1 C 10,6 C 83 % 1019,2 hPa 0,0 l/m 0,0 km/h (0 Bft) N 0 0 min 0,0 UV-I 26 W/m 9,3 C 12,1 C 0,0 km/h (0 Bft)
19.05.2022 06:21 12,0 C 10,6 C 83 % 1019,2 hPa 0,0 l/m 0,0 km/h (0 Bft) N 0 0 min 0,0 UV-I 26 W/m 9,2 C 12,0 C 0,0 km/h (0 Bft)
19.05.2022 06:22 12,1 C 10,6 C 84 % 1019,2 hPa 0,0 l/m 0,0 km/h (0 Bft) N 0 0 min 0,0 UV-I 28 W/m 9,5 C 12,1 C 0,0 km/h (0 Bft)
19.05.2022 06:23 12,2 C 10,6 C 84 % 1019,3 hPa 0,0 l/m 0,0 km/h (0 Bft) N 0 0 min 0,0 UV-I 29 W/m 9,6 C 12,2 C 0,0 km/h (0 Bft)
19.05.2022 06:24 12,2 C 10,6 C 84 % 1019,2 hPa 0,0 l/m 0,0 km/h (0 Bft) N 0 0 min 0,0 UV-I 30 W/m 9,6 C 12,2 C 0,0 km/h (0 Bft)
19.05.2022 06:25 12,2 C 10,6 C 84 % 1019,2 hPa 0,0 l/m 0,0 km/h (0 Bft) N 0 0 min 0,0 UV-I 30 W/m 9,6 C 12,2 C 0,0 km/h (0 Bft)
19.05.2022 06:26 12,1 C 10,6 C 84 % 1019,2 hPa 0,0 l/m 0,0 km/h (0 Bft) N 0 0 min 0,0 UV-I 32 W/m 9,5 C 12,1 C 0,0 km/h (0 Bft)
19.05.2022 06:27 12,2 C 10,6 C 84 % 1019,1 hPa 0,0 l/m 0,0 km/h (0 Bft) N 0 0 min 0,0 UV-I 32 W/m 9,6 C 12,2 C 0,0 km/h (0 Bft)
19.05.2022 06:28 12,2 C 10,6 C 84 % 1019,2 hPa 0,0 l/m 0,0 km/h (0 Bft) N 0 0 min 0,0 UV-I 33 W/m 9,6 C 12,2 C 0,0 km/h (0 Bft)
19.05.2022 06:29 12,3 C 10,6 C 84 % 1019,1 hPa 0,0 l/m 0,0 km/h (0 Bft) N 0 0 min 0,0 UV-I 33 W/m 9,7 C 12,3 C 0,0 km/h (0 Bft)
19.05.2022 06:30 12,3 C 10,6 C 84 % 1019,1 hPa 0,0 l/m 0,0 km/h (0 Bft) N 0 0 min 0,0 UV-I 35 W/m 9,7 C 12,3 C 0,0 km/h (0 Bft)
19.05.2022 06:31 12,4 C 10,6 C 83 % 1019,1 hPa 0,0 l/m 0,0 km/h (0 Bft) N 0 0 min 0,0 UV-I 35 W/m 9,6 C 12,4 C 0,0 km/h (0 Bft)
19.05.2022 06:32 12,5 C 11,1 C 84 % 1019,2 hPa 0,0 l/m 0,0 km/h (0 Bft) N 0 0 min 0,0 UV-I 37 W/m 9,9 C 12,5 C 0,0 km/h (0 Bft)
19.05.2022 06:33 12,7 C 11,1 C 84 % 1019,2 hPa 0,0 l/m 0,0 km/h (0 Bft) N 0 0 min 0,0 UV-I 39 W/m 10,1 C 12,7 C 0,0 km/h (0 Bft)
19.05.2022 06:34 12,7 C 11,1 C 83 % 1019,3 hPa 0,0 l/m 0,0 km/h (0 Bft) N 0 0 min 0,0 UV-I 39 W/m 9,9 C 12,7 C 0,0 km/h (0 Bft)
19.05.2022 06:35 12,7 C 11,1 C 83 % 1019,2 hPa 0,0 l/m 0,0 km/h (0 Bft) N 0 0 min 0,0 UV-I 40 W/m 9,9 C 12,7 C 0,0 km/h (0 Bft)
19.05.2022 06:36 12,9 C 11,1 C 83 % 1019,3 hPa 0,0 l/m 0,0 km/h (0 Bft) N 0 0 min 0,0 UV-I 40 W/m 10,1 C 12,9 C 0,0 km/h (0 Bft)
19.05.2022 06:37 12,9 C 11,1 C 83 % 1019,3 hPa 0,0 l/m 0,0 km/h (0 Bft) N 0 0 min 0,0 UV-I 40 W/m 10,1 C 12,9 C 0,0 km/h (0 Bft)
19.05.2022 06:38 12,8 C 11,1 C 82 % 1019,3 hPa 0,0 l/m 0,0 km/h (0 Bft) N 0 0 min 0,0 UV-I 40 W/m 9,8 C 12,8 C 0,0 km/h (0 Bft)
19.05.2022 06:39 12,8 C 11,1 C 82 % 1019,3 hPa 0,0 l/m 0,0 km/h (0 Bft) N 0 0 min 0,0 UV-I 40 W/m 9,8 C 12,8 C 0,0 km/h (0 Bft)
19.05.2022 06:40 12,7 C 11,1 C 82 % 1019,3 hPa 0,0 l/m 0,0 km/h (0 Bft) N 0 0 min 0,0 UV-I 40 W/m 9,7 C 12,7 C 0,0 km/h (0 Bft)
19.05.2022 06:41 12,6 C 11,1 C 82 % 1019,3 hPa 0,0 l/m 0,0 km/h (0 Bft) N 0 0 min 0,0 UV-I 42 W/m 9,6 C 12,6 C 0,0 km/h (0 Bft)
19.05.2022 06:42 12,6 C 11,1 C 82 % 1019,3 hPa 0,0 l/m 0,0 km/h (0 Bft) N 0 0 min 0,0 UV-I 42 W/m 9,6 C 12,6 C 0,0 km/h (0 Bft)
19.05.2022 06:43 12,6 C 11,1 C 82 % 1019,4 hPa 0,0 l/m 0,0 km/h (0 Bft) N 0 0 min 0,0 UV-I 42 W/m 9,6 C 12,6 C 0,0 km/h (0 Bft)
19.05.2022 06:44 12,4 C 11,7 C 82 % 1019,4 hPa 0,0 l/m 0,0 km/h (0 Bft) N 0 0 min 0,0 UV-I 44 W/m 9,4 C 12,4 C 0,0 km/h (0 Bft)
19.05.2022 06:45 12,4 C 11,1 C 83 % 1019,3 hPa 0,0 l/m 0,0 km/h (0 Bft) N 0 0 min 0,0 UV-I 44 W/m 9,6 C 12,4 C 0,0 km/h (0 Bft)
19.05.2022 06:46 12,5 C 11,1 C 84 % 1019,3 hPa 0,0 l/m 0,0 km/h (0 Bft) N 0 0 min 0,0 UV-I 46 W/m 9,9 C 12,5 C 0,0 km/h (0 Bft)
19.05.2022 06:47 12,4 C 11,1 C 83 % 1019,3 hPa 0,0 l/m 0,0 km/h (0 Bft) N 0 0 min 0,0 UV-I 46 W/m 9,6 C 12,4 C 0,0 km/h (0 Bft)
19.05.2022 06:48 12,4 C 11,1 C 83 % 1019,3 hPa 0,0 l/m 0,0 km/h (0 Bft) N 0 0 min 0,0 UV-I 46 W/m 9,6 C 12,4 C 0,0 km/h (0 Bft)
19.05.2022 06:49 12,3 C 11,1 C 83 % 1019,4 hPa 0,0 l/m 0,0 km/h (0 Bft) N 0 0 min 0,0 UV-I 49 W/m 9,5 C 12,3 C 0,0 km/h (0 Bft)
19.05.2022 06:50 12,3 C 11,1 C 83 % 1019,3 hPa 0,0 l/m 0,0 km/h (0 Bft) N 0 0 min 0,0 UV-I 53 W/m 9,5 C 12,3 C 0,0 km/h (0 Bft)
19.05.2022 06:51 12,4 C 11,7 C 84 % 1019,3 hPa 0,0 l/m 0,0 km/h (0 Bft) N 0 0 min 0,0 UV-I 51 W/m 9,8 C 12,4 C 0,0 km/h (0 Bft)
19.05.2022 06:52 12,6 C 11,7 C 84 % 1019,3 hPa 0,0 l/m 0,0 km/h (0 Bft) N 0 0 min 0,0 UV-I 54 W/m 10,0 C 12,6 C 0,0 km/h (0 Bft)
19.05.2022 06:53 12,6 C 11,7 C 83 % 1019,4 hPa 0,0 l/m 0,0 km/h (0 Bft) N 0 0 min 0,0 UV-I 56 W/m 9,8 C 12,6 C 0,0 km/h (0 Bft)
19.05.2022 06:54 12,7 C 11,7 C 83 % 1019,3 hPa 0,0 l/m 0,0 km/h (0 Bft) N 0 0 min 0,0 UV-I 58 W/m 9,9 C 12,7 C 0,0 km/h (0 Bft)
19.05.2022 06:55 12,8 C 11,7 C 84 % 1019,4 hPa 0,0 l/m 0,0 km/h (0 Bft) N 0 0 min 0,0 UV-I 62 W/m 10,2 C 12,8 C 0,0 km/h (0 Bft)
19.05.2022 06:56 12,8 C 11,7 C 82 % 1019,3 hPa 0,0 l/m 0,0 km/h (0 Bft) N 0 0 min 0,0 UV-I 65 W/m 9,8 C 12,8 C 0,0 km/h (0 Bft)
19.05.2022 06:57 12,8 C 11,7 C 83 % 1019,4 hPa 0,0 l/m 0,0 km/h (0 Bft) N 0 0 min 0,0 UV-I 67 W/m 10,0 C 12,8 C 0,0 km/h (0 Bft)
19.05.2022 06:58 12,7 C 11,7 C 82 % 1019,3 hPa 0,0 l/m 0,0 km/h (0 Bft) N 0 0 min 0,0 UV-I 74 W/m 9,7 C 12,7 C 0,0 km/h (0 Bft)
19.05.2022 06:59 12,7 C 12,2 C 82 % 1019,4 hPa 0,0 l/m 0,0 km/h (0 Bft) N 0 0 min 0,0 UV-I 77 W/m 9,7 C 12,7 C 0,0 km/h (0 Bft)
19.05.2022 07:00 12,7 C 12,2 C 82 % 1019,3 hPa 0,0 l/m 0,0 km/h (0 Bft) N 0 0 min 0,0 UV-I 79 W/m 9,7 C 12,7 C 0,0 km/h (0 Bft)
19.05.2022 07:01 12,7 C 12,2 C 83 % 1019,3 hPa 0,0 l/m 0,0 km/h (0 Bft) N 0 0 min 0,0 UV-I 77 W/m 9,9 C 12,7 C 0,0 km/h (0 Bft)
19.05.2022 07:02 12,9 C 12,2 C 84 % 1019,4 hPa 0,0 l/m 0,0 km/h (0 Bft) N 0 0 min 0,0 UV-I 76 W/m 10,3 C 12,9 C 0,0 km/h (0 Bft)
19.05.2022 07:03 13,2 C 12,2 C 83 % 1019,3 hPa 0,0 l/m 0,0 km/h (0 Bft) N 0 0 min 0,0 UV-I 77 W/m 10,4 C 13,2 C 0,0 km/h (0 Bft)
19.05.2022 07:04 13,2 C 12,8 C 82 % 1019,4 hPa 0,0 l/m 0,0 km/h (0 Bft) N 0 0 min 0,0 UV-I 81 W/m 10,2 C 13,2 C 0,0 km/h (0 Bft)
19.05.2022 07:05 13,1 C 12,8 C 82 % 1019,4 hPa 0,0 l/m 0,0 km/h (0 Bft) N 0 0 min 0,0 UV-I 84 W/m 10,1 C 13,1 C 0,0 km/h (0 Bft)
19.05.2022 07:06 13,2 C 12,8 C 82 % 1019,4 hPa 0,0 l/m 0,0 km/h (0 Bft) N 0 0 min 0,0 UV-I 84 W/m 10,2 C 13,2 C 0,0 km/h (0 Bft)
19.05.2022 07:07 13,4 C 12,8 C 82 % 1019,5 hPa 0,0 l/m 0,0 km/h (0 Bft) N 0 0 min 0,0 UV-I 84 W/m 10,4 C 13,4 C 0,0 km/h (0 Bft)
19.05.2022 07:08 13,4 C 13,3 C 81 % 1019,5 hPa 0,0 l/m 0,0 km/h (0 Bft) N 0 0 min 0,0 UV-I 84 W/m 10,2 C 13,4 C 0,0 km/h (0 Bft)
19.05.2022 07:09 13,3 C 13,3 C 81 % 1019,4 hPa 0,0 l/m 0,0 km/h (0 Bft) N 0 0 min 0,0 UV-I 84 W/m 10,1 C 13,3 C 0,0 km/h (0 Bft)
19.05.2022 07:10 13,4 C 13,3 C 82 % 1019,4 hPa 0,0 l/m 0,0 km/h (0 Bft) N 0 0 min 0,0 UV-I 94 W/m 10,4 C 13,4 C 0,0 km/h (0 Bft)
19.05.2022 07:11 13,4 C 13,3 C 82 % 1019,5 hPa 0,0 l/m 0,0 km/h (0 Bft) N 0 0 min 0,0 UV-I 102 W/m 10,4 C 13,4 C 0,0 km/h (0 Bft)
19.05.2022 07:12 13,6 C 13,3 C 82 % 1019,4 hPa 0,0 l/m 0,0 km/h (0 Bft) N 0 0 min 0,0 UV-I 107 W/m 10,6 C 13,6 C 0,0 km/h (0 Bft)
19.05.2022 07:13 13,6 C 13,3 C 82 % 1019,4 hPa 0,0 l/m 0,0 km/h (0 Bft) N 0 0 min 0,0 UV-I 109 W/m 10,6 C 13,6 C 0,0 km/h (0 Bft)
19.05.2022 07:14 13,6 C 13,9 C 82 % 1019,5 hPa 0,0 l/m 0,0 km/h (0 Bft) N 0 0 min 0,0 UV-I 116 W/m 10,6 C 13,6 C 0,0 km/h (0 Bft)
19.05.2022 07:15 13,6 C 13,9 C 82 % 1019,4 hPa 0,0 l/m 0,0 km/h (0 Bft) N 0 0 min 0,0 UV-I 128 W/m 10,6 C 13,6 C 0,0 km/h (0 Bft)
19.05.2022 07:16 13,7 C 13,9 C 82 % 1019,5 hPa 0,0 l/m 0,0 km/h (0 Bft) N 0 0 min 0,0 UV-I 128 W/m 10,7 C 13,7 C 0,0 km/h (0 Bft)
19.05.2022 07:17 13,7 C 13,9 C 82 % 1019,4 hPa 0,0 l/m 0,0 km/h (0 Bft) N 0 0 min 0,0 UV-I 90 W/m 10,7 C 13,7 C 0,0 km/h (0 Bft)
19.05.2022 07:18 13,7 C 13,9 C 82 % 1019,4 hPa 0,0 l/m 0,0 km/h (0 Bft) N 0 0 min 0,0 UV-I 77 W/m 10,7 C 13,7 C 0,0 km/h (0 Bft)
19.05.2022 07:19 13,7 C 13,9 C 83 % 1019,5 hPa 0,0 l/m 4,8 km/h (1 Bft) S-SO 157 0 min 0,0 UV-I 77 W/m 10,9 C 13,7 C 9,7 km/h (2 Bft)
19.05.2022 07:20 13,8 C 13,9 C 82 % 1019,5 hPa 0,0 l/m 6,4 km/h (2 Bft) S-SO 157 0 min 0,0 UV-I 76 W/m 10,8 C 13,8 C 9,7 km/h (2 Bft)
19.05.2022 07:21 13,9 C 13,9 C 82 % 1019,4 hPa 0,0 l/m 3,2 km/h (1 Bft) S-SO 157 0 min 0,0 UV-I 78 W/m 10,9 C 13,9 C 6,4 km/h (2 Bft)
19.05.2022 07:22 14,1 C 13,9 C 82 % 1019,5 hPa 0,0 l/m 6,4 km/h (2 Bft) S-SO 157 0 min 0,0 UV-I 79 W/m 11,1 C 14,1 C 9,7 km/h (2 Bft)
19.05.2022 07:23 14,5 C 14,4 C 82 % 1019,5 hPa 0,0 l/m 4,8 km/h (1 Bft) S-SO 157 0 min 0,3 UV-I 76 W/m 11,5 C 14,5 C 8,0 km/h (2 Bft)
19.05.2022 07:24 14,7 C 14,4 C 81 % 1019,5 hPa 0,0 l/m 0,0 km/h (0 Bft) S-SO 157 0 min 0,0 UV-I 69 W/m 11,5 C 14,7 C 11,3 km/h (2 Bft)
19.05.2022 07:25 14,7 C 14,4 C 79 % 1019,5 hPa 0,0 l/m 0,0 km/h (0 Bft) N 0 0 min 0,5 UV-I 69 W/m 11,1 C 14,7 C 0,0 km/h (0 Bft)
19.05.2022 07:26 14,7 C 14,4 C 79 % 1019,4 hPa 0,0 l/m 0,0 km/h (0 Bft) N 0 0 min 0,5 UV-I 69 W/m 11,1 C 14,7 C 0,0 km/h (0 Bft)
19.05.2022 07:27 14,7 C 14,4 C 79 % 1019,5 hPa 0,0 l/m 0,0 km/h (0 Bft) N 0 0 min 0,5 UV-I 70 W/m 11,1 C 14,7 C 0,0 km/h (0 Bft)
19.05.2022 07:28 14,8 C 14,4 C 79 % 1019,5 hPa 0,0 l/m 1,6 km/h (1 Bft) SO 135 0 min 0,5 UV-I 72 W/m 11,2 C 14,8 C 6,4 km/h (2 Bft)
19.05.2022 07:29 14,7 C 14,4 C 79 % 1019,5 hPa 0,0 l/m 1,6 km/h (1 Bft) SO 135 0 min 0,5 UV-I 74 W/m 11,1 C 14,7 C 4,8 km/h (1 Bft)
19.05.2022 07:30 14,7 C 14,4 C 79 % 1019,5 hPa 0,0 l/m 0,0 km/h (0 Bft) N 0 0 min 0,5 UV-I 76 W/m 11,1 C 14,7 C 0,0 km/h (0 Bft)
19.05.2022 07:31 14,6 C 14,4 C 79 % 1019,5 hPa 0,0 l/m 0,0 km/h (0 Bft) N 0 0 min 0,5 UV-I 79 W/m 11,0 C 14,6 C 0,0 km/h (0 Bft)
19.05.2022 07:32 14,6 C 14,4 C 79 % 1019,5 hPa 0,0 l/m 0,0 km/h (0 Bft) N 0 0 min 0,5 UV-I 102 W/m 11,0 C 14,6 C 0,0 km/h (0 Bft)
19.05.2022 07:33 14,6 C 14,4 C 79 % 1019,4 hPa 0,0 l/m 0,0 km/h (0 Bft) N 0 0 min 0,6 UV-I 139 W/m 11,0 C 14,6 C 0,0 km/h (0 Bft)
19.05.2022 07:34 14,7 C 14,4 C 79 % 1019,5 hPa 0,0 l/m 0,0 km/h (0 Bft) N 0 0 min 0,6 UV-I 160 W/m 11,1 C 14,7 C 0,0 km/h (0 Bft)
19.05.2022 07:35 14,7 C 14,4 C 79 % 1019,4 hPa 0,0 l/m 0,0 km/h (0 Bft) N 0 0 min 0,7 UV-I 169 W/m 11,1 C 14,7 C 0,0 km/h (0 Bft)
19.05.2022 07:36 14,8 C 15,0 C 79 % 1019,3 hPa 0,0 l/m 0,0 km/h (0 Bft) N 0 0 min 0,7 UV-I 171 W/m 11,2 C 14,8 C 0,0 km/h (0 Bft)
19.05.2022 07:37 14,9 C 15,0 C 79 % 1019,4 hPa 0,0 l/m 0,0 km/h (0 Bft) N 0 0 min 0,7 UV-I 178 W/m 11,3 C 14,9 C 0,0 km/h (0 Bft)
19.05.2022 07:38 15,1 C 15,0 C 79 % 1019,4 hPa 0,0 l/m 0,0 km/h (0 Bft) N 0 0 min 0,7 UV-I 186 W/m 11,5 C 15,1 C 0,0 km/h (0 Bft)
19.05.2022 07:39 15,3 C 15,0 C 79 % 1019,4 hPa 0,0 l/m 0,0 km/h (0 Bft) N 0 0 min 0,7 UV-I 201 W/m 11,7 C 15,3 C 0,0 km/h (0 Bft)
19.05.2022 07:40 15,5 C 15,6 C 77 % 1019,4 hPa 0,0 l/m 0,0 km/h (0 Bft) N 0 0 min 0,8 UV-I 197 W/m 11,5 C 15,5 C 0,0 km/h (0 Bft)
19.05.2022 07:41 15,7 C 15,6 C 78 % 1019,4 hPa 0,0 l/m 0,0 km/h (0 Bft) N 0 0 min 0,8 UV-I 197 W/m 11,9 C 15,7 C 0,0 km/h (0 Bft)
19.05.2022 07:42 15,9 C 15,6 C 77 % 1019,4 hPa 0,0 l/m 0,0 km/h (0 Bft) N 0 0 min 0,8 UV-I 181 W/m 11,9 C 15,9 C 0,0 km/h (0 Bft)
19.05.2022 07:43 16,0 C 16,1 C 76 % 1019,4 hPa 0,0 l/m 0,0 km/h (0 Bft) N 0 0 min 0,8 UV-I 193 W/m 11,8 C 16,0 C 0,0 km/h (0 Bft)
19.05.2022 07:46 16,6 C 16,1 C 76 % 1019,4 hPa 0,0 l/m 0,0 km/h (0 Bft) SO 138 0 min 0,8 UV-I 213 W/m 12,3 C 16,6 C 0,0 km/h (0 Bft)
19.05.2022 07:48 16,9 C 16,7 C 75 % 1019,4 hPa 0,0 l/m 0,0 km/h (0 Bft) SO 138 0 min 0,9 UV-I 229 W/m 12,4 C 16,9 C 0,0 km/h (0 Bft)
19.05.2022 07:50 17,2 C 17,2 C 75 % 1019,4 hPa 0,0 l/m 0,0 km/h (0 Bft) SO 138 0 min 0,9 UV-I 240 W/m 12,7 C 17,2 C 0,0 km/h (0 Bft)
19.05.2022 07:52 17,4 C 17,8 C 74 % 1019,5 hPa 0,0 l/m 0,0 km/h (0 Bft) SO 138 0 min 0,9 UV-I 232 W/m 12,7 C 17,4 C 0,0 km/h (0 Bft)
19.05.2022 07:54 17,6 C 18,3 C 73 % 1019,5 hPa 0,0 l/m 0,0 km/h (0 Bft) SO 138 0 min 0,9 UV-I 244 W/m 12,7 C 17,6 C 0,0 km/h (0 Bft)
19.05.2022 07:56 17,7 C 18,3 C 73 % 1019,5 hPa 0,0 l/m 0,0 km/h (0 Bft) SO 138 0 min 0,8 UV-I 150 W/m 12,8 C 17,7 C 1,6 km/h (1 Bft)
19.05.2022 07:58 17,9 C 18,3 C 71 % 1019,4 hPa 0,0 l/m 0,0 km/h (0 Bft) SO 139 0 min 0,9 UV-I 193 W/m 12,6 C 17,9 C 0,0 km/h (0 Bft)
19.05.2022 08:00 18,3 C 18,9 C 71 % 1019,4 hPa 0,0 l/m 0,0 km/h (0 Bft) SO 140 0 min 1,0 UV-I 223 W/m 12,9 C 18,3 C 0,0 km/h (0 Bft)
19.05.2022 08:02 18,6 C 19,4 C 70 % 1019,4 hPa 0,0 l/m 0,0 km/h (0 Bft) SO 140 0 min 1,0 UV-I 240 W/m 13,0 C 18,6 C 0,0 km/h (0 Bft)
19.05.2022 08:04 18,8 C 19,4 C 71 % 1019,3 hPa 0,0 l/m 0,0 km/h (0 Bft) SO 140 0 min 1,0 UV-I 229 W/m 13,4 C 18,8 C 0,0 km/h (0 Bft)
19.05.2022 08:06 18,8 C 20,0 C 69 % 1019,3 hPa 0,0 l/m 0,0 km/h (0 Bft) SO 140 0 min 1,0 UV-I 227 W/m 13,0 C 18,8 C 0,0 km/h (0 Bft)
19.05.2022 08:08 18,8 C 20,0 C 69 % 1019,4 hPa 0,0 l/m 0,0 km/h (0 Bft) SO 136 0 min 1,1 UV-I 233 W/m 13,0 C 18,8 C 0,0 km/h (0 Bft)
19.05.2022 08:10 18,9 C 20,0 C 69 % 1019,2 hPa 0,0 l/m 2,1 km/h (1 Bft) SO 136 0 min 1,2 UV-I 256 W/m 13,1 C 18,9 C 8,0 km/h (2 Bft)
19.05.2022 08:12 19,2 C 20,0 C 68 % 1019,3 hPa 0,0 l/m 2,7 km/h (1 Bft) SO 136 0 min 1,2 UV-I 257 W/m 13,1 C 19,2 C 11,3 km/h (2 Bft)
19.05.2022 08:14 19,4 C 20,0 C 68 % 1019,3 hPa 0,0 l/m 3,0 km/h (1 Bft) S-SO 159 0 min 1,2 UV-I 266 W/m 13,3 C 19,4 C 11,3 km/h (2 Bft)
19.05.2022 08:16 19,7 C 20,6 C 67 % 1019,3 hPa 0,0 l/m 8,4 km/h (2 Bft) O-SO 122 0 min 1,2 UV-I 271 W/m 13,4 C 18,9 C 14,5 km/h (3 Bft)
19.05.2022 08:18 19,8 C 20,6 C 65 % 1019,4 hPa 0,0 l/m 7,7 km/h (2 Bft) SO 130 0 min 1,3 UV-I 284 W/m 13,0 C 19,3 C 16,1 km/h (3 Bft)
19.05.2022 08:20 20,0 C 20,6 C 65 % 1019,3 hPa 0,0 l/m 7,8 km/h (2 Bft) SO 139 0 min 1,3 UV-I 285 W/m 13,2 C 19,4 C 11,3 km/h (2 Bft)
19.05.2022 08:22 20,2 C 20,6 C 66 % 1019,3 hPa 0,0 l/m 8,9 km/h (2 Bft) SO 130 0 min 1,3 UV-I 287 W/m 13,6 C 19,2 C 16,1 km/h (3 Bft)
19.05.2022 08:24 20,2 C 20,6 C 63 % 1019,4 hPa 0,0 l/m 10,8 km/h (2 Bft) O-SO 107 0 min 1,3 UV-I 253 W/m 12,9 C 18,6 C 16,1 km/h (3 Bft)
19.05.2022 08:26 20,1 C 20,0 C 63 % 1019,2 hPa 0,0 l/m 9,7 km/h (2 Bft) SO 126 0 min 1,2 UV-I 185 W/m 12,8 C 18,8 C 14,5 km/h (3 Bft)
19.05.2022 08:28 20,1 C 20,6 C 65 % 1019,4 hPa 0,0 l/m 7,1 km/h (2 Bft) SO 126 0 min 1,4 UV-I 228 W/m 13,3 C 19,8 C 14,5 km/h (3 Bft)
19.05.2022 08:30 20,2 C 20,6 C 64 % 1019,3 hPa 0,0 l/m 8,4 km/h (2 Bft) SO 134 0 min 1,5 UV-I 331 W/m 13,2 C 19,4 C 12,9 km/h (3 Bft)
19.05.2022 08:32 20,2 C 21,1 C 63 % 1019,3 hPa 0,0 l/m 7,1 km/h (2 Bft) SO 132 2 min 1,5 UV-I 350 W/m 12,9 C 19,9 C 12,9 km/h (3 Bft)
19.05.2022 08:34 20,4 C 21,7 C 64 % 1019,3 hPa 0,0 l/m 0,9 km/h (0 Bft) SO 129 2 min 1,6 UV-I 360 W/m 13,4 C 20,4 C 4,8 km/h (1 Bft)
19.05.2022 08:36 20,6 C 21,7 C 63 % 1019,2 hPa 0,0 l/m 7,5 km/h (2 Bft) SO 132 2 min 1,6 UV-I 374 W/m 13,3 C 20,2 C 12,9 km/h (3 Bft)
19.05.2022 08:38 20,7 C 21,7 C 62 % 1019,2 hPa 0,0 l/m 4,3 km/h (1 Bft) S-SO 155 2 min 1,6 UV-I 353 W/m 13,2 C 20,7 C 8,0 km/h (2 Bft)
19.05.2022 08:40 20,8 C 21,7 C 62 % 1019,2 hPa 0,0 l/m 4,1 km/h (1 Bft) S-SO 155 0 min 1,5 UV-I 314 W/m 13,2 C 20,8 C 9,7 km/h (2 Bft)
19.05.2022 08:42 20,9 C 21,7 C 62 % 1019,1 hPa 0,0 l/m 3,1 km/h (1 Bft) S-SO 148 0 min 1,4 UV-I 283 W/m 13,3 C 20,9 C 11,3 km/h (2 Bft)
19.05.2022 08:44 20,8 C 21,7 C 62 % 1019,2 hPa 0,0 l/m 3,0 km/h (1 Bft) SO 125 0 min 1,3 UV-I 207 W/m 13,2 C 20,8 C 9,7 km/h (2 Bft)
19.05.2022 08:46 20,7 C 21,1 C 62 % 1019,2 hPa 0,0 l/m 6,2 km/h (2 Bft) O-SO 119 0 min 1,3 UV-I 206 W/m 13,2 C 20,7 C 9,7 km/h (2 Bft)
19.05.2022 08:48 20,6 C 21,1 C 62 % 1019,3 hPa 0,0 l/m 3,8 km/h (1 Bft) O-SO 120 0 min 1,3 UV-I 210 W/m 13,1 C 20,6 C 11,3 km/h (2 Bft)
19.05.2022 08:50 20,6 C 21,1 C 62 % 1019,3 hPa 0,0 l/m 4,5 km/h (1 Bft) SO 128 0 min 1,3 UV-I 221 W/m 13,1 C 20,6 C 11,3 km/h (2 Bft)
19.05.2022 08:52 20,6 C 21,1 C 63 % 1019,3 hPa 0,0 l/m 3,0 km/h (1 Bft) O-SO 122 0 min 1,4 UV-I 227 W/m 13,3 C 20,6 C 8,0 km/h (2 Bft)
19.05.2022 08:54 20,6 C 21,1 C 62 % 1019,4 hPa 0,0 l/m 0,6 km/h (0 Bft) SO 130 0 min 1,5 UV-I 263 W/m 13,1 C 20,6 C 6,4 km/h (2 Bft)
19.05.2022 08:56 20,6 C 21,1 C 62 % 1019,4 hPa 0,0 l/m 4,6 km/h (1 Bft) SO 130 0 min 1,6 UV-I 283 W/m 13,1 C 20,6 C 8,0 km/h (2 Bft)
19.05.2022 08:58 20,7 C 21,7 C 63 % 1019,5 hPa 0,0 l/m 4,8 km/h (1 Bft) SO 130 0 min 1,6 UV-I 283 W/m 13,4 C 20,7 C 8,0 km/h (2 Bft)
19.05.2022 09:00 20,8 C 21,7 C 63 % 1019,5 hPa 0,0 l/m 3,8 km/h (1 Bft) SO 130 0 min 1,7 UV-I 306 W/m 13,5 C 20,8 C 6,4 km/h (2 Bft)
19.05.2022 09:02 20,9 C 21,7 C 63 % 1019,4 hPa 0,0 l/m 2,9 km/h (1 Bft) SO 130 0 min 1,7 UV-I 312 W/m 13,6 C 20,9 C 4,8 km/h (1 Bft)
19.05.2022 09:04 21,0 C 22,2 C 63 % 1019,4 hPa 0,0 l/m 3,3 km/h (1 Bft) SO 130 0 min 1,8 UV-I 308 W/m 13,7 C 21,0 C 6,4 km/h (2 Bft)
19.05.2022 09:06 21,1 C 22,2 C 62 % 1019,4 hPa 0,0 l/m 3,6 km/h (1 Bft) SO 130 0 min 1,8 UV-I 306 W/m 13,5 C 21,1 C 4,8 km/h (1 Bft)
19.05.2022 09:08 21,1 C 22,2 C 61 % 1019,4 hPa 0,0 l/m 3,4 km/h (1 Bft) SO 130 0 min 1,8 UV-I 296 W/m 13,3 C 21,1 C 6,4 km/h (2 Bft)
19.05.2022 09:10 21,2 C 22,2 C 63 % 1019,3 hPa 0,0 l/m 5,8 km/h (2 Bft) O-SO 118 2 min 1,9 UV-I 362 W/m 13,9 C 21,2 C 9,7 km/h (2 Bft)
19.05.2022 09:12 21,4 C 22,8 C 62 % 1019,4 hPa 0,0 l/m 4,7 km/h (1 Bft) O-SO 119 2 min 2,0 UV-I 393 W/m 13,8 C 21,4 C 6,4 km/h (2 Bft)
19.05.2022 09:14 21,5 C 22,8 C 62 % 1019,4 hPa 0,0 l/m 3,3 km/h (1 Bft) O-SO 115 0 min 1,9 UV-I 304 W/m 13,9 C 21,5 C 6,4 km/h (2 Bft)
19.05.2022 09:16 21,6 C 22,8 C 61 % 1019,4 hPa 0,0 l/m 5,8 km/h (2 Bft) O-SO 118 2 min 2,1 UV-I 371 W/m 13,7 C 21,6 C 9,7 km/h (2 Bft)
19.05.2022 09:18 21,7 C 23,3 C 62 % 1019,4 hPa 0,0 l/m 4,4 km/h (1 Bft) O-SO 119 2 min 2,2 UV-I 409 W/m 14,1 C 21,7 C 9,7 km/h (2 Bft)
19.05.2022 09:20 21,7 C 22,8 C 60 % 1019,5 hPa 0,0 l/m 5,4 km/h (1 Bft) O-SO 115 2 min 2,1 UV-I 386 W/m 13,6 C 21,7 C 9,7 km/h (2 Bft)
19.05.2022 09:22 21,8 C 22,8 C 61 % 1019,4 hPa 0,0 l/m 3,6 km/h (1 Bft) SO 129 2 min 2,2 UV-I 387 W/m 13,9 C 21,8 C 6,4 km/h (2 Bft)
19.05.2022 09:24 21,9 C 23,3 C 60 % 1019,4 hPa 0,0 l/m 8,4 km/h (2 Bft) SO 132 2 min 2,2 UV-I 412 W/m 13,8 C 21,2 C 16,1 km/h (3 Bft)
19.05.2022 09:26 21,9 C 23,3 C 60 % 1019,4 hPa 0,0 l/m 5,8 km/h (2 Bft) SO 133 2 min 2,3 UV-I 426 W/m 13,8 C 21,9 C 11,3 km/h (2 Bft)
19.05.2022 09:28 22,1 C 23,3 C 59 % 1019,4 hPa 0,0 l/m 6,8 km/h (2 Bft) SO 125 2 min 2,2 UV-I 392 W/m 13,7 C 22,0 C 12,9 km/h (3 Bft)
19.05.2022 09:30 22,1 C 23,3 C 60 % 1019,4 hPa 0,0 l/m 7,8 km/h (2 Bft) SO 140 2 min 2,3 UV-I 416 W/m 14,0 C 21,6 C 11,3 km/h (2 Bft)
19.05.2022 09:32 22,1 C 23,3 C 59 % 1019,4 hPa 0,0 l/m 6,9 km/h (2 Bft) SO 130 2 min 2,2 UV-I 383 W/m 13,7 C 21,9 C 12,9 km/h (3 Bft)
19.05.2022 09:34 21,9 C 22,8 C 60 % 1019,5 hPa 0,0 l/m 5,1 km/h (1 Bft) SO 135 0 min 2,0 UV-I 280 W/m 13,8 C 21,9 C 8,0 km/h (2 Bft)
19.05.2022 09:36 21,8 C 22,8 C 60 % 1019,4 hPa 0,0 l/m 10,8 km/h (2 Bft) O-SO 117 0 min 2,2 UV-I 333 W/m 13,7 C 20,4 C 14,5 km/h (3 Bft)
19.05.2022 09:38 21,8 C 22,8 C 60 % 1019,4 hPa 0,0 l/m 8,6 km/h (2 Bft) S-SO 159 2 min 2,6 UV-I 434 W/m 13,7 C 21,0 C 14,5 km/h (3 Bft)
19.05.2022 09:40 21,9 C 23,3 C 61 % 1019,4 hPa 0,0 l/m 5,8 km/h (2 Bft) O-SO 117 2 min 2,7 UV-I 457 W/m 14,0 C 21,9 C 11,3 km/h (2 Bft)
19.05.2022 09:42 22,1 C 23,3 C 60 % 1019,3 hPa 0,0 l/m 6,0 km/h (2 Bft) O-SO 119 2 min 2,8 UV-I 476 W/m 14,0 C 22,1 C 9,7 km/h (2 Bft)
19.05.2022 09:44 22,1 C 23,3 C 60 % 1019,4 hPa 0,0 l/m 5,3 km/h (1 Bft) O 98 2 min 2,8 UV-I 515 W/m 14,0 C 22,1 C 9,7 km/h (2 Bft)
19.05.2022 09:46 22,2 C 23,9 C 60 % 1019,4 hPa 0,0 l/m 6,4 km/h (2 Bft) O-SO 113 2 min 2,6 UV-I 460 W/m 14,1 C 22,2 C 9,7 km/h (2 Bft)
19.05.2022 09:48 22,2 C 23,9 C 60 % 1019,4 hPa 0,0 l/m 3,5 km/h (1 Bft) SO 126 2 min 2,5 UV-I 444 W/m 14,1 C 22,2 C 6,4 km/h (2 Bft)
19.05.2022 09:50 22,3 C 24,4 C 61 % 1019,3 hPa 0,0 l/m 4,0 km/h (1 Bft) O-SO 121 2 min 2,5 UV-I 404 W/m 14,4 C 22,3 C 6,4 km/h (2 Bft)
19.05.2022 09:52 22,2 C 24,4 C 59 % 1019,3 hPa 0,0 l/m 3,3 km/h (1 Bft) SO 126 0 min 2,1 UV-I 311 W/m 13,8 C 22,2 C 6,4 km/h (2 Bft)
19.05.2022 09:54 22,2 C 23,9 C 57 % 1019,3 hPa 0,0 l/m 4,6 km/h (1 Bft) S-SO 150 0 min 2,0 UV-I 282 W/m 13,3 C 22,2 C 8,0 km/h (2 Bft)
19.05.2022 09:56 22,1 C 23,9 C 59 % 1019,3 hPa 0,0 l/m 8,1 km/h (2 Bft) SO 130 0 min 2,2 UV-I 330 W/m 13,7 C 21,5 C 12,9 km/h (3 Bft)
19.05.2022 09:58 22,1 C 23,3 C 59 % 1019,3 hPa 0,0 l/m 7,5 km/h (2 Bft) O-SO 116 0 min 2,2 UV-I 314 W/m 13,7 C 21,7 C 11,3 km/h (2 Bft)
19.05.2022 10:00 22,1 C 23,3 C 59 % 1019,2 hPa 0,0 l/m 7,7 km/h (2 Bft) O-SO 116 0 min 2,1 UV-I 312 W/m 13,7 C 21,7 C 12,9 km/h (3 Bft)
19.05.2022 10:02 22,1 C 23,3 C 59 % 1019,2 hPa 0,0 l/m 9,9 km/h (2 Bft) SO 138 0 min 2,2 UV-I 318 W/m 13,7 C 21,0 C 12,9 km/h (3 Bft)
19.05.2022 10:04 22,1 C 23,3 C 60 % 1019,3 hPa 0,0 l/m 7,8 km/h (2 Bft) SO 136 0 min 2,2 UV-I 335 W/m 14,0 C 21,6 C 12,9 km/h (3 Bft)
19.05.2022 10:06 21,9 C 23,3 C 58 % 1019,2 hPa 0,0 l/m 10,7 km/h (2 Bft) SO 130 0 min 2,2 UV-I 315 W/m 13,3 C 20,5 C 16,1 km/h (3 Bft)
19.05.2022 10:08 21,9 C 23,3 C 59 % 1019,3 hPa 0,0 l/m 8,7 km/h (2 Bft) SO 136 2 min 2,4 UV-I 357 W/m 13,5 C 21,1 C 14,5 km/h (3 Bft)
19.05.2022 10:10 21,9 C 23,3 C 59 % 1019,1 hPa 0,0 l/m 7,8 km/h (2 Bft) SO 128 2 min 2,6 UV-I 395 W/m 13,5 C 21,4 C 14,5 km/h (3 Bft)
19.05.2022 10:12 22,0 C 23,3 C 59 % 1019,2 hPa 0,0 l/m 4,4 km/h (1 Bft) O-SO 118 2 min 2,6 UV-I 392 W/m 13,6 C 22,0 C 9,7 km/h (2 Bft)
19.05.2022 10:14 22,3 C 23,9 C 61 % 1019,3 hPa 0,0 l/m 2,9 km/h (1 Bft) O-SO 119 2 min 2,8 UV-I 443 W/m 14,4 C 22,3 C 4,8 km/h (1 Bft)
19.05.2022 10:16 22,4 C 24,4 C 60 % 1019,3 hPa 0,0 l/m 4,1 km/h (1 Bft) O-SO 119 2 min 2,8 UV-I 452 W/m 14,2 C 22,4 C 6,4 km/h (2 Bft)
19.05.2022 10:18 22,5 C 24,4 C 59 % 1019,2 hPa 0,0 l/m 6,5 km/h (2 Bft) SO 124 2 min 2,7 UV-I 427 W/m 14,1 C 22,5 C 11,3 km/h (2 Bft)
19.05.2022 10:20 22,4 C 23,9 C 58 % 1019,2 hPa 0,0 l/m 7,9 km/h (2 Bft) S-SO 157 0 min 2,3 UV-I 322 W/m 13,7 C 21,9 C 11,3 km/h (2 Bft)
19.05.2022 10:22 22,3 C 23,9 C 58 % 1019,2 hPa 0,0 l/m 8,6 km/h (2 Bft) S 184 0 min 2,2 UV-I 294 W/m 13,6 C 21,6 C 11,3 km/h (2 Bft)
19.05.2022 10:24 22,2 C 23,9 C 58 % 1019,2 hPa 0,0 l/m 7,0 km/h (2 Bft) SO 142 0 min 2,2 UV-I 292 W/m 13,5 C 22,0 C 12,9 km/h (3 Bft)
19.05.2022 10:26 22,1 C 23,3 C 59 % 1019,2 hPa 0,0 l/m 7,4 km/h (2 Bft) O 94 0 min 2,1 UV-I 271 W/m 13,7 C 21,8 C 12,9 km/h (3 Bft)
19.05.2022 10:28 21,9 C 22,8 C 60 % 1019,1 hPa 0,0 l/m 5,3 km/h (1 Bft) O 98 0 min 2,2 UV-I 293 W/m 13,8 C 21,9 C 11,3 km/h (2 Bft)
19.05.2022 10:30 21,9 C 23,3 C 61 % 1019,2 hPa 0,0 l/m 7,8 km/h (2 Bft) SO 130 2 min 2,4 UV-I 357 W/m 14,0 C 21,4 C 14,5 km/h (3 Bft)
19.05.2022 10:32 22,0 C 23,3 C 59 % 1019,2 hPa 0,0 l/m 6,6 km/h (2 Bft) SO 130 2 min 2,6 UV-I 365 W/m 13,6 C 21,9 C 11,3 km/h (2 Bft)
19.05.2022 10:34 22,1 C 23,3 C 59 % 1019,2 hPa 0,0 l/m 6,0 km/h (2 Bft) S-SO 157 2 min 2,7 UV-I 379 W/m 13,7 C 22,1 C 11,3 km/h (2 Bft)
19.05.2022 10:36 22,2 C 23,9 C 61 % 1019,1 hPa 0,0 l/m 6,2 km/h (2 Bft) O-SO 116 2 min 2,8 UV-I 424 W/m 14,3 C 22,2 C 12,9 km/h (3 Bft)
19.05.2022 10:38 22,2 C 23,3 C 59 % 1019,2 hPa 0,0 l/m 10,6 km/h (2 Bft) O-SO 114 2 min 2,8 UV-I 387 W/m 13,8 C 20,9 C 16,1 km/h (3 Bft)
19.05.2022 10:40 22,2 C 23,9 C 59 % 1019,1 hPa 0,0 l/m 8,2 km/h (2 Bft) O-SO 116 2 min 3,0 UV-I 394 W/m 13,8 C 21,6 C 14,5 km/h (3 Bft)
19.05.2022 10:42 22,2 C 23,9 C 59 % 1019,1 hPa 0,0 l/m 10,9 km/h (2 Bft) O-SO 107 2 min 3,6 UV-I 607 W/m 13,8 C 20,8 C 14,5 km/h (3 Bft)
19.05.2022 10:44 22,4 C 24,4 C 59 % 1019,1 hPa 0,0 l/m 7,3 km/h (2 Bft) O-SO 109 2 min 3,7 UV-I 641 W/m 14,0 C 22,1 C 12,9 km/h (3 Bft)
19.05.2022 10:46 22,6 C 25,0 C 58 % 1019,0 hPa 0,0 l/m 8,1 km/h (2 Bft) SO 130 2 min 3,3 UV-I 559 W/m 13,9 C 22,1 C 14,5 km/h (3 Bft)
19.05.2022 10:48 22,6 C 25,6 C 60 % 1019,0 hPa 0,0 l/m 6,8 km/h (2 Bft) O 101 2 min 3,6 UV-I 531 W/m 14,4 C 22,5 C 16,1 km/h (3 Bft)
19.05.2022 10:50 22,7 C 25,6 C 58 % 1019,1 hPa 0,0 l/m 13,2 km/h (3 Bft) O-SO 119 2 min 4,0 UV-I 661 W/m 14,0 C 20,9 C 17,7 km/h (3 Bft)
19.05.2022 10:52 22,7 C 26,1 C 58 % 1019,1 hPa 0,0 l/m 10,5 km/h (2 Bft) O-SO 109 2 min 3,8 UV-I 637 W/m 14,0 C 21,5 C 16,1 km/h (3 Bft)
19.05.2022 10:54 22,6 C 26,1 C 59 % 1019,1 hPa 0,0 l/m 8,4 km/h (2 Bft) O-SO 103 2 min 3,7 UV-I 600 W/m 14,2 C 22,0 C 11,3 km/h (2 Bft)
19.05.2022 10:56 22,6 C 25,6 C 57 % 1019,1 hPa 0,0 l/m 7,0 km/h (2 Bft) SO 130 2 min 3,3 UV-I 505 W/m 13,6 C 22,4 C 12,9 km/h (3 Bft)
19.05.2022 10:58 22,7 C 25,6 C 58 % 1019,1 hPa 0,0 l/m 6,3 km/h (2 Bft) S-SO 164 2 min 3,2 UV-I 443 W/m 14,0 C 22,7 C 11,3 km/h (2 Bft)
19.05.2022 11:00 22,7 C 25,6 C 58 % 1019,1 hPa 0,0 l/m 10,5 km/h (2 Bft) O-SO 123 2 min 3,4 UV-I 508 W/m 14,0 C 21,5 C 20,9 km/h (4 Bft)
19.05.2022 11:02 22,7 C 25,6 C 58 % 1019,1 hPa 0,0 l/m 11,6 km/h (2 Bft) S 173 2 min 3,6 UV-I 557 W/m 14,0 C 21,2 C 19,3 km/h (3 Bft)
19.05.2022 11:04 22,8 C 25,6 C 59 % 1019,2 hPa 0,0 l/m 10,2 km/h (2 Bft) S 173 2 min 3,2 UV-I 459 W/m 14,4 C 21,7 C 16,1 km/h (3 Bft)
19.05.2022 11:06 22,6 C 25,0 C 57 % 1019,1 hPa 0,0 l/m 10,5 km/h (2 Bft) SO 137 2 min 3,1 UV-I 438 W/m 13,6 C 21,4 C 17,7 km/h (3 Bft)
19.05.2022 11:08 22,6 C 25,0 C 58 % 1019,2 hPa 0,0 l/m 9,4 km/h (2 Bft) SO 139 2 min 2,9 UV-I 366 W/m 13,9 C 21,7 C 16,1 km/h (3 Bft)
19.05.2022 11:10 22,4 C 24,4 C 57 % 1019,1 hPa 0,0 l/m 13,1 km/h (3 Bft) O-SO 112 2 min 3,2 UV-I 435 W/m 13,5 C 20,5 C 20,9 km/h (4 Bft)
19.05.2022 11:12 22,4 C 25,0 C 60 % 1019,1 hPa 0,0 l/m 10,8 km/h (2 Bft) SO 139 2 min 3,7 UV-I 601 W/m 14,2 C 21,1 C 14,5 km/h (3 Bft)
19.05.2022 11:14 22,6 C 26,1 C 58 % 1019,1 hPa 0,0 l/m 9,5 km/h (2 Bft) SO 128 2 min 4,3 UV-I 718 W/m 13,9 C 21,6 C 14,5 km/h (3 Bft)
19.05.2022 11:16 22,8 C 27,2 C 58 % 1019,1 hPa 0,0 l/m 9,6 km/h (2 Bft) SO 134 2 min 4,6 UV-I 770 W/m 14,1 C 21,8 C 14,5 km/h (3 Bft)
19.05.2022 11:18 22,9 C 26,7 C 58 % 1019,0 hPa 0,0 l/m 12,2 km/h (2 Bft) SO 133 2 min 3,8 UV-I 714 W/m 14,2 C 21,3 C 20,9 km/h (4 Bft)
19.05.2022 11:20 22,8 C 25,6 C 58 % 1018,9 hPa 0,0 l/m 10,8 km/h (2 Bft) S-SO 161 2 min 3,2 UV-I 443 W/m 14,1 C 21,5 C 16,1 km/h (3 Bft)
19.05.2022 11:22 22,7 C 25,0 C 57 % 1018,9 hPa 0,0 l/m 11,1 km/h (2 Bft) SO 132 2 min 3,0 UV-I 392 W/m 13,7 C 21,3 C 16,1 km/h (3 Bft)
19.05.2022 11:24 22,6 C 25,0 C 58 % 1019,0 hPa 0,0 l/m 11,6 km/h (2 Bft) SO 137 2 min 3,1 UV-I 407 W/m 13,9 C 21,1 C 17,7 km/h (3 Bft)
19.05.2022 11:26 22,7 C 25,0 C 58 % 1018,9 hPa 0,0 l/m 8,2 km/h (2 Bft) SO 129 2 min 3,2 UV-I 450 W/m 14,0 C 22,1 C 14,5 km/h (3 Bft)
19.05.2022 11:28 22,8 C 25,0 C 58 % 1019,0 hPa 0,0 l/m 10,0 km/h (2 Bft) S-SO 164 2 min 3,2 UV-I 442 W/m 14,1 C 21,7 C 17,7 km/h (3 Bft)
19.05.2022 11:30 22,8 C 25,0 C 58 % 1019,0 hPa 0,0 l/m 7,8 km/h (2 Bft) S-SO 165 2 min 3,0 UV-I 391 W/m 14,1 C 22,4 C 11,3 km/h (2 Bft)
19.05.2022 11:32 22,8 C 25,0 C 58 % 1019,0 hPa 0,0 l/m 8,5 km/h (2 Bft) S-SO 158 2 min 2,9 UV-I 390 W/m 14,1 C 22,1 C 12,9 km/h (3 Bft)
19.05.2022 11:34 22,7 C 24,4 C 58 % 1019,0 hPa 0,0 l/m 9,5 km/h (2 Bft) S 175 2 min 2,7 UV-I 347 W/m 14,0 C 21,8 C 12,9 km/h (3 Bft)
19.05.2022 11:36 22,7 C 24,4 C 58 % 1019,0 hPa 0,0 l/m 11,4 km/h (2 Bft) SO 138 0 min 2,5 UV-I 330 W/m 14,0 C 21,3 C 20,9 km/h (4 Bft)
19.05.2022 11:38 22,6 C 23,9 C 58 % 1018,8 hPa 0,0 l/m 12,1 km/h (2 Bft) SO 140 0 min 2,5 UV-I 330 W/m 13,9 C 21,0 C 20,9 km/h (4 Bft)
19.05.2022 11:40 22,6 C 23,9 C 60 % 1018,9 hPa 0,0 l/m 12,5 km/h (3 Bft) O-SO 117 0 min 2,4 UV-I 320 W/m 14,4 C 20,9 C 20,9 km/h (4 Bft)
19.05.2022 11:42 22,4 C 23,3 C 59 % 1019,0 hPa 0,0 l/m 13,2 km/h (3 Bft) SO 140 0 min 2,2 UV-I 292 W/m 14,0 C 20,5 C 20,9 km/h (4 Bft)
19.05.2022 11:44 22,3 C 23,3 C 59 % 1019,0 hPa 0,0 l/m 15,1 km/h (3 Bft) O-SO 110 0 min 2,0 UV-I 268 W/m 13,9 C 20,0 C 19,3 km/h (3 Bft)
19.05.2022 11:46 22,2 C 23,3 C 59 % 1019,0 hPa 0,0 l/m 11,7 km/h (2 Bft) SO 144 0 min 2,2 UV-I 283 W/m 13,8 C 20,6 C 19,3 km/h (3 Bft)
19.05.2022 11:48 22,1 C 23,3 C 60 % 1019,0 hPa 0,0 l/m 12,9 km/h (3 Bft) SO 131 0 min 2,5 UV-I 314 W/m 14,0 C 20,2 C 19,3 km/h (3 Bft)
19.05.2022 11:50 22,2 C 23,3 C 60 % 1019,1 hPa 0,0 l/m 12,2 km/h (2 Bft) SO 132 0 min 2,7 UV-I 330 W/m 14,1 C 20,5 C 17,7 km/h (3 Bft)
19.05.2022 11:52 22,2 C 23,9 C 59 % 1019,1 hPa 0,0 l/m 14,2 km/h (3 Bft) O-SO 119 2 min 3,2 UV-I 437 W/m 13,8 C 20,1 C 19,3 km/h (3 Bft)
19.05.2022 11:54 22,2 C 23,9 C 60 % 1019,2 hPa 0,0 l/m 13,5 km/h (3 Bft) SO 146 2 min 3,2 UV-I 416 W/m 14,1 C 20,2 C 19,3 km/h (3 Bft)
19.05.2022 11:56 22,3 C 23,9 C 60 % 1019,2 hPa 0,0 l/m 11,2 km/h (2 Bft) S 186 2 min 3,4 UV-I 455 W/m 14,2 C 20,9 C 17,7 km/h (3 Bft)
19.05.2022 11:58 22,4 C 24,4 C 60 % 1019,3 hPa 0,0 l/m 13,5 km/h (3 Bft) S-SO 163 2 min 3,7 UV-I 448 W/m 14,2 C 20,5 C 22,5 km/h (4 Bft)
19.05.2022 12:00 22,6 C 25,0 C 60 % 1019,3 hPa 0,0 l/m 12,4 km/h (3 Bft) SO 136 2 min 4,4 UV-I 645 W/m 14,4 C 20,9 C 19,3 km/h (3 Bft)
19.05.2022 12:02 22,8 C 26,7 C 60 % 1019,2 hPa 0,0 l/m 14,2 km/h (3 Bft) SO 142 2 min 5,1 UV-I 763 W/m 14,6 C 20,8 C 20,9 km/h (4 Bft)
19.05.2022 12:04 23,1 C 27,2 C 59 % 1019,2 hPa 0,0 l/m 12,7 km/h (3 Bft) SO 128 2 min 5,5 UV-I 849 W/m 14,6 C 21,5 C 16,1 km/h (3 Bft)
19.05.2022 12:06 23,3 C 27,8 C 59 % 1019,2 hPa 0,0 l/m 15,2 km/h (3 Bft) O-SO 123 2 min 5,2 UV-I 798 W/m 14,8 C 21,2 C 25,7 km/h (4 Bft)
19.05.2022 12:08 23,3 C 27,2 C 59 % 1019,1 hPa 0,0 l/m 10,5 km/h (2 Bft) SO 130 2 min 4,5 UV-I 644 W/m 14,8 C 22,2 C 16,1 km/h (3 Bft)
19.05.2022 12:10 23,3 C 26,7 C 58 % 1019,1 hPa 0,0 l/m 15,0 km/h (3 Bft) O-SO 117 2 min 4,3 UV-I 591 W/m 14,6 C 21,2 C 24,1 km/h (4 Bft)
19.05.2022 12:12 23,2 C 26,1 C 58 % 1019,0 hPa 0,0 l/m 19,4 km/h (3 Bft) O-SO 119 2 min 4,5 UV-I 647 W/m 14,5 C 20,4 C 30,6 km/h (5 Bft)
19.05.2022 12:14 23,1 C 26,1 C 58 % 1019,0 hPa 0,0 l/m 14,7 km/h (3 Bft) S-SO 153 2 min 4,4 UV-I 642 W/m 14,4 C 21,1 C 24,1 km/h (4 Bft)
19.05.2022 12:16 23,1 C 26,1 C 58 % 1019,0 hPa 0,0 l/m 17,8 km/h (3 Bft) SO 130 2 min 4,5 UV-I 642 W/m 14,4 C 20,5 C 27,4 km/h (4 Bft)
19.05.2022 12:18 23,2 C 26,7 C 59 % 1019,0 hPa 0,0 l/m 11,5 km/h (2 Bft) SO 138 2 min 4,0 UV-I 668 W/m 14,7 C 21,8 C 19,3 km/h (3 Bft)
19.05.2022 12:20 23,3 C 25,6 C 59 % 1019,0 hPa 0,0 l/m 12,1 km/h (2 Bft) SO 124 2 min 2,0 UV-I 444 W/m 14,8 C 21,8 C 20,9 km/h (4 Bft)
19.05.2022 12:22 23,1 C 23,9 C 59 % 1019,3 hPa 0,0 l/m 16,0 km/h (3 Bft) S-SO 150 0 min 1,1 UV-I 137 W/m 14,6 C 20,8 C 25,7 km/h (4 Bft)
19.05.2022 12:24 22,9 C 23,3 C 59 % 1019,4 hPa 0,0 l/m 14,2 km/h (3 Bft) S-SW 198 0 min 0,9 UV-I 106 W/m 14,5 C 20,9 C 22,5 km/h (4 Bft)
19.05.2022 12:26 22,7 C 21,7 C 61 % 1019,0 hPa 0,6 l/m 15,3 km/h (3 Bft) S-SO 148 0 min 0,9 UV-I 109 W/m 14,8 C 20,5 C 29,0 km/h (5 Bft)
19.05.2022 12:28 21,8 C 17,2 C 63 % 1018,8 hPa 0,4 l/m 13,0 km/h (3 Bft) SO 131 0 min 1,3 UV-I 139 W/m 14,4 C 19,9 C 19,3 km/h (3 Bft)
19.05.2022 12:30 21,5 C 17,2 C 66 % 1018,6 hPa 0,0 l/m 11,7 km/h (2 Bft) SO 126 0 min 1,8 UV-I 178 W/m 14,9 C 19,8 C 19,3 km/h (3 Bft)
19.05.2022 12:32 21,1 C 18,3 C 69 % 1018,5 hPa 0,0 l/m 7,2 km/h (2 Bft) O 95 0 min 2,5 UV-I 244 W/m 15,2 C 20,8 C 12,9 km/h (3 Bft)
19.05.2022 12:34 21,0 C 20,6 C 74 % 1018,5 hPa 0,0 l/m 4,7 km/h (1 Bft) SO 126 2 min 4,4 UV-I 493 W/m 16,2 C 21,0 C 8,0 km/h (2 Bft)
19.05.2022 12:36 21,3 C 21,1 C 73 % 1018,7 hPa 0,0 l/m 4,3 km/h (1 Bft) O-SO 119 2 min 4,8 UV-I 616 W/m 16,3 C 21,3 C 8,0 km/h (2 Bft)
19.05.2022 12:38 21,6 C 22,8 C 73 % 1018,9 hPa 0,0 l/m 5,8 km/h (2 Bft) S 182 2 min 5,0 UV-I 675 W/m 16,5 C 21,6 C 9,7 km/h (2 Bft)
19.05.2022 12:40 21,8 C 23,3 C 70 % 1018,7 hPa 0,0 l/m 5,8 km/h (2 Bft) S-SW 205 2 min 4,9 UV-I 636 W/m 16,1 C 21,8 C 8,0 km/h (2 Bft)
19.05.2022 12:42 22,1 C 23,9 C 72 % 1018,6 hPa 0,0 l/m 2,3 km/h (1 Bft) SW 218 2 min 4,3 UV-I 523 W/m 16,8 C 22,1 C 6,4 km/h (2 Bft)
19.05.2022 12:44 22,2 C 23,9 C 71 % 1018,6 hPa 0,0 l/m 3,7 km/h (1 Bft) S-SW 212 2 min 4,6 UV-I 582 W/m 16,7 C 22,2 C 8,0 km/h (2 Bft)
19.05.2022 12:46 22,3 C 24,4 C 69 % 1018,5 hPa 0,0 l/m 5,2 km/h (1 Bft) W-SW 240 2 min 4,5 UV-I 580 W/m 16,3 C 22,3 C 8,0 km/h (2 Bft)
19.05.2022 12:48 22,3 C 24,4 C 71 % 1018,5 hPa 0,0 l/m 3,8 km/h (1 Bft) SW 236 2 min 4,5 UV-I 570 W/m 16,8 C 22,3 C 6,4 km/h (2 Bft)
19.05.2022 12:50 22,6 C 25,0 C 71 % 1018,6 hPa 0,0 l/m 6,3 km/h (2 Bft) SO 125 2 min 4,7 UV-I 590 W/m 17,1 C 22,6 C 11,3 km/h (2 Bft)
19.05.2022 12:52 22,7 C 24,4 C 67 % 1018,5 hPa 0,0 l/m 8,0 km/h (2 Bft) SO 130 2 min 4,6 UV-I 536 W/m 16,2 C 22,2 C 11,3 km/h (2 Bft)
19.05.2022 12:54 22,8 C 25,0 C 67 % 1018,5 hPa 0,0 l/m 4,3 km/h (1 Bft) SO 128 2 min 5,3 UV-I 725 W/m 16,3 C 22,8 C 8,0 km/h (2 Bft)
19.05.2022 12:56 23,1 C 26,1 C 70 % 1018,5 hPa 0,0 l/m 4,2 km/h (1 Bft) SO 140 2 min 5,5 UV-I 769 W/m 17,3 C 23,1 C 6,4 km/h (2 Bft)
19.05.2022 12:58 23,3 C 26,1 C 66 % 1018,5 hPa 0,0 l/m 4,2 km/h (1 Bft) SO 144 2 min 5,8 UV-I 819 W/m 16,6 C 23,3 C 6,4 km/h (2 Bft)
19.05.2022 13:00 23,4 C 26,1 C 64 % 1018,5 hPa 0,0 l/m 9,7 km/h (2 Bft) S-SO 160 2 min 5,9 UV-I 832 W/m 16,2 C 22,5 C 16,1 km/h (3 Bft)
19.05.2022 13:02 23,6 C 25,6 C 62 % 1018,6 hPa 0,0 l/m 10,1 km/h (2 Bft) S-SO 155 2 min 6,1 UV-I 866 W/m 15,9 C 22,6 C 16,1 km/h (3 Bft)
19.05.2022 13:04 23,7 C 26,1 C 65 % 1018,6 hPa 0,0 l/m 10,4 km/h (2 Bft) S-SO 167 2 min 6,2 UV-I 883 W/m 16,7 C 22,6 C 16,1 km/h (3 Bft)
19.05.2022 13:06 23,9 C 26,7 C 63 % 1018,7 hPa 0,0 l/m 11,0 km/h (2 Bft) S-SO 148 2 min 6,3 UV-I 907 W/m 16,4 C 22,7 C 16,1 km/h (3 Bft)
19.05.2022 13:08 23,9 C 26,7 C 62 % 1018,6 hPa 0,0 l/m 10,2 km/h (2 Bft) S-SO 150 2 min 6,3 UV-I 887 W/m 16,2 C 22,9 C 17,7 km/h (3 Bft)
19.05.2022 13:10 24,1 C 27,2 C 62 % 1018,6 hPa 0,0 l/m 8,4 km/h (2 Bft) S-SO 148 2 min 6,4 UV-I 893 W/m 16,4 C 23,6 C 14,5 km/h (3 Bft)
19.05.2022 13:12 24,3 C 28,3 C 62 % 1018,7 hPa 0,0 l/m 10,0 km/h (2 Bft) SO 138 2 min 6,4 UV-I 908 W/m 16,5 C 23,4 C 16,1 km/h (3 Bft)
19.05.2022 13:14 24,4 C 27,8 C 59 % 1018,7 hPa 0,0 l/m 11,9 km/h (2 Bft) S 173 2 min 6,4 UV-I 896 W/m 15,9 C 23,1 C 17,7 km/h (3 Bft)
19.05.2022 13:16 24,7 C 28,9 C 60 % 1018,7 hPa 0,0 l/m 9,6 km/h (2 Bft) S-SW 208 2 min 6,4 UV-I 905 W/m 16,4 C 23,9 C 19,3 km/h (3 Bft)
19.05.2022 13:18 24,7 C 28,9 C 59 % 1018,6 hPa 0,0 l/m 12,1 km/h (2 Bft) S-SO 155 2 min 6,2 UV-I 859 W/m 16,1 C 23,4 C 19,3 km/h (3 Bft)
19.05.2022 13:20 24,5 C 28,9 C 60 % 1018,7 hPa 0,0 l/m 12,7 km/h (3 Bft) S-SO 159 2 min 5,2 UV-I 696 W/m 16,2 C 23,1 C 20,9 km/h (4 Bft)
19.05.2022 13:22 24,4 C 29,4 C 58 % 1018,6 hPa 0,0 l/m 11,4 km/h (2 Bft) S-SW 202 2 min 5,5 UV-I 709 W/m 15,6 C 23,2 C 16,1 km/h (3 Bft)
19.05.2022 13:24 24,5 C 29,4 C 58 % 1018,7 hPa 0,0 l/m 13,0 km/h (3 Bft) S 190 2 min 5,8 UV-I 797 W/m 15,7 C 23,0 C 20,9 km/h (4 Bft)
19.05.2022 13:26 24,6 C 29,4 C 59 % 1018,7 hPa 0,0 l/m 13,8 km/h (3 Bft) S 182 2 min 6,1 UV-I 834 W/m 16,0 C 23,0 C 19,3 km/h (3 Bft)
19.05.2022 13:28 24,7 C 30,0 C 58 % 1018,6 hPa 0,0 l/m 11,6 km/h (2 Bft) SO 146 2 min 6,0 UV-I 828 W/m 15,9 C 23,5 C 16,1 km/h (3 Bft)
19.05.2022 13:30 24,9 C 30,6 C 61 % 1018,6 hPa 0,0 l/m 9,1 km/h (2 Bft) S 190 2 min 6,2 UV-I 849 W/m 16,8 C 24,2 C 20,9 km/h (4 Bft)
19.05.2022 13:32 25,0 C 30,0 C 58 % 1018,8 hPa 0,0 l/m 11,2 km/h (2 Bft) S-SO 147 2 min 5,7 UV-I 807 W/m 16,1 C 23,9 C 17,7 km/h (3 Bft)
19.05.2022 13:34 25,1 C 30,6 C 58 % 1018,7 hPa 0,0 l/m 12,2 km/h (2 Bft) SO 146 2 min 6,3 UV-I 884 W/m 16,2 C 23,9 C 19,3 km/h (3 Bft)
19.05.2022 13:36 25,1 C 30,6 C 56 % 1018,7 hPa 0,0 l/m 13,7 km/h (3 Bft) S 184 2 min 6,2 UV-I 877 W/m 15,7 C 23,6 C 22,5 km/h (4 Bft)
19.05.2022 13:38 25,2 C 30,6 C 57 % 1018,7 hPa 0,0 l/m 10,6 km/h (2 Bft) SO 134 2 min 6,3 UV-I 867 W/m 16,1 C 24,3 C 22,5 km/h (4 Bft)
19.05.2022 13:40 25,3 C 30,6 C 58 % 1018,8 hPa 0,0 l/m 12,9 km/h (3 Bft) S-SO 160 2 min 5,7 UV-I 806 W/m 16,4 C 24,0 C 17,7 km/h (3 Bft)
19.05.2022 13:42 25,1 C 30,0 C 56 % 1018,7 hPa 0,0 l/m 14,6 km/h (3 Bft) S 169 2 min 4,9 UV-I 733 W/m 15,7 C 23,5 C 19,3 km/h (3 Bft)
19.05.2022 13:43 24,8 C 28,9 C 56 % 1018,7 hPa 0,0 l/m 17,7 km/h (3 Bft) S 180 1 min 3,9 UV-I 376 W/m 15,4 C 22,7 C 24,1 km/h (4 Bft)
19.05.2022 13:44 24,7 C 28,3 C 56 % 1018,9 hPa 0,0 l/m 11,3 km/h (2 Bft) S-SO 157 1 min 4,5 UV-I 376 W/m 15,3 C 23,6 C 20,9 km/h (4 Bft)
19.05.2022 13:45 24,6 C 27,8 C 58 % 1018,8 hPa 0,0 l/m 11,3 km/h (2 Bft) S 180 1 min 4,4 UV-I 431 W/m 15,8 C 23,5 C 24,1 km/h (4 Bft)
19.05.2022 13:46 24,5 C 27,8 C 58 % 1018,8 hPa 0,0 l/m 14,5 km/h (3 Bft) S-SW 202 1 min 4,7 UV-I 431 W/m 15,7 C 22,8 C 19,3 km/h (3 Bft)
19.05.2022 13:47 24,5 C 28,3 C 58 % 1018,8 hPa 0,0 l/m 14,5 km/h (3 Bft) S 180 1 min 6,5 UV-I 431 W/m 15,7 C 22,8 C 25,7 km/h (4 Bft)
19.05.2022 13:48 24,6 C 29,4 C 60 % 1018,8 hPa 0,0 l/m 8,0 km/h (2 Bft) S 180 1 min 6,5 UV-I 904 W/m 16,3 C 24,2 C 11,3 km/h (2 Bft)
19.05.2022 13:49 24,8 C 30,0 C 59 % 1018,7 hPa 0,2 l/m 11,3 km/h (2 Bft) S-SW 202 1 min 6,3 UV-I 889 W/m 16,2 C 23,7 C 22,5 km/h (4 Bft)
19.05.2022 13:50 24,9 C 30,0 C 59 % 1018,7 hPa 0,0 l/m 17,7 km/h (3 Bft) S 180 1 min 6,6 UV-I 889 W/m 16,3 C 22,8 C 29,0 km/h (5 Bft)
19.05.2022 13:51 25,0 C 30,6 C 59 % 1018,7 hPa 0,0 l/m 12,9 km/h (3 Bft) S-SO 157 1 min 6,7 UV-I 954 W/m 16,4 C 23,6 C 17,7 km/h (3 Bft)
19.05.2022 13:52 25,1 C 30,6 C 58 % 1018,6 hPa 0,0 l/m 17,7 km/h (3 Bft) SO 135 1 min 6,2 UV-I 954 W/m 16,2 C 23,1 C 29,0 km/h (5 Bft)
19.05.2022 13:53 25,1 C 30,6 C 56 % 1018,6 hPa 0,0 l/m 16,1 km/h (3 Bft) S-SO 157 1 min 5,8 UV-I 796 W/m 15,7 C 23,3 C 20,9 km/h (4 Bft)
19.05.2022 13:54 25,0 C 30,0 C 56 % 1018,6 hPa 0,0 l/m 12,9 km/h (3 Bft) S-SO 157 1 min 6,3 UV-I 814 W/m 15,6 C 23,6 C 19,3 km/h (3 Bft)
19.05.2022 13:55 24,9 C 30,0 C 56 % 1018,6 hPa 0,0 l/m 12,9 km/h (3 Bft) S-SO 157 1 min 6,1 UV-I 875 W/m 15,5 C 23,5 C 17,7 km/h (3 Bft)
19.05.2022 13:56 24,9 C 30,0 C 58 % 1018,4 hPa 0,0 l/m 9,7 km/h (2 Bft) S-SO 157 1 min 5,7 UV-I 875 W/m 16,1 C 24,1 C 14,5 km/h (3 Bft)
19.05.2022 13:57 24,9 C 30,0 C 57 % 1018,4 hPa 0,0 l/m 12,9 km/h (3 Bft) S-SO 157 1 min 5,7 UV-I 759 W/m 15,8 C 23,5 C 14,5 km/h (3 Bft)
19.05.2022 13:58 24,9 C 30,0 C 57 % 1018,4 hPa 0,0 l/m 11,3 km/h (2 Bft) S-SO 157 1 min 5,2 UV-I 759 W/m 15,8 C 23,8 C 16,1 km/h (3 Bft)
19.05.2022 13:59 24,9 C 30,0 C 57 % 1018,3 hPa 0,0 l/m 12,9 km/h (3 Bft) S 180 1 min 6,0 UV-I 759 W/m 15,8 C 23,5 C 19,3 km/h (3 Bft)
19.05.2022 14:00 25,1 C 30,0 C 59 % 1018,3 hPa 0,0 l/m 12,9 km/h (3 Bft) S-SO 157 1 min 6,3 UV-I 864 W/m 16,5 C 23,8 C 20,9 km/h (4 Bft)
19.05.2022 14:01 25,2 C 30,6 C 58 % 1018,3 hPa 0,0 l/m 14,5 km/h (3 Bft) S 180 1 min 6,4 UV-I 872 W/m 16,3 C 23,6 C 22,5 km/h (4 Bft)
19.05.2022 14:02 25,2 C 31,1 C 58 % 1018,3 hPa 0,0 l/m 16,1 km/h (3 Bft) S-SO 157 1 min 6,5 UV-I 896 W/m 16,3 C 23,4 C 22,5 km/h (4 Bft)
19.05.2022 14:03 25,2 C 31,1 C 57 % 1018,1 hPa 0,0 l/m 11,3 km/h (2 Bft) S-SO 157 1 min 6,5 UV-I 896 W/m 16,1 C 24,1 C 20,9 km/h (4 Bft)
19.05.2022 14:04 25,3 C 31,1 C 58 % 1018,2 hPa 0,0 l/m 8,0 km/h (2 Bft) SO 135 1 min 6,3 UV-I 974 W/m 16,4 C 24,9 C 12,9 km/h (3 Bft)
19.05.2022 14:05 25,5 C 31,1 C 58 % 1018,2 hPa 0,0 l/m 9,7 km/h (2 Bft) S-SO 157 1 min 5,6 UV-I 701 W/m 16,6 C 24,8 C 17,7 km/h (3 Bft)
19.05.2022 14:06 25,5 C 31,1 C 57 % 1018,2 hPa 0,0 l/m 14,5 km/h (3 Bft) S-SO 157 1 min 4,9 UV-I 701 W/m 16,3 C 24,0 C 19,3 km/h (3 Bft)
19.05.2022 14:07 25,4 C 29,4 C 57 % 1018,2 hPa 0,0 l/m 16,1 km/h (3 Bft) O-SO 112 1 min 4,1 UV-I 496 W/m 16,2 C 23,6 C 25,7 km/h (4 Bft)
19.05.2022 14:08 25,2 C 28,3 C 57 % 1018,2 hPa 0,0 l/m 16,1 km/h (3 Bft) O-SO 112 1 min 3,3 UV-I 496 W/m 16,1 C 23,4 C 20,9 km/h (4 Bft)
19.05.2022 14:09 25,1 C 27,8 C 57 % 1018,2 hPa 0,0 l/m 16,1 km/h (3 Bft) SO 135 1 min 3,7 UV-I 496 W/m 16,0 C 23,3 C 22,5 km/h (4 Bft)
19.05.2022 14:10 24,9 C 27,2 C 57 % 1018,2 hPa 0,0 l/m 17,7 km/h (3 Bft) O-SO 112 1 min 3,8 UV-I 438 W/m 15,8 C 22,8 C 22,5 km/h (4 Bft)
19.05.2022 14:11 24,9 C 27,2 C 58 % 1018,2 hPa 0,0 l/m 12,9 km/h (3 Bft) S-SO 157 1 min 4,3 UV-I 438 W/m 16,1 C 23,5 C 17,7 km/h (3 Bft)
19.05.2022 14:12 24,8 C 26,7 C 58 % 1018,3 hPa 0,0 l/m 16,1 km/h (3 Bft) S-SO 157 1 min 3,7 UV-I 383 W/m 16,0 C 22,9 C 22,5 km/h (4 Bft)
19.05.2022 14:13 24,8 C 26,7 C 58 % 1018,3 hPa 0,0 l/m 14,5 km/h (3 Bft) S-SO 157 0 min 3,3 UV-I 313 W/m 16,0 C 23,1 C 22,5 km/h (4 Bft)
19.05.2022 14:14 24,8 C 26,7 C 58 % 1018,2 hPa 0,0 l/m 12,9 km/h (3 Bft) S 180 0 min 5,7 UV-I 313 W/m 16,0 C 23,4 C 17,7 km/h (3 Bft)
19.05.2022 14:15 24,8 C 27,2 C 59 % 1018,3 hPa 0,0 l/m 11,3 km/h (2 Bft) SO 135 0 min 6,4 UV-I 313 W/m 16,2 C 23,7 C 14,5 km/h (3 Bft)
19.05.2022 14:16 25,1 C 28,3 C 59 % 1018,3 hPa 0,0 l/m 6,4 km/h (2 Bft) S 180 1 min 6,3 UV-I 849 W/m 16,5 C 25,1 C 9,7 km/h (2 Bft)
19.05.2022 14:17 25,3 C 29,4 C 58 % 1018,2 hPa 0,0 l/m 6,4 km/h (2 Bft) SO 135 1 min 6,7 UV-I 958 W/m 16,4 C 25,3 C 12,9 km/h (3 Bft)
19.05.2022 14:18 25,5 C 30,6 C 59 % 1018,1 hPa 0,0 l/m 4,8 km/h (1 Bft) SO 135 1 min 6,7 UV-I 944 W/m 16,9 C 25,5 C 8,0 km/h (2 Bft)
19.05.2022 14:19 25,9 C 31,7 C 59 % 1018,1 hPa 0,0 l/m 11,3 km/h (2 Bft) S 180 1 min 6,6 UV-I 928 W/m 17,3 C 24,9 C 16,1 km/h (3 Bft)
19.05.2022 14:20 26,0 C 32,2 C 56 % 1018,0 hPa 0,0 l/m 8,0 km/h (2 Bft) S 180 1 min 6,6 UV-I 919 W/m 16,5 C 25,7 C 14,5 km/h (3 Bft)
19.05.2022 14:21 26,1 C 32,2 C 56 % 1018,2 hPa 0,0 l/m 12,9 km/h (3 Bft) S-SO 157 1 min 6,6 UV-I 919 W/m 16,6 C 24,9 C 24,1 km/h (4 Bft)
19.05.2022 14:22 26,2 C 32,2 C 54 % 1018,1 hPa 0,0 l/m 19,3 km/h (3 Bft) S-SO 157 1 min 6,5 UV-I 912 W/m 16,1 C 24,3 C 30,6 km/h (5 Bft)
19.05.2022 14:23 26,2 C 31,7 C 55 % 1018,1 hPa 0,0 l/m 17,7 km/h (3 Bft) S-SO 157 1 min 6,5 UV-I 906 W/m 16,4 C 24,4 C 25,7 km/h (4 Bft)
19.05.2022 14:24 26,2 C 31,7 C 55 % 1018,2 hPa 0,0 l/m 12,9 km/h (3 Bft) S-SO 157 1 min 6,5 UV-I 905 W/m 16,4 C 25,0 C 17,7 km/h (3 Bft)
19.05.2022 14:25 26,3 C 31,7 C 55 % 1018,1 hPa 0,0 l/m 20,9 km/h (4 Bft) S-SO 157 1 min 6,5 UV-I 902 W/m 16,5 C 24,3 C 25,7 km/h (4 Bft)
19.05.2022 14:26 26,1 C 31,1 C 53 % 1018,1 hPa 0,0 l/m 17,7 km/h (3 Bft) S-SO 157 1 min 6,5 UV-I 905 W/m 15,8 C 24,3 C 24,1 km/h (4 Bft)
19.05.2022 14:27 26,1 C 31,1 C 56 % 1018,2 hPa 0,0 l/m 16,1 km/h (3 Bft) SO 135 1 min 6,4 UV-I 905 W/m 16,6 C 24,5 C 19,3 km/h (3 Bft)
19.05.2022 14:28 26,2 C 31,1 C 54 % 1018,3 hPa 0,0 l/m 14,5 km/h (3 Bft) S-SO 157 1 min 6,4 UV-I 902 W/m 16,1 C 24,8 C 25,7 km/h (4 Bft)
19.05.2022 14:29 26,1 C 31,1 C 54 % 1018,3 hPa 0,0 l/m 20,9 km/h (4 Bft) S-SO 157 1 min 6,0 UV-I 901 W/m 16,0 C 24,0 C 35,4 km/h (5 Bft)
19.05.2022 14:30 26,1 C 31,1 C 53 % 1018,2 hPa 0,0 l/m 19,3 km/h (3 Bft) S 180 1 min 6,4 UV-I 909 W/m 15,8 C 24,2 C 32,2 km/h (5 Bft)
19.05.2022 14:31 26,0 C 31,1 C 54 % 1018,2 hPa 0,0 l/m 24,1 km/h (4 Bft) S-SO 157 1 min 6,3 UV-I 882 W/m 16,0 C 23,6 C 33,8 km/h (5 Bft)
19.05.2022 14:32 25,9 C 30,6 C 55 % 1018,2 hPa 0,0 l/m 22,5 km/h (4 Bft) SO 135 1 min 6,2 UV-I 886 W/m 16,2 C 23,6 C 29,0 km/h (5 Bft)
19.05.2022 14:33 25,9 C 30,6 C 54 % 1018,0 hPa 0,0 l/m 22,5 km/h (4 Bft) S-SO 157 1 min 6,1 UV-I 846 W/m 15,9 C 23,6 C 32,2 km/h (5 Bft)
19.05.2022 14:34 25,9 C 30,6 C 54 % 1018,1 hPa 0,0 l/m 16,1 km/h (3 Bft) S-SO 157 1 min 5,8 UV-I 884 W/m 15,9 C 24,3 C 24,1 km/h (4 Bft)
19.05.2022 14:35 25,9 C 30,6 C 55 % 1018,0 hPa 0,0 l/m 19,3 km/h (3 Bft) SO 135 1 min 5,8 UV-I 779 W/m 16,2 C 23,9 C 22,5 km/h (4 Bft)
19.05.2022 14:36 26,1 C 30,6 C 54 % 1018,1 hPa 0,0 l/m 16,1 km/h (3 Bft) S-SO 157 1 min 5,3 UV-I 693 W/m 16,0 C 24,5 C 20,9 km/h (4 Bft)
19.05.2022 14:37 26,1 C 30,6 C 54 % 1018,0 hPa 0,0 l/m 12,9 km/h (3 Bft) S-SO 157 1 min 5,1 UV-I 664 W/m 16,0 C 24,9 C 17,7 km/h (3 Bft)
19.05.2022 14:38 26,1 C 30,6 C 56 % 1018,0 hPa 0,0 l/m 14,5 km/h (3 Bft) SO 135 1 min 5,2 UV-I 701 W/m 16,6 C 24,7 C 22,5 km/h (4 Bft)
19.05.2022 14:39 26,2 C 30,6 C 55 % 1017,9 hPa 0,0 l/m 14,5 km/h (3 Bft) SO 135 1 min 5,8 UV-I 738 W/m 16,4 C 24,8 C 20,9 km/h (4 Bft)
19.05.2022 14:40 26,2 C 31,1 C 56 % 1017,9 hPa 0,0 l/m 20,9 km/h (4 Bft) S 180 1 min 5,8 UV-I 830 W/m 16,7 C 24,1 C 33,8 km/h (5 Bft)
19.05.2022 14:41 26,3 C 31,1 C 55 % 1017,9 hPa 0,0 l/m 16,1 km/h (3 Bft) S 180 1 min 5,7 UV-I 818 W/m 16,5 C 24,8 C 24,1 km/h (4 Bft)
19.05.2022 14:42 26,3 C 31,1 C 54 % 1017,9 hPa 0,0 l/m 17,7 km/h (3 Bft) SO 135 1 min 6,0 UV-I 846 W/m 16,2 C 24,6 C 25,7 km/h (4 Bft)
19.05.2022 14:43 26,3 C 31,1 C 54 % 1017,9 hPa 0,0 l/m 17,7 km/h (3 Bft) S-SO 157 1 min 6,0 UV-I 877 W/m 16,2 C 24,6 C 24,1 km/h (4 Bft)
19.05.2022 14:44 26,3 C 31,1 C 53 % 1017,8 hPa 0,0 l/m 24,1 km/h (4 Bft) S-SO 157 1 min 5,9 UV-I 877 W/m 15,9 C 24,0 C 35,4 km/h (5 Bft)
19.05.2022 14:45 26,3 C 30,6 C 54 % 1017,9 hPa 0,0 l/m 17,7 km/h (3 Bft) S 180 1 min 4,6 UV-I 780 W/m 16,2 C 24,6 C 25,7 km/h (4 Bft)
19.05.2022 14:46 26,3 C 30,6 C 54 % 1017,9 hPa 0,0 l/m 12,9 km/h (3 Bft) S-SO 157 1 min 5,8 UV-I 856 W/m 16,2 C 25,2 C 25,7 km/h (4 Bft)
19.05.2022 14:47 26,4 C 31,1 C 55 % 1017,9 hPa 0,0 l/m 17,7 km/h (3 Bft) S-SO 157 1 min 5,9 UV-I 888 W/m 16,6 C 24,7 C 29,0 km/h (5 Bft)
19.05.2022 14:48 26,4 C 30,6 C 54 % 1017,8 hPa 0,0 l/m 19,3 km/h (3 Bft) S-SO 157 1 min 6,0 UV-I 888 W/m 16,3 C 24,5 C 24,1 km/h (4 Bft)
19.05.2022 14:49 26,4 C 31,1 C 54 % 1017,8 hPa 0,0 l/m 12,9 km/h (3 Bft) S 180 1 min 6,4 UV-I 888 W/m 16,3 C 25,3 C 22,5 km/h (4 Bft)
19.05.2022 14:50 26,6 C 31,7 C 55 % 1017,7 hPa 0,0 l/m 11,3 km/h (2 Bft) S 180 1 min 5,1 UV-I 888 W/m 16,8 C 25,7 C 17,7 km/h (3 Bft)
19.05.2022 14:51 26,7 C 31,7 C 55 % 1017,7 hPa 0,0 l/m 16,1 km/h (3 Bft) S 180 1 min 5,8 UV-I 888 W/m 16,9 C 25,2 C 27,4 km/h (4 Bft)
19.05.2022 14:52 26,7 C 31,7 C 54 % 1017,9 hPa 0,0 l/m 19,3 km/h (3 Bft) S-SO 157 1 min 5,6 UV-I 831 W/m 16,6 C 24,9 C 32,2 km/h (5 Bft)
19.05.2022 14:53 26,6 C 30,6 C 54 % 1017,7 hPa 0,0 l/m 17,7 km/h (3 Bft) S-SW 202 1 min 4,0 UV-I 831 W/m 16,5 C 25,0 C 25,7 km/h (4 Bft)
19.05.2022 14:54 26,4 C 30,6 C 55 % 1017,7 hPa 0,0 l/m 19,3 km/h (3 Bft) SO 135 1 min 5,4 UV-I 831 W/m 16,6 C 24,5 C 27,4 km/h (4 Bft)
19.05.2022 14:55 26,4 C 30,6 C 54 % 1017,8 hPa 0,0 l/m 20,9 km/h (4 Bft) S-SO 157 1 min 5,2 UV-I 788 W/m 16,3 C 24,4 C 27,4 km/h (4 Bft)
19.05.2022 14:56 26,3 C 30,6 C 54 % 1017,7 hPa 0,0 l/m 19,3 km/h (3 Bft) SO 135 1 min 3,2 UV-I 788 W/m 16,2 C 24,4 C 29,0 km/h (5 Bft)
19.05.2022 14:57 26,2 C 29,4 C 54 % 1017,6 hPa 0,0 l/m 20,9 km/h (4 Bft) SO 135 0 min 5,2 UV-I 292 W/m 16,1 C 24,1 C 30,6 km/h (5 Bft)
19.05.2022 14:58 26,1 C 28,9 C 53 % 1017,7 hPa 0,0 l/m 19,3 km/h (3 Bft) S 180 1 min 5,7 UV-I 902 W/m 15,8 C 24,2 C 27,4 km/h (4 Bft)
19.05.2022 14:59 26,1 C 30,0 C 54 % 1017,7 hPa 0,0 l/m 17,7 km/h (3 Bft) S-SO 157 1 min 3,3 UV-I 902 W/m 16,0 C 24,3 C 24,1 km/h (4 Bft)
19.05.2022 15:00 26,1 C 29,4 C 54 % 1017,7 hPa 0,0 l/m 11,3 km/h (2 Bft) S-SO 157 0 min 2,6 UV-I 211 W/m 16,0 C 25,2 C 14,5 km/h (3 Bft)
19.05.2022 15:01 25,9 C 28,9 C 54 % 1017,7 hPa 0,0 l/m 14,5 km/h (3 Bft) S 180 0 min 2,6 UV-I 216 W/m 15,9 C 24,5 C 22,5 km/h (4 Bft)
19.05.2022 15:02 25,9 C 27,8 C 55 % 1017,8 hPa 0,0 l/m 17,7 km/h (3 Bft) SO 135 0 min 5,5 UV-I 216 W/m 16,2 C 24,1 C 32,2 km/h (5 Bft)
19.05.2022 15:03 25,9 C 28,3 C 55 % 1017,8 hPa 0,0 l/m 12,9 km/h (3 Bft) SO 135 0 min 5,8 UV-I 216 W/m 16,2 C 24,7 C 16,1 km/h (3 Bft)
19.05.2022 15:04 26,1 C 30,0 C 56 % 1017,8 hPa 0,0 l/m 11,3 km/h (2 Bft) SO 135 1 min 5,9 UV-I 1021 W/m 16,6 C 25,2 C 17,7 km/h (3 Bft)
19.05.2022 15:05 26,2 C 30,0 C 55 % 1017,8 hPa 0,0 l/m 11,3 km/h (2 Bft) SO 135 0 min 3,3 UV-I 325 W/m 16,4 C 25,3 C 17,7 km/h (3 Bft)
19.05.2022 15:06 26,2 C 29,4 C 56 % 1017,8 hPa 0,0 l/m 16,1 km/h (3 Bft) S-SO 157 0 min 3,1 UV-I 323 W/m 16,7 C 24,6 C 20,9 km/h (4 Bft)
19.05.2022 15:07 26,2 C 28,9 C 55 % 1017,9 hPa 0,0 l/m 14,5 km/h (3 Bft) S-SO 157 0 min 6,0 UV-I 323 W/m 16,4 C 24,8 C 27,4 km/h (4 Bft)
19.05.2022 15:08 26,2 C 28,9 C 54 % 1017,9 hPa 0,0 l/m 19,3 km/h (3 Bft) S-SO 157 0 min 3,3 UV-I 323 W/m 16,1 C 24,3 C 27,4 km/h (4 Bft)
19.05.2022 15:09 26,1 C 28,3 C 55 % 1018,0 hPa 0,0 l/m 14,5 km/h (3 Bft) S 180 1 min 4,0 UV-I 445 W/m 16,3 C 24,7 C 20,9 km/h (4 Bft)
19.05.2022 15:10 26,1 C 27,8 C 55 % 1018,0 hPa 0,0 l/m 14,5 km/h (3 Bft) S-SW 202 0 min 2,9 UV-I 283 W/m 16,3 C 24,7 C 20,9 km/h (4 Bft)
19.05.2022 15:11 26,1 C 27,8 C 55 % 1018,0 hPa 0,0 l/m 16,1 km/h (3 Bft) S-SO 157 0 min 2,8 UV-I 322 W/m 16,3 C 24,5 C 22,5 km/h (4 Bft)
19.05.2022 15:12 25,9 C 27,8 C 55 % 1018,0 hPa 0,0 l/m 14,5 km/h (3 Bft) S-SO 157 0 min 5,2 UV-I 322 W/m 16,2 C 24,5 C 20,9 km/h (4 Bft)
19.05.2022 15:13 25,9 C 28,9 C 56 % 1018,0 hPa 0,0 l/m 12,9 km/h (3 Bft) S-SO 157 1 min 5,1 UV-I 972 W/m 16,4 C 24,7 C 19,3 km/h (3 Bft)
19.05.2022 15:14 26,1 C 29,4 C 57 % 1018,1 hPa 0,0 l/m 17,7 km/h (3 Bft) S 180 1 min 3,1 UV-I 972 W/m 16,9 C 24,3 C 29,0 km/h (5 Bft)
19.05.2022 15:15 26,2 C 28,3 C 55 % 1018,1 hPa 0,0 l/m 22,5 km/h (4 Bft) S-SO 157 1 min 2,1 UV-I 972 W/m 16,4 C 24,0 C 37,0 km/h (5 Bft)
19.05.2022 15:16 26,1 C 27,8 C 55 % 1017,9 hPa 0,0 l/m 14,5 km/h (3 Bft) S 180 0 min 1,9 UV-I 206 W/m 16,3 C 24,7 C 20,9 km/h (4 Bft)
19.05.2022 15:17 26,1 C 27,8 C 55 % 1018,0 hPa 0,0 l/m 16,1 km/h (3 Bft) S-SO 157 0 min 1,6 UV-I 185 W/m 16,3 C 24,5 C 20,9 km/h (4 Bft)
19.05.2022 15:18 25,9 C 27,2 C 55 % 1017,9 hPa 0,0 l/m 16,1 km/h (3 Bft) S 180 0 min 1,2 UV-I 155 W/m 16,2 C 24,3 C 27,4 km/h (4 Bft)
19.05.2022 15:19 25,8 C 26,7 C 55 % 1017,9 hPa 0,0 l/m 14,5 km/h (3 Bft) S 180 0 min 1,1 UV-I 130 W/m 16,1 C 24,3 C 17,7 km/h (3 Bft)
19.05.2022 15:20 25,7 C 26,1 C 55 % 1018,0 hPa 0,0 l/m 20,9 km/h (4 Bft) S 180 0 min 1,0 UV-I 120 W/m 16,0 C 23,5 C 30,6 km/h (5 Bft)
19.05.2022 15:21 25,6 C 25,6 C 56 % 1017,9 hPa 0,0 l/m 19,3 km/h (3 Bft) S-SO 157 0 min 0,9 UV-I 100 W/m 16,2 C 23,5 C 27,4 km/h (4 Bft)
19.05.2022 15:22 25,4 C 25,6 C 56 % 1017,9 hPa 0,0 l/m 17,7 km/h (3 Bft) S-SW 202 0 min 0,9 UV-I 81 W/m 16,0 C 23,4 C 22,5 km/h (4 Bft)
19.05.2022 15:23 25,4 C 25,0 C 57 % 1017,9 hPa 0,0 l/m 12,9 km/h (3 Bft) S-SO 157 0 min 0,8 UV-I 76 W/m 16,2 C 24,1 C 19,3 km/h (3 Bft)
19.05.2022 15:24 25,2 C 25,0 C 57 % 1017,8 hPa 0,0 l/m 9,7 km/h (2 Bft) S-SO 157 0 min 0,7 UV-I 65 W/m 16,1 C 24,4 C 16,1 km/h (3 Bft)
19.05.2022 15:25 25,2 C 25,0 C 58 % 1017,8 hPa 0,0 l/m 14,5 km/h (3 Bft) SO 135 0 min 0,6 UV-I 58 W/m 16,3 C 23,6 C 24,1 km/h (4 Bft)
19.05.2022 15:26 25,1 C 24,4 C 58 % 1017,7 hPa 0,0 l/m 11,3 km/h (2 Bft) SO 135 0 min 0,0 UV-I 49 W/m 16,2 C 24,0 C 16,1 km/h (3 Bft)
19.05.2022 15:27 25,1 C 24,4 C 58 % 1018,0 hPa 0,0 l/m 11,3 km/h (2 Bft) S 180 0 min 0,0 UV-I 42 W/m 16,2 C 24,0 C 14,5 km/h (3 Bft)
19.05.2022 15:28 25,1 C 24,4 C 58 % 1018,0 hPa 0,0 l/m 12,9 km/h (3 Bft) S 180 0 min 0,0 UV-I 39 W/m 16,2 C 23,8 C 19,3 km/h (3 Bft)
19.05.2022 15:29 24,9 C 24,4 C 58 % 1018,0 hPa 0,0 l/m 22,5 km/h (4 Bft) S-SW 202 0 min 0,0 UV-I 39 W/m 16,1 C 22,3 C 33,8 km/h (5 Bft)
19.05.2022 15:30 24,9 C 23,9 C 58 % 1018,1 hPa 0,0 l/m 17,7 km/h (3 Bft) S 180 0 min 0,0 UV-I 40 W/m 16,1 C 22,8 C 33,8 km/h (5 Bft)
19.05.2022 15:31 24,8 C 23,9 C 59 % 1018,0 hPa 0,0 l/m 12,9 km/h (3 Bft) SW 225 0 min 0,0 UV-I 49 W/m 16,2 C 23,4 C 17,7 km/h (3 Bft)
19.05.2022 15:32 24,7 C 23,9 C 59 % 1018,2 hPa 0,0 l/m 11,3 km/h (2 Bft) W-SW 247 0 min 0,0 UV-I 56 W/m 16,1 C 23,6 C 22,5 km/h (4 Bft)
19.05.2022 15:33 24,7 C 23,9 C 60 % 1018,3 hPa 0,0 l/m 20,9 km/h (4 Bft) W-SW 247 0 min 0,0 UV-I 53 W/m 16,4 C 22,2 C 29,0 km/h (5 Bft)
19.05.2022 15:34 24,5 C 23,3 C 60 % 1018,6 hPa 0,0 l/m 16,1 km/h (3 Bft) W 270 0 min 0,0 UV-I 37 W/m 16,2 C 22,5 C 27,4 km/h (4 Bft)
19.05.2022 15:35 24,1 C 22,8 C 60 % 1018,6 hPa 0,0 l/m 16,1 km/h (3 Bft) W 270 0 min 0,0 UV-I 28 W/m 15,8 C 22,0 C 20,9 km/h (4 Bft)
19.05.2022 15:36 23,3 C 21,7 C 62 % 1018,7 hPa 0,0 l/m 9,7 km/h (2 Bft) W-NW 292 0 min 0,0 UV-I 21 W/m 15,6 C 22,4 C 24,1 km/h (4 Bft)
19.05.2022 15:37 22,6 C 21,1 C 64 % 1018,8 hPa 0,0 l/m 8,0 km/h (2 Bft) W-SW 247 0 min 0,0 UV-I 14 W/m 15,4 C 22,1 C 14,5 km/h (3 Bft)
19.05.2022 15:38 22,0 C 21,1 C 66 % 1018,8 hPa 0,0 l/m 11,3 km/h (2 Bft) W 270 0 min 0,0 UV-I 11 W/m 15,3 C 20,5 C 16,1 km/h (3 Bft)
19.05.2022 15:39 21,6 C 20,6 C 67 % 1019,1 hPa 0,0 l/m 17,7 km/h (3 Bft) W 270 0 min 0,0 UV-I 5 W/m 15,2 C 18,7 C 29,0 km/h (5 Bft)
19.05.2022 15:40 21,2 C 20,0 C 68 % 1019,3 hPa 0,0 l/m 14,5 km/h (3 Bft) SW 225 0 min 0,0 UV-I 0 W/m 15,1 C 18,8 C 27,4 km/h (4 Bft)
19.05.2022 15:41 20,8 C 20,0 C 69 % 1019,6 hPa 0,0 l/m 24,1 km/h (4 Bft) W 270 0 min 0,0 UV-I 0 W/m 14,9 C 16,6 C 32,2 km/h (5 Bft)
19.05.2022 15:42 20,6 C 19,4 C 70 % 1019,7 hPa 0,0 l/m 25,7 km/h (4 Bft) W 270 0 min 0,0 UV-I 0 W/m 14,9 C 16,1 C 43,5 km/h (6 Bft)
19.05.2022 15:43 20,3 C 19,4 C 72 % 1019,8 hPa 0,0 l/m 20,9 km/h (4 Bft) W-SW 247 0 min 0,0 UV-I 0 W/m 15,1 C 16,4 C 41,8 km/h (6 Bft)
19.05.2022 15:44 20,1 C 18,9 C 72 % 1019,9 hPa 0,0 l/m 27,4 km/h (4 Bft) W 270 0 min 0,0 UV-I 0 W/m 14,9 C 15,2 C 48,3 km/h (6 Bft)
19.05.2022 15:45 19,9 C 18,3 C 73 % 1019,8 hPa 0,2 l/m 30,6 km/h (5 Bft) W 270 0 min 0,0 UV-I 0 W/m 14,9 C 14,5 C 41,8 km/h (6 Bft)
19.05.2022 15:46 19,6 C 16,7 C 74 % 1019,9 hPa 0,8 l/m 25,7 km/h (4 Bft) W 270 0 min 0,0 UV-I 0 W/m 14,8 C 14,7 C 48,3 km/h (6 Bft)
19.05.2022 15:47 19,3 C 15,6 C 74 % 1019,8 hPa 1,0 l/m 19,3 km/h (3 Bft) W-SW 247 0 min 0,0 UV-I 0 W/m 14,5 C 15,4 C 29,0 km/h (5 Bft)
19.05.2022 15:48 18,8 C 15,6 C 75 % 1019,8 hPa 0,2 l/m 12,9 km/h (3 Bft) W 270 0 min 0,0 UV-I 0 W/m 14,3 C 16,4 C 20,9 km/h (4 Bft)
19.05.2022 15:49 18,4 C 15,6 C 77 % 1020,0 hPa 0,4 l/m 14,5 km/h (3 Bft) SW 225 0 min 0,0 UV-I 0 W/m 14,3 C 15,4 C 30,6 km/h (5 Bft)
19.05.2022 15:50 18,1 C 15,0 C 78 % 1020,1 hPa 0,6 l/m 11,3 km/h (2 Bft) S-SW 202 0 min 0,0 UV-I 0 W/m 14,2 C 16,1 C 24,1 km/h (4 Bft)
19.05.2022 15:51 17,8 C 15,0 C 78 % 1020,3 hPa 0,6 l/m 9,7 km/h (2 Bft) SW 225 0 min 0,0 UV-I 0 W/m 13,9 C 16,3 C 16,1 km/h (3 Bft)
19.05.2022 15:52 17,4 C 15,0 C 79 % 1020,3 hPa 0,4 l/m 8,0 km/h (2 Bft) S 180 0 min 0,0 UV-I 0 W/m 13,7 C 16,6 C 14,5 km/h (3 Bft)
19.05.2022 15:53 17,2 C 15,0 C 79 % 1020,4 hPa 0,6 l/m 6,4 km/h (2 Bft) S-SO 157 0 min 0,0 UV-I 0 W/m 13,5 C 17,2 C 14,5 km/h (3 Bft)
19.05.2022 15:56 16,7 C 15,0 C 82 % 1020,3 hPa 1,4 l/m 4,4 km/h (1 Bft) SO 146 0 min 0,0 UV-I 0 W/m 13,6 C 16,7 C 9,7 km/h (2 Bft)
19.05.2022 15:58 16,5 C 15,0 C 83 % 1020,3 hPa 0,0 l/m 3,5 km/h (1 Bft) S-SO 147 0 min 0,0 UV-I 0 W/m 13,6 C 16,5 C 6,4 km/h (2 Bft)
19.05.2022 16:00 16,3 C 15,0 C 84 % 1020,2 hPa 0,0 l/m 4,2 km/h (1 Bft) SO 146 0 min 0,0 UV-I 0 W/m 13,6 C 16,3 C 6,4 km/h (2 Bft)
19.05.2022 16:02 16,3 C 15,0 C 84 % 1020,2 hPa 0,0 l/m 4,6 km/h (1 Bft) SO 138 0 min 0,0 UV-I 0 W/m 13,6 C 16,3 C 8,0 km/h (2 Bft)
19.05.2022 16:04 16,2 C 15,0 C 85 % 1020,4 hPa 0,2 l/m 3,1 km/h (1 Bft) SO 138 0 min 0,0 UV-I 0 W/m 13,7 C 16,2 C 6,4 km/h (2 Bft)
19.05.2022 16:06 16,2 C 15,0 C 86 % 1020,3 hPa 0,2 l/m 6,7 km/h (2 Bft) O-SO 113 0 min 0,0 UV-I 0 W/m 13,9 C 16,1 C 12,9 km/h (3 Bft)
19.05.2022 16:08 16,1 C 15,0 C 86 % 1020,2 hPa 0,2 l/m 3,5 km/h (1 Bft) O-SO 115 0 min 0,0 UV-I 4 W/m 13,8 C 16,1 C 6,4 km/h (2 Bft)
19.05.2022 16:10 16,0 C 15,0 C 86 % 1020,3 hPa 0,2 l/m 2,5 km/h (1 Bft) O-SO 122 0 min 0,0 UV-I 5 W/m 13,7 C 16,0 C 6,4 km/h (2 Bft)
19.05.2022 16:12 15,9 C 15,0 C 87 % 1019,8 hPa 0,0 l/m 3,0 km/h (1 Bft) O-SO 122 0 min 0,0 UV-I 6 W/m 13,7 C 15,9 C 4,8 km/h (1 Bft)
19.05.2022 16:14 15,9 C 15,0 C 87 % 1020,1 hPa 0,0 l/m 3,1 km/h (1 Bft) SO 126 0 min 0,0 UV-I 7 W/m 13,7 C 15,9 C 6,4 km/h (2 Bft)
19.05.2022 16:16 15,8 C 15,0 C 87 % 1020,0 hPa 0,0 l/m 4,3 km/h (1 Bft) SO 140 0 min 0,0 UV-I 9 W/m 13,6 C 15,8 C 6,4 km/h (2 Bft)
19.05.2022 16:18 15,8 C 15,0 C 87 % 1020,2 hPa 0,0 l/m 4,6 km/h (1 Bft) SO 142 0 min 0,0 UV-I 12 W/m 13,6 C 15,8 C 6,4 km/h (2 Bft)
19.05.2022 16:20 15,8 C 15,0 C 88 % 1020,0 hPa 0,2 l/m 4,1 km/h (1 Bft) SO 146 0 min 0,0 UV-I 15 W/m 13,8 C 15,8 C 6,4 km/h (2 Bft)
19.05.2022 16:22 15,7 C 15,0 C 88 % 1020,0 hPa 0,0 l/m 3,5 km/h (1 Bft) S-SO 148 0 min 0,0 UV-I 19 W/m 13,7 C 15,7 C 4,8 km/h (1 Bft)
19.05.2022 16:24 15,6 C 14,4 C 88 % 1019,8 hPa 0,0 l/m 6,0 km/h (2 Bft) W-SW 249 0 min 0,0 UV-I 22 W/m 13,6 C 15,6 C 8,0 km/h (2 Bft)
19.05.2022 16:26 15,6 C 15,0 C 88 % 1019,8 hPa 0,0 l/m 8,2 km/h (2 Bft) W 266 0 min 0,0 UV-I 25 W/m 13,6 C 14,6 C 11,3 km/h (2 Bft)
19.05.2022 16:28 15,6 C 15,0 C 88 % 1019,8 hPa 0,0 l/m 10,4 km/h (2 Bft) W-SW 257 0 min 0,0 UV-I 30 W/m 13,6 C 13,6 C 14,5 km/h (3 Bft)
19.05.2022 16:30 15,6 C 15,0 C 88 % 1019,8 hPa 0,0 l/m 9,9 km/h (2 Bft) W 266 0 min 0,0 UV-I 33 W/m 13,6 C 13,8 C 14,5 km/h (3 Bft)
19.05.2022 16:32 15,7 C 15,0 C 89 % 1019,8 hPa 0,0 l/m 4,9 km/h (1 Bft) W 266 0 min 0,0 UV-I 39 W/m 13,9 C 15,7 C 6,4 km/h (2 Bft)
19.05.2022 16:34 15,8 C 15,0 C 89 % 1019,9 hPa 0,0 l/m 3,9 km/h (1 Bft) W 266 0 min 0,0 UV-I 46 W/m 14,0 C 15,8 C 6,4 km/h (2 Bft)
19.05.2022 16:36 15,8 C 15,0 C 89 % 1019,9 hPa 0,0 l/m 5,0 km/h (1 Bft) W 268 0 min 0,0 UV-I 53 W/m 14,0 C 15,8 C 6,4 km/h (2 Bft)
19.05.2022 16:38 15,8 C 15,0 C 89 % 1019,9 hPa 0,0 l/m 2,6 km/h (1 Bft) W 268 0 min 0,0 UV-I 61 W/m 14,0 C 15,8 C 4,8 km/h (1 Bft)
19.05.2022 16:40 15,9 C 15,0 C 89 % 1019,9 hPa 0,0 l/m 3,9 km/h (1 Bft) W 262 0 min 0,3 UV-I 71 W/m 14,1 C 15,9 C 9,7 km/h (2 Bft)
19.05.2022 16:42 15,8 C 15,6 C 89 % 1020,0 hPa 0,0 l/m 5,4 km/h (1 Bft) W 267 0 min 0,5 UV-I 85 W/m 14,0 C 15,8 C 6,4 km/h (2 Bft)
19.05.2022 16:44 15,9 C 15,6 C 89 % 1019,9 hPa 0,0 l/m 3,9 km/h (1 Bft) W 267 0 min 0,7 UV-I 107 W/m 14,1 C 15,9 C 6,4 km/h (2 Bft)
19.05.2022 16:46 16,0 C 16,1 C 89 % 1020,1 hPa 0,0 l/m 4,6 km/h (1 Bft) W 274 0 min 0,9 UV-I 137 W/m 14,2 C 16,0 C 6,4 km/h (2 Bft)
19.05.2022 16:48 16,2 C 16,1 C 90 % 1020,2 hPa 0,0 l/m 2,6 km/h (1 Bft) W 273 0 min 1,1 UV-I 163 W/m 14,6 C 16,2 C 4,8 km/h (1 Bft)
19.05.2022 16:50 16,2 C 16,1 C 89 % 1020,3 hPa 0,0 l/m 0,8 km/h (0 Bft) W 273 0 min 1,2 UV-I 182 W/m 14,4 C 16,2 C 1,6 km/h (1 Bft)
19.05.2022 16:52 16,3 C 16,7 C 89 % 1020,1 hPa 0,0 l/m 1,2 km/h (1 Bft) W 273 0 min 1,3 UV-I 188 W/m 14,5 C 16,3 C 3,2 km/h (1 Bft)
19.05.2022 16:54 16,4 C 16,7 C 89 % 1020,3 hPa 0,0 l/m 1,1 km/h (1 Bft) W 273 0 min 1,2 UV-I 180 W/m 14,6 C 16,4 C 3,2 km/h (1 Bft)
19.05.2022 16:56 16,4 C 16,7 C 89 % 1020,1 hPa 0,0 l/m 2,9 km/h (1 Bft) W-NW 282 0 min 1,2 UV-I 166 W/m 14,6 C 16,4 C 6,4 km/h (2 Bft)
19.05.2022 16:58 16,4 C 16,7 C 88 % 1020,1 hPa 0,0 l/m 2,4 km/h (1 Bft) W 281 0 min 1,0 UV-I 149 W/m 14,4 C 16,4 C 4,8 km/h (1 Bft)
19.05.2022 17:00 16,5 C 16,1 C 88 % 1020,1 hPa 0,0 l/m 4,0 km/h (1 Bft) W-NW 291 0 min 0,9 UV-I 133 W/m 14,5 C 16,5 C 8,0 km/h (2 Bft)
19.05.2022 17:02 16,4 C 16,1 C 88 % 1020,1 hPa 0,0 l/m 1,7 km/h (1 Bft) W-NW 291 0 min 0,8 UV-I 117 W/m 14,4 C 16,4 C 4,8 km/h (1 Bft)
19.05.2022 17:04 16,4 C 16,1 C 88 % 1020,2 hPa 0,0 l/m 3,6 km/h (1 Bft) W-NW 293 0 min 0,7 UV-I 100 W/m 14,4 C 16,4 C 8,0 km/h (2 Bft)
19.05.2022 17:06 16,4 C 16,1 C 87 % 1020,3 hPa 0,0 l/m 2,5 km/h (1 Bft) W-NW 293 0 min 0,6 UV-I 87 W/m 14,2 C 16,4 C 6,4 km/h (2 Bft)
19.05.2022 17:08 16,4 C 16,1 C 87 % 1020,3 hPa 0,0 l/m 1,0 km/h (0 Bft) W-NW 294 0 min 0,5 UV-I 75 W/m 14,2 C 16,4 C 4,8 km/h (1 Bft)
19.05.2022 17:10 16,4 C 15,6 C 86 % 1020,3 hPa 0,0 l/m 1,4 km/h (1 Bft) W-NW 294 0 min 0,0 UV-I 69 W/m 14,1 C 16,4 C 3,2 km/h (1 Bft)
19.05.2022 17:12 16,4 C 15,6 C 86 % 1020,3 hPa 0,0 l/m 3,3 km/h (1 Bft) W-NW 294 0 min 0,0 UV-I 66 W/m 14,1 C 16,4 C 6,4 km/h (2 Bft)
19.05.2022 17:14 16,3 C 16,1 C 87 % 1020,2 hPa 0,0 l/m 4,5 km/h (1 Bft) W-NW 294 0 min 0,0 UV-I 66 W/m 14,1 C 16,3 C 6,4 km/h (2 Bft)
19.05.2022 17:16 16,3 C 16,1 C 87 % 1020,4 hPa 0,0 l/m 2,7 km/h (1 Bft) W-NW 294 0 min 0,0 UV-I 69 W/m 14,1 C 16,3 C 4,8 km/h (1 Bft)
19.05.2022 17:18 16,3 C 15,6 C 87 % 1020,4 hPa 0,0 l/m 2,2 km/h (1 Bft) W-NW 288 0 min 0,0 UV-I 73 W/m 14,1 C 16,3 C 4,8 km/h (1 Bft)
19.05.2022 17:20 16,3 C 15,6 C 87 % 1020,5 hPa 0,0 l/m 3,3 km/h (1 Bft) W-NW 284 0 min 0,0 UV-I 77 W/m 14,1 C 16,3 C 6,4 km/h (2 Bft)
19.05.2022 17:22 16,3 C 16,1 C 88 % 1020,4 hPa 0,0 l/m 0,8 km/h (0 Bft) W-NW 284 0 min 0,3 UV-I 80 W/m 14,3 C 16,3 C 3,2 km/h (1 Bft)
19.05.2022 17:24 16,3 C 16,1 C 88 % 1020,4 hPa 0,0 l/m 3,6 km/h (1 Bft) W-NW 285 0 min 0,5 UV-I 83 W/m 14,3 C 16,3 C 4,8 km/h (1 Bft)
19.05.2022 17:26 16,3 C 16,1 C 88 % 1020,5 hPa 0,0 l/m 1,6 km/h (1 Bft) W-NW 285 0 min 0,5 UV-I 87 W/m 14,3 C 16,3 C 3,2 km/h (1 Bft)
19.05.2022 17:28 16,2 C 16,1 C 87 % 1020,6 hPa 0,0 l/m 0,0 km/h (0 Bft) W-NW 285 0 min 0,5 UV-I 90 W/m 14,0 C 16,2 C 1,6 km/h (1 Bft)
19.05.2022 17:30 16,3 C 16,1 C 88 % 1020,6 hPa 0,0 l/m 1,2 km/h (1 Bft) W-NW 285 0 min 0,5 UV-I 94 W/m 14,3 C 16,3 C 3,2 km/h (1 Bft)
19.05.2022 17:32 16,3 C 16,1 C 88 % 1020,6 hPa 0,0 l/m 1,1 km/h (1 Bft) W-NW 285 0 min 0,6 UV-I 98 W/m 14,3 C 16,3 C 3,2 km/h (1 Bft)
19.05.2022 17:34 16,4 C 16,1 C 88 % 1020,5 hPa 0,0 l/m 1,9 km/h (1 Bft) W-NW 285 0 min 0,6 UV-I 105 W/m 14,4 C 16,4 C 3,2 km/h (1 Bft)
19.05.2022 17:36 16,4 C 16,7 C 88 % 1020,6 hPa 0,0 l/m 1,2 km/h (1 Bft) W-NW 285 0 min 0,7 UV-I 114 W/m 14,4 C 16,4 C 3,2 km/h (1 Bft)
19.05.2022 17:38 16,3 C 16,7 C 89 % 1020,5 hPa 0,0 l/m 2,8 km/h (1 Bft) W-NW 285 0 min 0,7 UV-I 125 W/m 14,5 C 16,3 C 4,8 km/h (1 Bft)
19.05.2022 17:40 16,3 C 16,7 C 88 % 1020,5 hPa 0,0 l/m 2,1 km/h (1 Bft) W-NW 285 0 min 0,8 UV-I 139 W/m 14,3 C 16,3 C 4,8 km/h (1 Bft)
19.05.2022 17:42 16,4 C 16,7 C 88 % 1020,4 hPa 0,0 l/m 0,8 km/h (0 Bft) W-NW 285 0 min 0,9 UV-I 168 W/m 14,4 C 16,4 C 3,2 km/h (1 Bft)
19.05.2022 17:44 16,6 C 17,2 C 88 % 1020,4 hPa 0,0 l/m 0,3 km/h (0 Bft) W-NW 285 0 min 1,3 UV-I 248 W/m 14,6 C 16,6 C 1,6 km/h (1 Bft)
19.05.2022 17:46 16,8 C 18,3 C 87 % 1020,4 hPa 0,0 l/m 0,5 km/h (0 Bft) W-NW 285 2 min 1,7 UV-I 358 W/m 14,6 C 16,8 C 1,6 km/h (1 Bft)
19.05.2022 17:48 17,2 C 20,0 C 88 % 1020,4 hPa 0,0 l/m 2,0 km/h (1 Bft) W-NW 285 2 min 2,4 UV-I 591 W/m 15,2 C 17,2 C 3,2 km/h (1 Bft)
19.05.2022 17:50 17,4 C 21,7 C 86 % 1020,6 hPa 0,0 l/m 4,0 km/h (1 Bft) W-NW 288 2 min 2,6 UV-I 640 W/m 15,0 C 17,4 C 6,4 km/h (2 Bft)
19.05.2022 17:52 17,6 C 22,2 C 84 % 1020,5 hPa 0,0 l/m 2,4 km/h (1 Bft) W-NW 288 2 min 2,7 UV-I 645 W/m 14,9 C 17,6 C 4,8 km/h (1 Bft)
19.05.2022 17:54 17,9 C 23,3 C 85 % 1020,5 hPa 0,0 l/m 4,1 km/h (1 Bft) W-NW 288 2 min 2,8 UV-I 639 W/m 15,3 C 17,9 C 6,4 km/h (2 Bft)
19.05.2022 17:56 18,1 C 23,3 C 83 % 1020,5 hPa 0,0 l/m 1,2 km/h (1 Bft) W-NW 288 2 min 2,8 UV-I 626 W/m 15,2 C 18,1 C 3,2 km/h (1 Bft)
19.05.2022 17:58 18,1 C 23,9 C 83 % 1020,6 hPa 0,0 l/m 1,8 km/h (1 Bft) W-NW 288 2 min 2,8 UV-I 604 W/m 15,2 C 18,1 C 3,2 km/h (1 Bft)
19.05.2022 18:00 18,1 C 23,9 C 83 % 1020,5 hPa 0,0 l/m 1,9 km/h (1 Bft) W-NW 288 2 min 2,7 UV-I 579 W/m 15,2 C 18,1 C 3,2 km/h (1 Bft)
19.05.2022 18:02 18,2 C 25,0 C 82 % 1020,6 hPa 0,0 l/m 0,9 km/h (0 Bft) W-NW 288 2 min 2,5 UV-I 558 W/m 15,1 C 18,2 C 1,6 km/h (1 Bft)
19.05.2022 18:04 18,3 C 24,4 C 83 % 1020,5 hPa 0,0 l/m 0,3 km/h (0 Bft) W-NW 288 2 min 2,4 UV-I 540 W/m 15,4 C 18,3 C 1,6 km/h (1 Bft)
19.05.2022 18:06 18,6 C 25,0 C 82 % 1020,6 hPa 0,0 l/m 1,4 km/h (1 Bft) W-NW 288 2 min 2,4 UV-I 524 W/m 15,5 C 18,6 C 3,2 km/h (1 Bft)
19.05.2022 18:08 18,3 C 24,4 C 80 % 1020,7 hPa 0,0 l/m 0,1 km/h (0 Bft) W-NW 288 2 min 2,2 UV-I 511 W/m 14,8 C 18,3 C 1,6 km/h (1 Bft)
19.05.2022 18:10 18,3 C 24,4 C 80 % 1020,7 hPa 0,0 l/m 2,6 km/h (1 Bft) W-NW 288 2 min 1,9 UV-I 508 W/m 14,8 C 18,3 C 4,8 km/h (1 Bft)
19.05.2022 18:12 18,2 C 22,8 C 81 % 1020,6 hPa 0,0 l/m 2,1 km/h (1 Bft) W-NW 288 0 min 1,7 UV-I 250 W/m 14,9 C 18,2 C 3,2 km/h (1 Bft)
19.05.2022 18:14 18,2 C 21,7 C 81 % 1020,6 hPa 0,0 l/m 3,4 km/h (1 Bft) W-NW 288 0 min 1,5 UV-I 228 W/m 14,9 C 18,2 C 4,8 km/h (1 Bft)
19.05.2022 18:16 18,0 C 20,6 C 82 % 1020,7 hPa 0,0 l/m 3,8 km/h (1 Bft) W-NW 289 0 min 1,2 UV-I 194 W/m 14,9 C 18,0 C 6,4 km/h (2 Bft)
19.05.2022 18:18 17,9 C 20,0 C 82 % 1020,8 hPa 0,0 l/m 1,7 km/h (1 Bft) W-NW 289 0 min 1,0 UV-I 182 W/m 14,8 C 17,9 C 3,2 km/h (1 Bft)
19.05.2022 18:20 17,9 C 19,4 C 82 % 1020,8 hPa 0,0 l/m 1,6 km/h (1 Bft) W-NW 289 0 min 0,8 UV-I 160 W/m 14,8 C 17,9 C 3,2 km/h (1 Bft)
19.05.2022 18:22 18,1 C 19,4 C 84 % 1020,9 hPa 0,0 l/m 1,1 km/h (1 Bft) W-NW 289 0 min 0,9 UV-I 166 W/m 15,4 C 18,1 C 3,2 km/h (1 Bft)
19.05.2022 18:24 18,0 C 20,6 C 83 % 1021,0 hPa 0,0 l/m 0,9 km/h (0 Bft) W-NW 289 0 min 1,3 UV-I 250 W/m 15,1 C 18,0 C 3,2 km/h (1 Bft)
19.05.2022 18:26 18,1 C 21,1 C 83 % 1021,0 hPa 0,0 l/m 3,7 km/h (1 Bft) W-NW 289 2 min 1,9 UV-I 449 W/m 15,2 C 18,1 C 4,8 km/h (1 Bft)
19.05.2022 18:28 18,3 C 21,7 C 83 % 1020,9 hPa 0,0 l/m 3,6 km/h (1 Bft) W-NW 289 2 min 1,9 UV-I 458 W/m 15,4 C 18,3 C 4,8 km/h (1 Bft)
19.05.2022 18:30 18,2 C 21,7 C 82 % 1020,9 hPa 0,0 l/m 3,3 km/h (1 Bft) W-NW 289 2 min 1,8 UV-I 411 W/m 15,1 C 18,2 C 4,8 km/h (1 Bft)
19.05.2022 18:32 18,4 C 21,1 C 83 % 1021,0 hPa 0,0 l/m 4,1 km/h (1 Bft) O-NO 75 2 min 1,7 UV-I 379 W/m 15,5 C 18,4 C 8,0 km/h (2 Bft)
19.05.2022 18:34 18,3 C 20,0 C 82 % 1021,0 hPa 0,0 l/m 4,0 km/h (1 Bft) O-NO 74 0 min 1,3 UV-I 283 W/m 15,2 C 18,3 C 4,8 km/h (1 Bft)
19.05.2022 18:36 18,2 C 19,4 C 82 % 1021,0 hPa 0,0 l/m 4,7 km/h (1 Bft) O-NO 65 0 min 1,1 UV-I 104 W/m 15,1 C 18,2 C 6,4 km/h (2 Bft)
19.05.2022 18:38 17,9 C 18,9 C 84 % 1021,0 hPa 0,0 l/m 5,2 km/h (1 Bft) NO 54 0 min 0,9 UV-I 77 W/m 15,2 C 17,9 C 8,0 km/h (2 Bft)
19.05.2022 18:40 17,8 C 18,9 C 84 % 1020,9 hPa 0,0 l/m 3,5 km/h (1 Bft) NO 54 0 min 0,9 UV-I 92 W/m 15,1 C 17,8 C 6,4 km/h (2 Bft)
19.05.2022 18:42 17,8 C 18,3 C 84 % 1020,9 hPa 0,0 l/m 2,1 km/h (1 Bft) NO 54 0 min 0,9 UV-I 106 W/m 15,1 C 17,8 C 3,2 km/h (1 Bft)
19.05.2022 18:44 17,7 C 18,3 C 85 % 1021,0 hPa 0,0 l/m 3,0 km/h (1 Bft) NO 54 0 min 0,9 UV-I 136 W/m 15,1 C 17,7 C 4,8 km/h (1 Bft)
19.05.2022 18:46 17,7 C 18,9 C 85 % 1021,0 hPa 0,0 l/m 3,8 km/h (1 Bft) NO 54 0 min 1,0 UV-I 189 W/m 15,1 C 17,7 C 6,4 km/h (2 Bft)
19.05.2022 18:48 17,7 C 18,9 C 85 % 1021,0 hPa 0,0 l/m 5,0 km/h (1 Bft) NO 54 0 min 0,9 UV-I 146 W/m 15,1 C 17,7 C 6,4 km/h (2 Bft)
19.05.2022 18:50 17,7 C 18,9 C 85 % 1021,0 hPa 0,0 l/m 3,5 km/h (1 Bft) NO 54 0 min 0,8 UV-I 120 W/m 15,1 C 17,7 C 4,8 km/h (1 Bft)
19.05.2022 18:52 17,6 C 18,9 C 85 % 1021,0 hPa 0,0 l/m 3,6 km/h (1 Bft) NO 54 0 min 0,7 UV-I 104 W/m 15,0 C 17,6 C 4,8 km/h (1 Bft)
19.05.2022 18:54 17,6 C 18,9 C 85 % 1020,9 hPa 0,0 l/m 3,2 km/h (1 Bft) NO 54 0 min 0,7 UV-I 102 W/m 15,0 C 17,6 C 4,8 km/h (1 Bft)
19.05.2022 18:56 17,6 C 18,9 C 85 % 1020,9 hPa 0,0 l/m 2,8 km/h (1 Bft) NO 54 0 min 0,7 UV-I 107 W/m 15,0 C 17,6 C 3,2 km/h (1 Bft)
19.05.2022 18:58 17,6 C 18,3 C 86 % 1020,9 hPa 0,0 l/m 2,2 km/h (1 Bft) NO 54 0 min 0,6 UV-I 118 W/m 15,2 C 17,6 C 3,2 km/h (1 Bft)
19.05.2022 19:00 17,7 C 18,3 C 86 % 1020,8 hPa 0,0 l/m 3,0 km/h (1 Bft) NO 54 0 min 0,7 UV-I 137 W/m 15,3 C 17,7 C 4,8 km/h (1 Bft)
19.05.2022 19:02 17,8 C 18,9 C 86 % 1020,9 hPa 0,0 l/m 2,1 km/h (1 Bft) NO 54 0 min 0,7 UV-I 146 W/m 15,4 C 17,8 C 3,2 km/h (1 Bft)
19.05.2022 19:04 17,8 C 19,4 C 86 % 1020,9 hPa 0,0 l/m 1,5 km/h (1 Bft) NO 54 0 min 0,7 UV-I 159 W/m 15,4 C 17,8 C 3,2 km/h (1 Bft)
19.05.2022 19:06 17,9 C 19,4 C 86 % 1021,0 hPa 0,0 l/m 0,7 km/h (0 Bft) NO 54 0 min 0,8 UV-I 175 W/m 15,5 C 17,9 C 1,6 km/h (1 Bft)
19.05.2022 19:08 17,9 C 19,4 C 86 % 1021,0 hPa 0,0 l/m 0,1 km/h (0 Bft) NO 54 0 min 0,7 UV-I 146 W/m 15,5 C 17,9 C 1,6 km/h (1 Bft)
19.05.2022 19:10 17,9 C 19,4 C 85 % 1021,0 hPa 0,0 l/m 0,3 km/h (0 Bft) NO 54 0 min 0,7 UV-I 135 W/m 15,3 C 17,9 C 1,6 km/h (1 Bft)
19.05.2022 19:12 18,0 C 19,4 C 85 % 1021,2 hPa 0,0 l/m 1,2 km/h (1 Bft) NO 54 0 min 0,7 UV-I 130 W/m 15,4 C 18,0 C 3,2 km/h (1 Bft)
19.05.2022 19:14 17,9 C 18,9 C 85 % 1021,1 hPa 0,0 l/m 2,5 km/h (1 Bft) NO 54 0 min 0,6 UV-I 118 W/m 15,3 C 17,9 C 4,8 km/h (1 Bft)
19.05.2022 19:16 17,8 C 18,9 C 84 % 1021,2 hPa 0,0 l/m 2,5 km/h (1 Bft) NO 54 0 min 0,6 UV-I 105 W/m 15,1 C 17,8 C 3,2 km/h (1 Bft)
19.05.2022 19:18 17,8 C 18,3 C 85 % 1021,3 hPa 0,0 l/m 2,4 km/h (1 Bft) NO 54 0 min 0,5 UV-I 106 W/m 15,2 C 17,8 C 3,2 km/h (1 Bft)
19.05.2022 19:20 17,9 C 18,9 C 86 % 1021,3 hPa 0,0 l/m 1,6 km/h (1 Bft) NO 54 0 min 0,5 UV-I 108 W/m 15,5 C 17,9 C 3,2 km/h (1 Bft)
19.05.2022 19:22 17,8 C 18,3 C 85 % 1021,3 hPa 0,0 l/m 1,6 km/h (1 Bft) NO 54 0 min 0,5 UV-I 105 W/m 15,2 C 17,8 C 3,2 km/h (1 Bft)
19.05.2022 19:24 17,8 C 18,3 C 85 % 1021,3 hPa 0,0 l/m 1,9 km/h (1 Bft) NO 54 0 min 0,2 UV-I 99 W/m 15,2 C 17,8 C 3,2 km/h (1 Bft)
19.05.2022 19:26 17,9 C 18,3 C 85 % 1021,4 hPa 0,0 l/m 2,0 km/h (1 Bft) NO 54 0 min 0,0 UV-I 93 W/m 15,3 C 17,9 C 3,2 km/h (1 Bft)
19.05.2022 19:28 17,9 C 18,3 C 86 % 1021,5 hPa 0,0 l/m 2,1 km/h (1 Bft) NO 54 0 min 0,0 UV-I 91 W/m 15,5 C 17,9 C 3,2 km/h (1 Bft)
19.05.2022 19:30 17,8 C 18,3 C 86 % 1021,5 hPa 0,0 l/m 3,7 km/h (1 Bft) NO 54 0 min 0,0 UV-I 90 W/m 15,4 C 17,8 C 4,8 km/h (1 Bft)
19.05.2022 19:32 17,7 C 18,3 C 86 % 1021,4 hPa 0,0 l/m 2,9 km/h (1 Bft) NO 54 0 min 0,0 UV-I 86 W/m 15,3 C 17,7 C 4,8 km/h (1 Bft)
19.05.2022 19:34 17,7 C 18,3 C 86 % 1021,4 hPa 0,0 l/m 3,3 km/h (1 Bft) NO 54 0 min 0,0 UV-I 85 W/m 15,3 C 17,7 C 4,8 km/h (1 Bft)
19.05.2022 19:36 17,7 C 18,3 C 87 % 1021,4 hPa 0,0 l/m 3,8 km/h (1 Bft) NO 54 0 min 0,0 UV-I 82 W/m 15,5 C 17,7 C 6,4 km/h (2 Bft)
19.05.2022 19:38 17,7 C 18,3 C 87 % 1021,4 hPa 0,0 l/m 4,8 km/h (1 Bft) NO 54 0 min 0,0 UV-I 77 W/m 15,5 C 17,7 C 6,4 km/h (2 Bft)
19.05.2022 19:40 17,6 C 18,3 C 87 % 1021,5 hPa 0,0 l/m 4,9 km/h (1 Bft) NO 54 0 min 0,0 UV-I 76 W/m 15,4 C 17,6 C 6,4 km/h (2 Bft)
19.05.2022 19:42 17,5 C 18,3 C 87 % 1021,4 hPa 0,0 l/m 4,9 km/h (1 Bft) NO 54 0 min 0,0 UV-I 76 W/m 15,3 C 17,5 C 6,4 km/h (2 Bft)
19.05.2022 19:44 17,5 C 18,3 C 87 % 1021,4 hPa 0,0 l/m 3,7 km/h (1 Bft) NO 54 0 min 0,0 UV-I 76 W/m 15,3 C 17,5 C 6,4 km/h (2 Bft)
19.05.2022 19:46 17,5 C 17,8 C 87 % 1021,4 hPa 0,0 l/m 1,8 km/h (1 Bft) NO 54 0 min 0,0 UV-I 79 W/m 15,3 C 17,5 C 4,8 km/h (1 Bft)
19.05.2022 19:48 17,6 C 18,3 C 87 % 1021,4 hPa 0,0 l/m 2,5 km/h (1 Bft) NO 54 0 min 0,0 UV-I 105 W/m 15,4 C 17,6 C 4,8 km/h (1 Bft)
19.05.2022 19:50 17,6 C 18,3 C 88 % 1021,4 hPa 0,0 l/m 2,4 km/h (1 Bft) NO 54 0 min 0,0 UV-I 89 W/m 15,6 C 17,6 C 4,8 km/h (1 Bft)
19.05.2022 19:52 17,4 C 18,3 C 87 % 1021,4 hPa 0,0 l/m 2,5 km/h (1 Bft) NO 54 0 min 0,0 UV-I 92 W/m 15,2 C 17,4 C 4,8 km/h (1 Bft)
19.05.2022 19:54 17,4 C 17,8 C 87 % 1021,4 hPa 0,0 l/m 3,0 km/h (1 Bft) NO 54 0 min 0,0 UV-I 70 W/m 15,2 C 17,4 C 4,8 km/h (1 Bft)
19.05.2022 19:56 17,3 C 17,2 C 87 % 1021,3 hPa 0,0 l/m 2,9 km/h (1 Bft) NO 54 0 min 0,0 UV-I 64 W/m 15,1 C 17,3 C 4,8 km/h (1 Bft)
19.05.2022 19:58 17,3 C 17,2 C 87 % 1021,3 hPa 0,0 l/m 3,0 km/h (1 Bft) NO 54 0 min 0,0 UV-I 80 W/m 15,1 C 17,3 C 3,2 km/h (1 Bft)
19.05.2022 20:00 17,3 C 17,2 C 88 % 1021,4 hPa 0,0 l/m 1,7 km/h (1 Bft) NO 54 0 min 0,0 UV-I 68 W/m 15,3 C 17,3 C 3,2 km/h (1 Bft)
19.05.2022 20:02 17,2 C 16,7 C 88 % 1021,3 hPa 0,0 l/m 1,8 km/h (1 Bft) NO 54 0 min 0,0 UV-I 53 W/m 15,2 C 17,2 C 3,2 km/h (1 Bft)
19.05.2022 20:04 17,2 C 16,7 C 88 % 1021,3 hPa 0,0 l/m 3,6 km/h (1 Bft) NO 54 0 min 0,0 UV-I 72 W/m 15,2 C 17,2 C 6,4 km/h (2 Bft)
19.05.2022 20:06 17,1 C 16,7 C 88 % 1021,3 hPa 0,0 l/m 3,2 km/h (1 Bft) NO 54 0 min 0,0 UV-I 59 W/m 15,1 C 17,1 C 4,8 km/h (1 Bft)
19.05.2022 20:08 17,0 C 16,7 C 88 % 1021,2 hPa 0,0 l/m 3,7 km/h (1 Bft) NO 54 0 min 0,0 UV-I 50 W/m 15,0 C 17,0 C 4,8 km/h (1 Bft)
19.05.2022 20:10 16,9 C 16,1 C 88 % 1021,2 hPa 0,0 l/m 3,6 km/h (1 Bft) NO 54 0 min 0,0 UV-I 54 W/m 14,9 C 16,9 C 6,4 km/h (2 Bft)
19.05.2022 20:12 16,9 C 16,1 C 88 % 1021,3 hPa 0,0 l/m 4,9 km/h (1 Bft) NO 54 0 min 0,0 UV-I 52 W/m 14,9 C 16,9 C 6,4 km/h (2 Bft)
19.05.2022 20:14 16,8 C 16,1 C 88 % 1021,3 hPa 0,0 l/m 4,2 km/h (1 Bft) NO 54 0 min 0,0 UV-I 49 W/m 14,8 C 16,8 C 6,4 km/h (2 Bft)
19.05.2022 20:16 16,8 C 16,1 C 88 % 1021,3 hPa 0,0 l/m 4,6 km/h (1 Bft) NO 54 0 min 0,0 UV-I 49 W/m 14,8 C 16,8 C 6,4 km/h (2 Bft)
19.05.2022 20:18 16,7 C 16,1 C 88 % 1021,4 hPa 0,0 l/m 4,2 km/h (1 Bft) NO 54 0 min 0,0 UV-I 46 W/m 14,7 C 16,7 C 6,4 km/h (2 Bft)
19.05.2022 20:20 16,7 C 16,1 C 89 % 1021,3 hPa 0,0 l/m 3,5 km/h (1 Bft) NO 54 0 min 0,0 UV-I 46 W/m 14,9 C 16,7 C 4,8 km/h (1 Bft)
19.05.2022 20:22 16,7 C 16,1 C 89 % 1021,4 hPa 0,0 l/m 4,3 km/h (1 Bft) NO 54 0 min 0,0 UV-I 45 W/m 14,9 C 16,7 C 6,4 km/h (2 Bft)
19.05.2022 20:24 16,7 C 16,1 C 89 % 1021,4 hPa 0,0 l/m 2,1 km/h (1 Bft) NO 54 0 min 0,0 UV-I 46 W/m 14,9 C 16,7 C 4,8 km/h (1 Bft)
19.05.2022 20:26 16,7 C 16,1 C 89 % 1021,4 hPa 0,0 l/m 0,4 km/h (0 Bft) NO 54 0 min 0,0 UV-I 52 W/m 14,9 C 16,7 C 1,6 km/h (1 Bft)
19.05.2022 20:28 16,8 C 16,1 C 89 % 1021,4 hPa 0,0 l/m 0,0 km/h (0 Bft) NO 54 0 min 0,0 UV-I 52 W/m 15,0 C 16,8 C 0,0 km/h (0 Bft)
19.05.2022 20:30 16,8 C 15,6 C 89 % 1021,4 hPa 0,0 l/m 0,0 km/h (0 Bft) NO 54 0 min 0,0 UV-I 43 W/m 15,0 C 16,8 C 1,6 km/h (1 Bft)
19.05.2022 20:32 16,8 C 15,6 C 89 % 1021,3 hPa 0,0 l/m 0,9 km/h (0 Bft) NO 54 0 min 0,0 UV-I 37 W/m 15,0 C 16,8 C 3,2 km/h (1 Bft)
19.05.2022 20:34 16,8 C 15,6 C 89 % 1021,5 hPa 0,0 l/m 2,0 km/h (1 Bft) NO 54 0 min 0,0 UV-I 32 W/m 15,0 C 16,8 C 3,2 km/h (1 Bft)
19.05.2022 20:36 16,8 C 15,6 C 89 % 1021,4 hPa 0,0 l/m 1,7 km/h (1 Bft) NO 54 0 min 0,0 UV-I 29 W/m 15,0 C 16,8 C 3,2 km/h (1 Bft)
19.05.2022 20:38 16,8 C 15,6 C 89 % 1021,5 hPa 0,0 l/m 1,1 km/h (1 Bft) NO 54 0 min 0,0 UV-I 29 W/m 15,0 C 16,8 C 1,6 km/h (1 Bft)
19.05.2022 20:40 16,7 C 15,6 C 89 % 1021,5 hPa 0,0 l/m 2,3 km/h (1 Bft) NO 54 0 min 0,0 UV-I 30 W/m 14,9 C 16,7 C 4,8 km/h (1 Bft)
19.05.2022 20:42 16,7 C 15,6 C 89 % 1021,6 hPa 0,0 l/m 4,1 km/h (1 Bft) NO 54 0 min 0,0 UV-I 32 W/m 14,9 C 16,7 C 4,8 km/h (1 Bft)
19.05.2022 20:44 16,7 C 15,6 C 89 % 1021,5 hPa 0,0 l/m 3,4 km/h (1 Bft) NO 54 0 min 0,0 UV-I 32 W/m 14,9 C 16,7 C 4,8 km/h (1 Bft)
19.05.2022 20:46 16,7 C 15,6 C 89 % 1021,7 hPa 0,0 l/m 2,5 km/h (1 Bft) NO 54 0 min 0,0 UV-I 32 W/m 14,9 C 16,7 C 3,2 km/h (1 Bft)
19.05.2022 20:48 16,7 C 15,6 C 89 % 1021,7 hPa 0,0 l/m 2,7 km/h (1 Bft) NO 54 0 min 0,0 UV-I 32 W/m 14,9 C 16,7 C 4,8 km/h (1 Bft)
19.05.2022 20:50 16,7 C 15,6 C 89 % 1021,7 hPa 0,0 l/m 2,7 km/h (1 Bft) NO 54 0 min 0,0 UV-I 29 W/m 14,9 C 16,7 C 3,2 km/h (1 Bft)
19.05.2022 20:52 16,6 C 15,6 C 89 % 1021,8 hPa 0,0 l/m 2,5 km/h (1 Bft) NO 54 0 min 0,0 UV-I 27 W/m 14,8 C 16,6 C 3,2 km/h (1 Bft)
19.05.2022 20:54 16,7 C 15,6 C 90 % 1021,8 hPa 0,0 l/m 2,4 km/h (1 Bft) NO 54 0 min 0,0 UV-I 26 W/m 15,0 C 16,7 C 3,2 km/h (1 Bft)
19.05.2022 20:56 16,7 C 15,6 C 90 % 1021,8 hPa 0,0 l/m 1,5 km/h (1 Bft) NO 54 0 min 0,0 UV-I 24 W/m 15,0 C 16,7 C 3,2 km/h (1 Bft)
19.05.2022 20:58 16,7 C 15,6 C 90 % 1021,8 hPa 0,0 l/m 0,8 km/h (0 Bft) NO 54 0 min 0,0 UV-I 19 W/m 15,0 C 16,7 C 1,6 km/h (1 Bft)
19.05.2022 21:00 16,7 C 15,0 C 90 % 1021,8 hPa 0,0 l/m 0,0 km/h (0 Bft) NO 54 0 min 0,0 UV-I 16 W/m 15,0 C 16,7 C 0,0 km/h (0 Bft)
19.05.2022 21:02 16,7 C 15,0 C 90 % 1021,9 hPa 0,0 l/m 0,0 km/h (0 Bft) NO 54 0 min 0,0 UV-I 13 W/m 15,0 C 16,7 C 0,0 km/h (0 Bft)
19.05.2022 21:04 16,6 C 15,0 C 90 % 1021,9 hPa 0,0 l/m 0,0 km/h (0 Bft) NO 54 0 min 0,0 UV-I 11 W/m 15,0 C 16,6 C 0,0 km/h (0 Bft)
19.05.2022 21:06 16,6 C 14,4 C 90 % 1022,0 hPa 0,0 l/m 0,0 km/h (0 Bft) NO 54 0 min 0,0 UV-I 9 W/m 15,0 C 16,6 C 0,0 km/h (0 Bft)
19.05.2022 21:08 16,5 C 14,4 C 90 % 1022,0 hPa 0,0 l/m 0,0 km/h (0 Bft) NO 54 0 min 0,0 UV-I 9 W/m 14,9 C 16,5 C 0,0 km/h (0 Bft)
19.05.2022 21:10 16,4 C 14,4 C 90 % 1022,0 hPa 0,0 l/m 0,0 km/h (0 Bft) NO 54 0 min 0,0 UV-I 8 W/m 14,8 C 16,4 C 0,0 km/h (0 Bft)
19.05.2022 21:12 16,4 C 14,4 C 90 % 1021,8 hPa 0,0 l/m 0,0 km/h (0 Bft) NO 54 0 min 0,0 UV-I 7 W/m 14,8 C 16,4 C 0,0 km/h (0 Bft)
19.05.2022 21:14 16,4 C 14,4 C 90 % 1022,0 hPa 0,0 l/m 0,0 km/h (0 Bft) NO 54 0 min 0,0 UV-I 5 W/m 14,8 C 16,4 C 0,0 km/h (0 Bft)
19.05.2022 21:16 16,3 C 14,4 C 90 % 1021,9 hPa 0,0 l/m 0,0 km/h (0 Bft) NO 54 0 min 0,0 UV-I 5 W/m 14,7 C 16,3 C 0,0 km/h (0 Bft)
19.05.2022 21:18 16,3 C 13,9 C 90 % 1022,0 hPa 0,0 l/m 0,0 km/h (0 Bft) NO 54 0 min 0,0 UV-I 5 W/m 14,7 C 16,3 C 0,0 km/h (0 Bft)
19.05.2022 21:20 16,3 C 13,9 C 90 % 1022,0 hPa 0,0 l/m 0,0 km/h (0 Bft) NO 54 0 min 0,0 UV-I 2 W/m 14,7 C 16,3 C 0,0 km/h (0 Bft)
19.05.2022 21:22 16,2 C 13,9 C 90 % 1022,0 hPa 0,0 l/m 0,0 km/h (0 Bft) NO 54 0 min 0,0 UV-I 0 W/m 14,6 C 16,2 C 0,0 km/h (0 Bft)
19.05.2022 21:24 16,2 C 13,9 C 91 % 1022,1 hPa 0,0 l/m 0,0 km/h (0 Bft) NO 54 0 min 0,0 UV-I 0 W/m 14,7 C 16,2 C 0,0 km/h (0 Bft)
19.05.2022 21:26 16,2 C 13,9 C 91 % 1022,0 hPa 0,0 l/m 0,0 km/h (0 Bft) NO 54 0 min 0,0 UV-I 0 W/m 14,7 C 16,2 C 0,0 km/h (0 Bft)
19.05.2022 21:28 16,2 C 13,9 C 91 % 1022,1 hPa 0,0 l/m 0,0 km/h (0 Bft) NO 54 0 min 0,0 UV-I 0 W/m 14,7 C 16,2 C 0,0 km/h (0 Bft)
19.05.2022 21:30 16,2 C 13,3 C 91 % 1022,1 hPa 0,0 l/m 0,0 km/h (0 Bft) NO 54 0 min 0,0 UV-I 0 W/m 14,7 C 16,2 C 0,0 km/h (0 Bft)
19.05.2022 21:32 16,2 C 13,3 C 91 % 1022,1 hPa 0,0 l/m 0,0 km/h (0 Bft) NO 54 0 min 0,0 UV-I 0 W/m 14,7 C 16,2 C 0,0 km/h (0 Bft)
19.05.2022 21:34 16,1 C 13,3 C 91 % 1022,2 hPa 0,0 l/m 0,0 km/h (0 Bft) NO 54 0 min 0,0 UV-I 0 W/m 14,6 C 16,1 C 0,0 km/h (0 Bft)
19.05.2022 21:36 16,1 C 13,3 C 91 % 1022,1 hPa 0,0 l/m 0,0 km/h (0 Bft) NO 54 0 min 0,0 UV-I 0 W/m 14,6 C 16,1 C 0,0 km/h (0 Bft)
19.05.2022 21:38 16,1 C 13,3 C 91 % 1022,1 hPa 0,0 l/m 0,8 km/h (0 Bft) NO 54 0 min 0,0 UV-I 0 W/m 14,6 C 16,1 C 3,2 km/h (1 Bft)
19.05.2022 21:40 16,0 C 13,9 C 91 % 1022,3 hPa 0,0 l/m 1,4 km/h (1 Bft) NO 54 0 min 0,0 UV-I 0 W/m 14,5 C 16,0 C 3,2 km/h (1 Bft)
19.05.2022 21:42 16,0 C 13,3 C 91 % 1022,2 hPa 0,0 l/m 1,5 km/h (1 Bft) NO 54 0 min 0,0 UV-I 0 W/m 14,5 C 16,0 C 3,2 km/h (1 Bft)
19.05.2022 21:44 15,9 C 13,9 C 91 % 1022,2 hPa 0,0 l/m 1,7 km/h (1 Bft) NO 54 0 min 0,0 UV-I 0 W/m 14,4 C 15,9 C 3,2 km/h (1 Bft)
19.05.2022 21:46 15,9 C 13,9 C 91 % 1022,3 hPa 0,0 l/m 2,0 km/h (1 Bft) NO 54 0 min 0,0 UV-I 0 W/m 14,4 C 15,9 C 3,2 km/h (1 Bft)
19.05.2022 21:48 15,8 C 13,9 C 91 % 1022,1 hPa 0,0 l/m 0,9 km/h (0 Bft) NO 54 0 min 0,0 UV-I 0 W/m 14,3 C 15,8 C 1,6 km/h (1 Bft)
19.05.2022 21:50 15,8 C 13,9 C 91 % 1022,2 hPa 0,0 l/m 0,9 km/h (0 Bft) NO 54 0 min 0,0 UV-I 0 W/m 14,3 C 15,8 C 1,6 km/h (1 Bft)
19.05.2022 21:52 15,7 C 13,9 C 92 % 1022,1 hPa 0,0 l/m 1,0 km/h (0 Bft) NO 54 0 min 0,0 UV-I 0 W/m 14,4 C 15,7 C 3,2 km/h (1 Bft)
19.05.2022 21:54 15,7 C 13,3 C 92 % 1022,1 hPa 0,0 l/m 0,5 km/h (0 Bft) NO 54 0 min 0,0 UV-I 0 W/m 14,4 C 15,7 C 3,2 km/h (1 Bft)
19.05.2022 21:56 15,7 C 13,3 C 92 % 1022,1 hPa 0,0 l/m 0,9 km/h (0 Bft) NO 54 0 min 0,0 UV-I 0 W/m 14,4 C 15,7 C 1,6 km/h (1 Bft)
19.05.2022 21:58 15,6 C 13,3 C 92 % 1022,1 hPa 0,0 l/m 0,8 km/h (0 Bft) NO 54 0 min 0,0 UV-I 0 W/m 14,3 C 15,6 C 1,6 km/h (1 Bft)
19.05.2022 22:00 15,6 C 13,3 C 92 % 1022,1 hPa 0,0 l/m 0,2 km/h (0 Bft) NO 54 0 min 0,0 UV-I 0 W/m 14,3 C 15,6 C 1,6 km/h (1 Bft)
19.05.2022 22:02 15,4 C 13,3 C 92 % 1022,1 hPa 0,0 l/m 0,3 km/h (0 Bft) NO 54 0 min 0,0 UV-I 0 W/m 14,1 C 15,4 C 1,6 km/h (1 Bft)
19.05.2022 22:04 15,4 C 13,3 C 92 % 1022,1 hPa 0,0 l/m 1,2 km/h (1 Bft) NO 54 0 min 0,0 UV-I 0 W/m 14,1 C 15,4 C 1,6 km/h (1 Bft)
19.05.2022 22:06 15,3 C 13,3 C 92 % 1022,2 hPa 0,0 l/m 1,3 km/h (1 Bft) NO 54 0 min 0,0 UV-I 0 W/m 14,0 C 15,3 C 3,2 km/h (1 Bft)
19.05.2022 22:08 15,3 C 13,3 C 92 % 1022,2 hPa 0,0 l/m 1,2 km/h (1 Bft) NO 54 0 min 0,0 UV-I 0 W/m 14,0 C 15,3 C 3,2 km/h (1 Bft)
19.05.2022 22:10 15,2 C 13,3 C 92 % 1022,2 hPa 0,0 l/m 0,4 km/h (0 Bft) NO 54 0 min 0,0 UV-I 0 W/m 13,9 C 15,2 C 1,6 km/h (1 Bft)
19.05.2022 22:12 15,2 C 13,3 C 92 % 1022,2 hPa 0,0 l/m 0,1 km/h (0 Bft) NO 54 0 min 0,0 UV-I 0 W/m 13,9 C 15,2 C 1,6 km/h (1 Bft)
19.05.2022 22:14 15,2 C 12,8 C 92 % 1022,2 hPa 0,0 l/m 0,2 km/h (0 Bft) NO 54 0 min 0,0 UV-I 0 W/m 13,9 C 15,2 C 1,6 km/h (1 Bft)
19.05.2022 22:16 15,2 C 13,3 C 92 % 1022,3 hPa 0,0 l/m 1,2 km/h (1 Bft) NO 54 0 min 0,0 UV-I 0 W/m 13,9 C 15,2 C 1,6 km/h (1 Bft)
19.05.2022 22:18 15,2 C 13,3 C 92 % 1022,2 hPa 0,0 l/m 1,0 km/h (0 Bft) NO 54 0 min 0,0 UV-I 0 W/m 13,9 C 15,2 C 1,6 km/h (1 Bft)
19.05.2022 22:20 15,2 C 13,9 C 92 % 1022,3 hPa 0,0 l/m 0,7 km/h (0 Bft) NO 54 0 min 0,0 UV-I 0 W/m 13,9 C 15,2 C 1,6 km/h (1 Bft)
19.05.2022 22:22 15,1 C 13,9 C 92 % 1022,2 hPa 0,0 l/m 0,0 km/h (0 Bft) NO 54 0 min 0,0 UV-I 0 W/m 13,8 C 15,1 C 1,6 km/h (1 Bft)
19.05.2022 22:24 15,1 C 13,9 C 92 % 1022,2 hPa 0,0 l/m 0,0 km/h (0 Bft) NO 54 0 min 0,0 UV-I 0 W/m 13,8 C 15,1 C 0,0 km/h (0 Bft)
19.05.2022 22:26 15,1 C 13,9 C 92 % 1022,4 hPa 0,0 l/m 0,0 km/h (0 Bft) NO 54 0 min 0,0 UV-I 0 W/m 13,8 C 15,1 C 1,6 km/h (1 Bft)
19.05.2022 22:28 15,0 C 13,9 C 92 % 1022,3 hPa 0,0 l/m 0,0 km/h (0 Bft) NO 54 0 min 0,0 UV-I 0 W/m 13,7 C 15,0 C 0,0 km/h (0 Bft)
19.05.2022 22:30 15,0 C 13,9 C 93 % 1022,4 hPa 0,0 l/m 0,0 km/h (0 Bft) NO 54 0 min 0,0 UV-I 0 W/m 13,9 C 15,0 C 0,0 km/h (0 Bft)
19.05.2022 22:32 15,0 C 13,9 C 93 % 1022,4 hPa 0,0 l/m 0,0 km/h (0 Bft) NO 54 0 min 0,0 UV-I 0 W/m 13,9 C 15,0 C 0,0 km/h (0 Bft)
19.05.2022 22:34 15,1 C 13,9 C 93 % 1022,3 hPa 0,0 l/m 0,0 km/h (0 Bft) NO 54 0 min 0,0 UV-I 0 W/m 14,0 C 15,1 C 0,0 km/h (0 Bft)
19.05.2022 22:36 15,1 C 13,9 C 93 % 1022,5 hPa 0,0 l/m 0,0 km/h (0 Bft) NO 54 0 min 0,0 UV-I 0 W/m 14,0 C 15,1 C 0,0 km/h (0 Bft)
19.05.2022 22:38 15,1 C 13,9 C 93 % 1022,4 hPa 0,0 l/m 0,0 km/h (0 Bft) NO 54 0 min 0,0 UV-I 0 W/m 14,0 C 15,1 C 0,0 km/h (0 Bft)
19.05.2022 22:40 15,1 C 13,9 C 93 % 1022,4 hPa 0,0 l/m 0,0 km/h (0 Bft) NO 54 0 min 0,0 UV-I 0 W/m 14,0 C 15,1 C 0,0 km/h (0 Bft)
19.05.2022 22:42 15,1 C 14,4 C 93 % 1022,4 hPa 0,0 l/m 0,0 km/h (0 Bft) NO 54 0 min 0,0 UV-I 0 W/m 14,0 C 15,1 C 0,0 km/h (0 Bft)
19.05.2022 22:44 15,1 C 14,4 C 93 % 1022,4 hPa 0,0 l/m 0,4 km/h (0 Bft) NO 54 0 min 0,0 UV-I 0 W/m 14,0 C 15,1 C 1,6 km/h (1 Bft)
19.05.2022 22:46 15,1 C 14,4 C 93 % 1022,4 hPa 0,0 l/m 1,1 km/h (1 Bft) NO 54 0 min 0,0 UV-I 0 W/m 14,0 C 15,1 C 3,2 km/h (1 Bft)
19.05.2022 22:48 15,1 C 14,4 C 93 % 1022,4 hPa 0,0 l/m 0,4 km/h (0 Bft) NO 54 0 min 0,0 UV-I 0 W/m 14,0 C 15,1 C 1,6 km/h (1 Bft)
19.05.2022 22:50 15,1 C 14,4 C 93 % 1022,4 hPa 0,0 l/m 0,0 km/h (0 Bft) NO 54 0 min 0,0 UV-I 0 W/m 14,0 C 15,1 C 0,0 km/h (0 Bft)
19.05.2022 22:52 15,1 C 14,4 C 93 % 1022,4 hPa 0,0 l/m 0,0 km/h (0 Bft) NO 54 0 min 0,0 UV-I 0 W/m 14,0 C 15,1 C 0,0 km/h (0 Bft)
19.05.2022 22:54 14,9 C 14,4 C 93 % 1022,4 hPa 0,0 l/m 0,0 km/h (0 Bft) NO 54 0 min 0,0 UV-I 0 W/m 13,8 C 14,9 C 0,0 km/h (0 Bft)
19.05.2022 22:56 14,8 C 14,4 C 93 % 1022,5 hPa 0,0 l/m 0,0 km/h (0 Bft) NO 54 0 min 0,0 UV-I 0 W/m 13,7 C 14,8 C 0,0 km/h (0 Bft)
19.05.2022 22:58 14,8 C 14,4 C 93 % 1022,5 hPa 0,0 l/m 0,0 km/h (0 Bft) NO 54 0 min 0,0 UV-I 0 W/m 13,7 C 14,8 C 0,0 km/h (0 Bft)
19.05.2022 23:00 14,8 C 14,4 C 93 % 1022,4 hPa 0,0 l/m 0,0 km/h (0 Bft) NO 54 0 min 0,0 UV-I 0 W/m 13,7 C 14,8 C 0,0 km/h (0 Bft)
19.05.2022 23:02 14,8 C 14,4 C 93 % 1022,4 hPa 0,0 l/m 0,0 km/h (0 Bft) NO 54 0 min 0,0 UV-I 0 W/m 13,7 C 14,8 C 0,0 km/h (0 Bft)
19.05.2022 23:04 14,8 C 14,4 C 93 % 1022,3 hPa 0,0 l/m 0,0 km/h (0 Bft) NO 54 0 min 0,0 UV-I 0 W/m 13,7 C 14,8 C 0,0 km/h (0 Bft)
19.05.2022 23:06 14,8 C 14,4 C 93 % 1022,4 hPa 0,0 l/m 0,0 km/h (0 Bft) NO 54 0 min 0,0 UV-I 0 W/m 13,7 C 14,8 C 0,0 km/h (0 Bft)
19.05.2022 23:08 14,8 C 14,4 C 93 % 1022,4 hPa 0,0 l/m 0,0 km/h (0 Bft) NO 54 0 min 0,0 UV-I 0 W/m 13,7 C 14,8 C 0,0 km/h (0 Bft)
19.05.2022 23:10 14,8 C 14,4 C 93 % 1022,5 hPa 0,0 l/m 0,0 km/h (0 Bft) NO 54 0 min 0,0 UV-I 0 W/m 13,7 C 14,8 C 0,0 km/h (0 Bft)
19.05.2022 23:12 14,8 C 14,4 C 93 % 1022,6 hPa 0,0 l/m 0,2 km/h (0 Bft) NO 54 0 min 0,0 UV-I 0 W/m 13,7 C 14,8 C 1,6 km/h (1 Bft)
19.05.2022 23:14 14,7 C 14,4 C 93 % 1022,5 hPa 0,0 l/m 0,1 km/h (0 Bft) NO 54 0 min 0,0 UV-I 0 W/m 13,6 C 14,7 C 1,6 km/h (1 Bft)
19.05.2022 23:16 14,7 C 14,4 C 93 % 1022,7 hPa 0,0 l/m 0,0 km/h (0 Bft) NO 54 0 min 0,0 UV-I 0 W/m 13,6 C 14,7 C 0,0 km/h (0 Bft)
19.05.2022 23:18 14,6 C 13,9 C 93 % 1022,5 hPa 0,0 l/m 0,0 km/h (0 Bft) NO 54 0 min 0,0 UV-I 0 W/m 13,5 C 14,6 C 0,0 km/h (0 Bft)
19.05.2022 23:20 14,5 C 13,9 C 93 % 1022,6 hPa 0,0 l/m 0,0 km/h (0 Bft) NO 54 0 min 0,0 UV-I 0 W/m 13,4 C 14,5 C 0,0 km/h (0 Bft)
19.05.2022 23:22 14,4 C 13,9 C 93 % 1022,5 hPa 0,0 l/m 0,0 km/h (0 Bft) NO 54 0 min 0,0 UV-I 0 W/m 13,3 C 14,4 C 0,0 km/h (0 Bft)
19.05.2022 23:24 14,4 C 13,9 C 93 % 1022,5 hPa 0,0 l/m 0,1 km/h (0 Bft) NO 54 0 min 0,0 UV-I 0 W/m 13,3 C 14,4 C 1,6 km/h (1 Bft)
19.05.2022 23:26 14,4 C 13,9 C 93 % 1022,5 hPa 0,0 l/m 0,2 km/h (0 Bft) NO 54 0 min 0,0 UV-I 0 W/m 13,3 C 14,4 C 1,6 km/h (1 Bft)
19.05.2022 23:28 14,5 C 13,9 C 93 % 1022,5 hPa 0,0 l/m 0,2 km/h (0 Bft) NO 54 0 min 0,0 UV-I 0 W/m 13,4 C 14,5 C 1,6 km/h (1 Bft)
19.05.2022 23:30 14,4 C 13,9 C 93 % 1022,6 hPa 0,0 l/m 0,0 km/h (0 Bft) NO 54 0 min 0,0 UV-I 0 W/m 13,3 C 14,4 C 0,0 km/h (0 Bft)
19.05.2022 23:32 14,4 C 13,9 C 93 % 1022,6 hPa 0,0 l/m 0,0 km/h (0 Bft) NO 54 0 min 0,0 UV-I 0 W/m 13,3 C 14,4 C 0,0 km/h (0 Bft)
19.05.2022 23:34 14,4 C 13,9 C 93 % 1022,6 hPa 0,0 l/m 0,0 km/h (0 Bft) NO 54 0 min 0,0 UV-I 0 W/m 13,3 C 14,4 C 1,6 km/h (1 Bft)
19.05.2022 23:36 14,4 C 13,9 C 93 % 1022,6 hPa 0,0 l/m 0,0 km/h (0 Bft) NO 54 0 min 0,0 UV-I 0 W/m 13,3 C 14,4 C 1,6 km/h (1 Bft)
19.05.2022 23:38 14,4 C 13,9 C 93 % 1022,7 hPa 0,0 l/m 0,0 km/h (0 Bft) NO 54 0 min 0,0 UV-I 0 W/m 13,3 C 14,4 C 0,0 km/h (0 Bft)
19.05.2022 23:40 14,4 C 13,9 C 93 % 1022,7 hPa 0,0 l/m 0,9 km/h (0 Bft) NO 54 0 min 0,0 UV-I 0 W/m 13,3 C 14,4 C 1,6 km/h (1 Bft)
19.05.2022 23:42 14,4 C 13,9 C 94 % 1022,7 hPa 0,0 l/m 1,6 km/h (1 Bft) NO 54 0 min 0,0 UV-I 0 W/m 13,4 C 14,4 C 3,2 km/h (1 Bft)
19.05.2022 23:44 14,4 C 13,9 C 94 % 1022,7 hPa 0,0 l/m 1,4 km/h (1 Bft) NO 54 0 min 0,0 UV-I 0 W/m 13,4 C 14,4 C 3,2 km/h (1 Bft)
19.05.2022 23:46 14,4 C 13,9 C 94 % 1022,7 hPa 0,0 l/m 1,9 km/h (1 Bft) NO 54 0 min 0,0 UV-I 0 W/m 13,4 C 14,4 C 3,2 km/h (1 Bft)
19.05.2022 23:48 14,4 C 13,9 C 94 % 1022,8 hPa 0,0 l/m 1,7 km/h (1 Bft) NO 54 0 min 0,0 UV-I 0 W/m 13,4 C 14,4 C 3,2 km/h (1 Bft)
19.05.2022 23:50 14,4 C 13,9 C 94 % 1022,8 hPa 0,0 l/m 1,9 km/h (1 Bft) NO 54 0 min 0,0 UV-I 0 W/m 13,4 C 14,4 C 3,2 km/h (1 Bft)
19.05.2022 23:52 14,4 C 13,9 C 94 % 1022,7 hPa 0,0 l/m 0,7 km/h (0 Bft) NO 54 0 min 0,0 UV-I 0 W/m 13,4 C 14,4 C 3,2 km/h (1 Bft)
19.05.2022 23:54 14,4 C 13,9 C 94 % 1022,7 hPa 0,0 l/m 0,4 km/h (0 Bft) NO 54 0 min 0,0 UV-I 0 W/m 13,4 C 14,4 C 1,6 km/h (1 Bft)
19.05.2022 23:56 14,4 C 13,9 C 94 % 1022,8 hPa 0,0 l/m 1,5 km/h (1 Bft) NO 54 0 min 0,0 UV-I 0 W/m 13,4 C 14,4 C 3,2 km/h (1 Bft)
19.05.2022 23:58 14,3 C 13,9 C 93 % 1022,8 hPa 0,0 l/m 1,2 km/h (1 Bft) NO 54 0 min 0,0 UV-I 0 W/m 13,2 C 14,3 C 3,2 km/h (1 Bft)
19.05.2022 23:59 14,3 C 13,9 C 93 % 1022,8 hPa 0,0 l/m 1,6 km/h (1 Bft) NO 45 0 min 0,0 UV-I 0 W/m 13,2 C 14,3 C 1,6 km/h (1 Bft)
_ Min-Zeit 05:36 05:27 14:26 14:57 - 00:00 - - - - - 05:35 05:35 00:00
Minimum _ 10,9 C 8,3 C 53 % 1017,6 hPa - 0,0 km/h (0 Bft) - - - - - 8,6 C 11,0 C 0,0 km/h (0 Bft)
_ Max-Zeit 14:51 14:20 23:42 23:48 15:56 15:45 - - 08:32 13:51 15:04 12:56 14:50 15:44
Maximum _ 26,7 C 32,2 C 94 % 1022,8 hPa 1,4 l/m 30,6 km/h
W (5 Bft)
- - 2 min 6,7 UV-I 1021 W/m 17,3 C 25,7 C 48,3 km/h
SW (6 Bft)
Durchschnitt _ 17,5 C 17,3 C 77 % 1020,0 hPa #8,4 l/m 4,0 km/h (1 Bft) SO - #5:34 h 2,8 UV-I 311 W/m 13,1 C 17,2 C 6,6 km/h (2 Bft)